[[{"header":{"parameterUnit":"m.s-1","parameterCategory":1,"la1":31.0,"la2":29.5877,"lo1":-88.7671,"lo2":-86.6584,"dy":0.0162,"dx":0.0185,"nx":115,"ny":88,"refTime":"2024-06-01T06:00:00:Z","depth":0,"parameterNumber":2,"parameterNumberName":"U-component_of_WINDS"},"data":[0.0,0.0,0.0,0.0,0.0,0.0,0.0,0.0,0.0,0.0,0.0,0.0,0.0,0.0,0.0,0.0,0.0,0.0,0.0,0.0,0.0,0.0,0.0,0.0,0.0,0.0,0.0,0.0,0.0,0.0,0.0,0.0,0.0,0.0,0.0,0.0,0.0,0.0,0.0,0.0,0.0,0.0,0.0,0.0,0.0,0.0,0.0,0.0,0.0,0.0,0.0,0.0,0.0,0.0,0.0,0.0,0.0,0.0,0.0,0.0,0.0,0.0,0.0,0.0,0.0,0.0,0.0,0.0,0.0,0.0,0.0,0.0,0.0,0.0,0.0,0.0,0.0,0.0,0.0,0.0,0.0,0.0,0.0,0.0,0.0,0.0,0.0,0.0,0.0,0.0,0.0,0.0,0.0,0.0,0.0,0.0,0.0,0.0,0.0,0.0,0.0,0.0,0.0,0.0,0.0,0.0,0.0,0.0,0.0,0.0,0.0,0.0,0.0,0.0,0.0,0.0,0.0,0.0,0.0,0.0,0.0,0.0,0.0,0.0,0.0,0.0,0.0,0.0,0.0,0.0,0.0,0.0,0.0,0.0,0.0,0.0,0.0,0.0,0.0,0.0,0.0,0.0,0.0,0.0,0.0,0.0,0.0,0.0,0.0,0.0,0.0,0.0,0.0,0.0,0.0,0.0,0.0,0.0,0.0,0.0,0.0,0.0,0.0,0.0,0.0,0.0,0.0,0.0,0.0,0.0,0.0,0.0,0.0,0.0,0.0,0.0,0.0,0.0,0.0,0.0,0.0,0.0,0.0,0.0,0.0,0.0,0.0,0.0,0.0,0.0,0.0,0.0,0.0,0.0,0.0,0.0,0.0,0.0,0.0,0.0,0.0,0.0,0.0,0.0,0.0,0.0,0.0,0.0,0.0,0.0,0.0,0.0,0.0,0.0,0.0,0.0,0.0,0.0,0.0,0.0,0.0,0.0,0.0,0.0,0.0,0.0,0.0,0.0,0.0,0.0,0.0,0.0,0.0,0.0,0.0,0.0,0.0,0.0,0.0,0.0,0.0,0.0,0.0,0.0,0.0,0.0,0.0,0.0,0.0,0.0,0.0,0.0,0.0,0.0,0.0,0.0,0.0,0.0,0.0,0.0,0.0,0.0,0.0,0.0,0.0,0.0,0.0,0.0,0.0,0.0,0.0,0.0,0.0,0.0,0.0,0.0,0.0,0.0,0.0,0.0,0.0,0.0,0.0,0.0,0.0,0.0,0.0,0.0,0.0,0.0,0.0,0.0,0.0,0.0,0.0,0.0,0.0,0.0,0.0,0.0,0.0,0.0,0.0,0.0,0.0,0.0,0.0,0.0,0.0,0.0,0.0,0.0,0.0,0.0,0.0,0.0,0.0,0.0,0.0,0.0,0.0,0.0,0.0,0.0,0.0,0.0,0.0,0.0,0.0,0.0,0.0,0.0,0.0,0.0,0.0,0.0,0.0,0.0,0.0,0.0,0.0,0.0,0.0,0.0,0.0,0.0,0.0,0.0,0.0,0.0,0.0,0.0,0.0,0.0,0.0,0.0,0.0,0.0,0.0,0.0,0.0,0.0,0.0,0.0,0.0,0.0,0.0,0.0,0.0,0.0,0.0,0.0,0.0,0.0,0.0,0.0,0.0,0.0,0.0,0.0,0.0,0.0,0.0,0.0,0.0,0.0,0.0,0.0,0.0,0.0,0.0,0.0,0.0,0.0,0.0,0.0,0.0,0.0,0.0,0.0,0.0,0.0,0.0,0.0,0.0,0.0,0.0,0.0,0.0,0.0,0.0,0.0,0.0,0.0,0.0,0.0,0.0,0.0,0.0,0.0,0.0,0.0,0.0,0.0,0.0,0.0,0.0,0.0,0.0,0.0,0.0,0.0,0.0,0.0,0.0,0.0,0.0,0.0,0.0,0.0,0.0,0.0,0.0,0.0,0.0,0.0,0.0,0.0,0.0,0.0,0.0,0.0,0.0,0.0,0.0,0.0,0.0,0.0,0.0,0.0,0.0,0.0,0.0,0.0,0.0,0.0,0.0,0.0,0.0,0.0,0.0,0.0,0.0,0.0,0.0,0.0,0.0,0.0,0.0,0.0,0.0,0.0,0.0,0.0,0.0,0.0,0.0,0.0,0.0,0.0,0.0,0.0,0.0,0.0,0.0,0.0,0.0,0.0,0.0,0.0,0.0,0.0,0.0,0.0,0.0,0.0,0.0,0.0,0.0,0.0,0.0,0.0,0.0,0.0,0.0,0.0,0.0,0.0,0.0,0.0,0.0,0.0,0.0,0.0,0.0,0.0,0.0,0.0,0.0,0.0,0.0,0.0,0.0,0.0,0.0,0.0,0.0,0.0,0.0,0.0,0.0,0.0,0.0,0.0,0.0,0.0,0.0,0.0,0.0,0.0,0.0,0.0,0.0,0.0,0.0,0.0,0.0,0.0,0.0,0.0,0.0,0.0,0.0,0.0,0.0,0.0,0.0,0.0,0.0,0.0,0.0,0.0,0.0,0.0,0.0,0.0,0.0,0.0,0.0,0.0,0.0,0.0,0.0,0.0,0.0,0.0,0.0,0.0,0.0,0.0,0.0,0.0,0.0,0.0,0.0,0.0,0.0,0.0,0.0,0.0,0.0,0.0,0.0,0.0,0.0,0.0,0.0,0.0,0.0,0.0,0.0,0.0,0.0,0.0,0.0,0.0,0.0,0.0,0.0,0.0,0.0,0.0,0.0,0.0,0.0,0.0,0.0,0.0,0.0,0.0,0.0,0.0,0.0,0.0,0.0,0.0,0.0,0.0,0.0,0.0,0.0,0.0,0.0,0.0,0.0,0.0,0.0,0.0,0.0,0.0,0.0,0.0,0.0,0.0,0.0,0.0,0.0,0.0,0.0,0.0,0.0,0.0,0.0,0.0,0.0,0.0,0.0,0.0,0.0,0.0,0.0,0.0,0.0,0.0,0.0,0.0,0.0,0.0,0.0,0.0,0.0,0.0,0.0,0.0,0.0,0.0,0.0,0.0,0.0,0.0,0.0,0.0,0.0,0.0,0.0,0.0,0.0,0.0,0.0,0.0,0.0,0.0,0.0,0.0,0.0,0.0,0.0,0.0,0.0,0.0,0.0,0.0,0.0,0.0,0.0,0.0,0.0,0.0,0.0,0.0,0.0,0.0,0.0,0.0,0.0,0.0,0.0,0.0,0.0,0.0,0.0,0.0,0.0,0.0,0.0,0.0,0.0,0.0,0.0,0.0,0.0,0.0,0.0,0.0,0.0,0.0,0.0,0.0,0.0,0.0,0.0,0.0,0.0,0.0,0.0,0.0,0.0,0.0,0.0,0.0,0.0,0.0,0.0,0.0,0.0,0.0,0.0,0.0,0.0,0.0,0.0,0.0,0.0,0.0,0.0,0.0,0.0,0.0,0.0,0.0,0.0,0.0,0.0,0.0,0.0,0.0,0.0,0.0,0.0,0.0,0.0,0.0,0.0,0.0,0.0,0.0,0.0,0.0,0.0,0.0,0.0,0.0,0.0,0.0,0.0,0.0,0.0,0.0,0.0,0.0,0.0,0.0,0.0,0.0,0.0,0.0,0.0,0.0,0.0,0.0,0.0,0.0,0.0,0.0,0.0,0.0,0.0,0.0,0.0,0.0,0.0,0.0,0.0,0.0,0.0,0.0,0.0,0.0,0.0,0.0,0.0,0.0,0.0,0.0,0.0,0.0,0.0,0.0,0.0,0.0,0.0,0.0,0.0,0.0,0.0,0.0,0.0,0.0,0.0,0.0,0.0,0.0,0.0,0.0,0.0,0.0,0.0,0.0,0.0,0.0,0.0,0.0,0.0,0.0,0.0,0.0,0.0,0.0,0.0,0.0,0.0,0.0,0.0,0.0,0.0,0.0,0.0,0.0,0.0,0.0,0.0,0.0,0.0,0.0,0.0,0.0,0.0,0.0,0.0,0.0,0.0,0.0,0.0,0.0,0.0,0.0,0.0,0.0,0.0,0.0,0.0,0.0,0.0,0.0,0.0,0.0,0.0,0.0,0.0,0.0,0.0,0.0,0.0,0.0,0.0,0.0,0.0,0.0,0.0,0.0,0.0,0.0,0.0,0.0,0.0,0.0,0.0,0.0,0.0,0.0,0.0,0.0,0.0,0.0,0.0,0.0,0.0,0.0,0.0,0.0,0.0,0.0,0.0,0.0,0.0,0.0,0.0,0.0,0.0,0.0,0.0,0.0,0.0,0.0,0.0,0.0,-0.3935,0.0,0.0,0.0,0.0,0.0,0.0,0.0,0.0,0.0,0.0,0.0,0.0,0.0,0.0,0.0,0.0,0.0,0.0,0.0,0.0,0.0,0.0,0.0,0.0,0.0,0.0,0.0,0.0,0.0,0.0,0.0,0.0,0.0,0.0,0.0,0.0,0.0,0.0,0.0,0.0,0.0,0.0,0.0,0.0,0.0,0.0,0.0,0.0,0.0,0.0,0.0,0.0,0.0,0.0,0.0,0.0,0.0,0.0,0.0,0.0,0.0,0.0,0.0,0.0,0.0,0.0,0.0,0.0,0.0,0.0,0.0,0.0,0.0,0.0,0.0,0.0,0.0,0.0,0.0,0.0,0.0,0.0,0.0,0.0,0.0,0.0,0.0,0.0,0.0,0.0,0.0,0.0,0.0,0.0,0.0,0.0,0.0,0.0,0.0,0.0,0.0,0.0,0.0,0.0,0.0,0.0,0.0,0.0,0.0,0.0,-0.4012,-0.4096,-0.4069,-0.3987,-0.3892,0.0,0.0,0.0,0.0,0.0,0.0,0.0,0.0,0.0,0.0,0.0,0.0,0.0,0.0,0.0,0.0,0.0,0.0,0.0,0.0,0.0,0.0,0.0,0.0,0.0,0.0,0.0,0.0,0.0,0.0,0.0,0.0,0.0,0.0,0.0,0.0,0.0,0.0,0.0,0.0,0.0,0.0,0.0,0.0,0.0,0.0,0.0,0.0,0.0,0.0,0.0,0.0,0.0,0.0,0.0,0.0,0.0,0.0,0.0,0.0,0.0,0.0,0.0,0.0,0.0,0.0,0.0,0.0,0.0,0.0,0.0,0.0,0.0,0.0,0.0,0.0,0.0,0.0,0.0,0.0,0.0,0.0,0.0,0.0,0.0,0.0,0.0,0.0,0.0,0.0,0.0,0.0,0.0,0.0,0.0,0.0,0.0,0.0,0.0,0.0,0.0,0.0,0.0,0.0,0.0,0.0,0.0,0.0,0.0,0.0,0.0,0.0,-0.3904,-0.3917,-0.3755,0.0,0.0,0.0,0.0,0.0,0.0,0.0,0.0,0.0,0.0,0.0,0.0,0.0,0.0,0.0,0.0,0.0,0.0,0.0,0.0,0.0,0.0,0.0,0.0,0.0,0.0,0.0,0.0,0.0,0.0,0.0,0.0,0.0,0.0,0.0,0.0,0.0,0.0,0.0,0.0,0.0,0.0,0.0,0.0,0.0,0.0,0.0,0.0,0.0,0.0,0.0,0.0,0.0,0.0,0.0,0.0,0.0,0.0,0.0,0.0,0.0,0.0,0.0,0.0,0.0,0.0,0.0,0.0,0.0,0.0,0.0,0.0,0.0,0.0,0.0,0.0,0.0,0.0,0.0,0.0,0.0,0.0,0.0,0.0,0.0,0.0,0.0,0.0,0.0,0.0,0.0,0.0,0.0,0.0,0.0,0.0,0.0,0.0,0.0,0.0,0.0,0.0,0.0,0.0,0.0,0.0,0.0,0.0,0.0,0.0,-0.2638,-0.2975,-0.3473,0.0,-0.3622,0.0,0.0,0.0,0.0,0.0,0.0,0.0,0.0,0.0,0.0,0.0,0.0,0.0,0.0,0.0,0.0,0.0,0.0,0.0,0.0,0.0,0.0,0.0,0.0,0.0,0.0,0.0,0.0,0.0,0.0,0.0,0.0,0.0,0.0,0.0,0.0,0.0,0.0,0.0,0.0,0.0,0.0,0.0,0.0,0.0,0.0,0.0,0.0,0.0,0.0,0.0,0.0,0.0,0.0,0.0,0.0,0.0,0.0,0.0,0.0,0.0,0.0,0.0,0.0,0.0,0.0,0.0,0.0,0.0,0.0,0.0,0.0,0.0,0.0,0.0,0.0,0.0,0.0,0.0,0.0,0.0,0.0,0.0,0.0,0.0,0.0,0.0,0.0,0.0,0.0,0.0,0.0,0.0,0.0,0.0,0.0,0.0,0.0,0.0,0.0,0.0,0.0,0.0,0.0,0.0,0.0,0.0,0.0,0.0,0.0,0.0,-0.2461,-0.2803,-0.328,0.0,0.0,0.0,0.0,0.0,0.0,0.0,0.0,0.0,0.0,0.0,0.0,0.0,0.0,0.0,0.0,0.0,0.0,0.0,0.0,0.0,0.0,0.0,0.0,0.0,0.0,0.0,0.0,0.0,0.0,0.0,0.0,0.0,0.0,0.0,0.0,0.0,0.0,0.0,0.0,0.0,0.0,0.0,0.0,0.0,0.0,0.0,0.0,0.0,0.0,0.0,0.0,0.0,0.0,0.0,0.0,0.0,0.0,0.0,0.0,0.0,0.0,0.0,0.0,0.0,0.0,0.0,0.0,0.0,0.0,0.0,0.0,0.0,0.0,0.0,0.0,0.0,0.0,0.0,0.0,0.0,0.0,0.0,0.0,0.0,0.0,0.0,0.0,0.0,0.0,0.0,0.0,0.0,0.0,0.0,0.0,0.0,0.0,0.0,0.0,0.0,0.0,0.0,0.0,0.0,0.0,0.0,0.0,0.0,0.0,-0.1733,0.0,-0.2123,-0.2073,-0.2543,-0.3506,0.0,0.0,0.0,0.0,0.0,0.0,0.0,0.0,0.0,0.0,0.0,0.0,0.0,0.0,0.0,0.0,0.0,0.0,0.0,0.0,0.0,0.0,0.0,0.0,0.0,0.0,0.0,0.0,0.0,0.0,0.0,0.0,0.0,0.0,0.0,0.0,0.0,0.0,0.0,0.0,0.0,0.0,0.0,0.0,0.0,0.0,0.0,0.0,0.0,0.0,0.0,0.0,0.0,0.0,0.0,0.0,0.0,0.0,0.0,0.0,0.0,0.0,0.0,0.0,0.0,0.0,0.0,0.0,0.0,0.0,0.0,0.0,0.0,0.0,0.0,0.0,0.0,0.0,0.0,0.0,0.0,0.0,0.0,0.0,0.0,0.0,0.0,0.0,0.0,0.0,0.0,0.0,0.0,0.0,0.0,0.0,0.0,0.0,0.0,0.0,0.0,0.0,0.0,0.0,0.0,0.0,0.0,0.0,0.0,-0.0991,-0.125,-0.2,-0.1336,-0.1411,0.0,0.0,0.0,0.0,0.0,0.0,0.0,0.0,0.0,0.0,0.0,0.0,0.0,0.0,0.0,0.0,0.0,0.0,0.0,0.0,0.0,0.0,0.0,0.0,0.0,0.0,0.0,0.0,0.0,0.0,0.0,0.0,0.0,0.0,0.0,0.0,0.0,0.0,0.0,0.0,0.0,0.0,0.0,0.0,0.0,0.0,0.0,0.0,0.0,0.0,0.0,0.0,0.0,0.0,0.0,0.0,0.0,0.0,0.0,0.0,0.0,0.0,0.0,0.0,0.0,0.0,0.0,0.0,0.0,0.0,0.0,0.0,0.0,0.0,0.0,0.0,0.0,0.0,0.0,0.0,0.0,0.0,0.0,0.0,0.0,0.0,0.0,0.0,0.0,0.0,0.0,0.0,0.0,0.0,0.0,0.0,0.0,0.0,0.0,0.0,0.0,0.0,0.0,0.0,0.0,0.0,0.0,0.0,0.0,-0.0879,-0.0848,-0.1493,0.0,-0.1842,-0.1895,0.0,0.0,0.0,0.0,0.0,0.0,0.0,0.0,0.0,0.0,0.0,0.0,0.0,0.0,0.0,0.0,0.0,0.0,0.0,0.0,0.0,0.0,0.0,0.0,0.0,0.0,0.0,0.0,0.0,0.0,0.0,0.0,0.0,0.0,0.0,0.0,0.0,0.0,0.0,0.0,0.0,0.0,0.0,0.0,0.0,0.0,0.0,0.0,0.0,0.0,0.0,0.0,0.0,0.0,0.0,0.0,0.0,0.0,0.0,0.0,0.0,0.0,0.0,0.0,0.0,0.0,0.0,0.0,0.0,0.0,0.0,0.0,0.0,0.0,0.0,0.0,0.0,0.0,0.0,0.0,0.0,0.0,0.0,0.0,0.0,0.0,0.0,0.0,0.0,0.0,0.0,0.0,0.0,0.0,0.0,0.0,0.0,0.0,0.0,0.0,0.0,0.0,0.0,0.0,0.0,0.0,0.0,0.0,0.0,-0.0777,0.0,-0.1509,0.0,-0.1782,-0.1915,0.0,0.0,0.0,0.0,0.0,0.0,0.0,0.0,0.0,0.0,0.0,0.0,0.0,0.0,0.0,0.0,0.0,0.0,0.0,0.0,0.0,0.0,0.0,0.0,0.0,0.0,0.0,0.0,0.0,0.0,0.0,0.0,0.0,0.0,0.0,0.0,0.0,0.0,0.0,0.0,0.0,0.0,0.0,0.0,0.0,0.0,0.0,0.0,0.0,0.0,0.0,0.0,0.0,0.0,0.0,0.0,0.0,0.0,0.0,0.0,0.0,0.0,0.0,0.0,0.0,0.0,0.0,0.0,0.0,0.0,0.0,0.0,0.0,0.0,0.0,0.0,0.0,0.0,0.0,0.0,0.0,0.0,0.0,0.0,0.0,0.0,0.0,0.0,0.0,0.0,0.0,0.0,0.0,0.0,0.0,0.0,0.0,0.0,0.0,0.0,0.0,0.0,0.0,0.0,0.0,0.0,0.0,0.0,-0.0778,-0.089,-0.095,-0.1251,-0.1631,-0.1226,-0.1366,0.0,0.0,0.0,0.0,0.0,0.0,0.0,0.0,0.0,0.0,0.0,0.0,0.0,0.0,0.0,0.0,0.0,0.0,0.0,0.0,0.0,0.0,0.0,0.0,0.0,0.0,0.0,0.0,0.0,0.0,0.0,0.0,0.0,0.0,0.0,0.0,0.0,0.0,0.0,0.0,0.0,0.0,0.0,0.0,0.0,0.0,0.0,0.0,0.0,0.0,0.0,0.0,0.0,0.0,0.0,0.0,0.0,0.0,0.0,0.0,0.0,0.0,0.0,0.0,0.0,0.0,0.0,0.0,0.0,0.0,0.0,0.0,0.0,0.0,0.0,0.0,0.0,0.0,0.0,0.0,0.0,0.0,0.0,0.0,0.0,0.0,0.0,0.0,0.0,0.0,0.0,0.0,0.0,0.0,0.0,0.0,0.0,0.0,0.0,0.0,0.0,0.0,0.0,0.0,0.0,0.0,0.0,0.0,0.0,-0.1564,-0.1173,-0.1535,-0.2633,-0.1734,-0.1712,0.0,0.0,0.0,0.0,0.0,0.0,0.0,0.0,0.0,0.0,0.0,0.0,0.0,0.0,0.0,0.0,0.0,0.0,0.0,0.0,0.0,0.0,0.0,0.0,0.0,0.0,0.0,0.0,0.0,0.0,0.0,0.0,0.0,0.0,0.0,0.0,0.0,0.0,0.0,0.0,0.0,0.0,0.0,0.0,0.0,0.0,0.0,0.0,0.0,0.0,0.0,0.0,0.0,0.0,0.0,0.0,0.0,0.0,0.0,0.0,0.0,0.0,0.0,0.0,0.0,0.0,0.0,0.0,0.0,0.0,0.0,0.0,0.0,0.0,0.0,0.0,0.0,0.0,0.0,0.0,0.0,0.0,0.0,0.0,0.0,0.0,0.0,0.0,0.0,0.0,0.0,0.0,0.0,0.0,0.0,0.0,0.0,0.0,0.0,0.0,0.0,0.0,0.0,0.0,0.0,0.0,0.0,0.0,0.0,-0.1918,-0.1297,-0.1492,-0.2631,-0.1705,-0.1689,-0.2626,0.0,0.0,0.0,0.0,0.0,0.0,0.0,0.0,0.0,0.0,0.0,0.0,0.0,0.0,0.0,0.0,0.0,0.0,0.0,0.0,0.0,0.0,0.0,0.0,0.0,0.0,0.0,0.0,0.0,0.0,0.0,0.0,0.0,0.0,0.0,0.0,0.0,0.0,0.0,0.0,0.0,0.0,0.0,0.0,0.0,0.0,0.0,0.0,0.0,0.0,0.0,0.0,0.0,0.0,0.0,0.0,0.0,0.0,0.0,0.0,0.0,0.0,0.0,0.0,0.0,0.0,0.0,0.0,0.0,0.0,0.0,0.0,0.0,0.0,0.0,0.0,0.0,0.0,0.0,0.0,0.0,0.0,0.0,0.0,0.0,0.0,0.0,0.0,0.0,0.0,0.0,0.0,0.0,0.0,0.0,0.0,0.0,0.0,0.0,0.0,0.0,0.0,0.0,0.0,0.0,0.0,0.0,0.0,-0.2048,-0.142,-0.1304,-0.1752,-0.1254,-0.1321,0.0,0.0,0.0,0.0,0.0,0.0,0.0,0.0,0.0,0.0,0.0,0.0,0.0,0.0,0.0,0.0,0.0,0.0,0.0,0.0,0.0,0.0,0.0,0.0,0.0,0.0,0.0,0.0,0.0,0.0,0.0,0.0,0.0,0.0,0.0,0.0,0.0,0.0,0.0,0.0,0.0,0.0,0.0,0.0,0.0,0.0,0.0,0.0,0.0,0.0,0.0,0.0,0.0,0.0,0.0,0.0,0.0,0.0,0.0,0.0,0.0,0.0,0.0,0.0,0.0,0.0,0.0,0.0,0.0,0.0,0.0,0.0,0.0,0.0,0.0,0.0,0.0,0.0,0.0,0.0,0.0,0.0,0.0,0.0,0.0,0.0,0.0,0.0,0.0,0.0,0.0,0.0,0.0,0.0,0.0,0.0,0.0,0.0,0.0,0.0,0.0,0.0,0.0,0.0,0.0,0.0,0.0,0.0,0.0,-0.1356,-0.1249,-0.1477,-0.2059,-0.1346,-0.1138,0.0,0.0,0.0,0.0,0.0,0.0,0.0,0.0,0.0,0.0,0.0,0.0,0.0,0.0,0.0,0.0,0.0,0.0,0.0,0.0,0.0,0.0,0.0,0.0,0.0,0.0,0.0,0.0,0.0,0.0,0.0,0.0,0.0,0.0,0.0,0.0,0.0,0.0,0.0,0.0,0.0,0.0,0.0,0.0,0.0,0.0,0.0,0.0,0.0,0.0,0.0,0.0,0.0,0.0,0.0,0.0,0.0,0.0,0.0,0.0,0.0,0.0,0.0,0.0,0.0,0.0,0.0,0.0,0.0,0.0,0.0,0.0,0.0,0.0,0.0,0.0,0.0,0.0,0.0,0.0,0.0,0.0,0.0,0.0,0.0,0.0,0.0,0.0,0.0,0.0,0.0,0.0,0.0,0.0,0.0,0.0,0.0,0.0,0.0,0.0,0.0,0.0,0.0,0.0,0.0,0.0,0.0,0.0,-0.105,-0.1138,-0.1229,-0.1471,-0.174,-0.1317,-0.1043,0.0,0.0,0.0,0.0,0.0,0.0,0.0,0.0,0.0,0.0,0.0,0.0,0.0,0.0,0.0,0.0,0.0,0.0,0.0,0.0,0.0,0.0,0.0,0.0,0.0,0.0,0.0,0.0,0.0,0.0,0.0,0.0,0.0,0.0,0.0,0.0,0.0,0.0,0.0,0.0,0.0,0.0,0.0,0.0,0.0,0.0,0.0,0.0,0.0,0.0,0.0,0.0,0.0,0.0,0.0,0.0,0.0,0.0,0.0,0.0,0.0,0.0,0.0,0.0,0.0,0.0,0.0,0.0,0.0,0.0,0.0,0.0,0.0,0.0,0.0,0.0,0.0,0.0,0.0,0.0,0.0,0.0,0.0,0.0,0.0,0.0,0.0,0.0,0.0,0.0,0.0,0.0,0.0,0.0,0.0,0.0,0.0,0.0,0.0,0.0,0.0,0.0,0.0,0.0,0.0,0.0,0.0,0.0,-0.1089,-0.1248,-0.1343,-0.1445,-0.1305,-0.1289,-0.1137,0.0,0.0,0.0,0.0,0.0,0.0,0.0,0.0,0.0,0.0,0.0,0.0,0.0,0.0,0.0,0.0,0.0,0.0,0.0,0.0,0.0,0.0,0.0,0.0,0.0,0.0,0.0,0.0,0.0,0.0,0.0,0.0,0.0,0.0,0.0,0.0,0.0,0.0,0.0,0.0,0.0,0.0,0.0,0.0,0.0,0.0,0.0,0.0,0.0,0.0,0.0,0.0,0.0,0.0,0.0,0.0,0.0,0.0,0.0,0.0,0.0,0.0,0.0,0.0,0.0,0.0,0.0,0.0,0.0,0.0,0.0,0.0,0.0,0.0,0.0,0.0,0.0,0.0,0.0,0.0,0.0,0.0,0.0,0.0,0.0,0.0,0.0,0.0,0.0,0.0,0.0,0.0,0.0,0.0,0.0,0.0,0.0,0.0,0.0,0.0,0.0,0.0,0.0,0.0,0.0,0.0,0.0,0.0,-0.117,-0.1314,-0.2069,-0.2451,-0.2301,-0.1607,-0.1186,0.0,0.0,0.0,0.0,0.0,0.0,0.0,0.0,0.0,0.0,0.0,0.0,0.0,0.0,0.0,0.0,0.0,0.0,0.0,0.0,0.0,0.0,0.0,0.0,0.0,0.0,0.0,0.0,0.0,0.0,0.0,0.0,0.0,0.0,0.0,0.0,0.0,0.0,0.0,0.0,0.0,0.0,0.0,0.0,0.0,0.0,0.0,0.0,-0.1797,0.0,0.0,0.0,0.0,0.0,0.0,0.0,0.0,0.0,0.0,0.0,0.0,0.0,0.0,0.0,0.0,0.0,0.0,0.0,0.0,0.0,0.0,0.0,0.0,0.0,0.0,0.0,0.0,0.0,0.0,0.0,0.0,0.0,0.0,0.0,0.0,0.0,0.0,0.0,0.0,0.0,0.0,0.0,0.0,0.0,0.0,0.0,0.0,0.0,0.0,0.0,0.0,0.0,0.0,0.0,0.0,0.0,0.0,0.0,-0.1203,-0.1277,-0.1857,-0.2062,-0.2016,-0.1903,-0.182,0.0,0.0,0.0,0.0,0.0,0.0,0.0,0.0,0.0,0.0,0.0,0.0,0.0,0.0,0.0,0.0,0.0,0.0,0.0,0.0,0.0,0.0,0.0,0.0,0.0,0.0,0.0,0.0,0.0,0.0,0.0,0.0,0.0,0.0,0.0,0.0,0.0,0.0,0.0,0.0,0.0,0.0,0.0,0.0,0.0,0.0,0.0,0.0,0.0,0.0,0.0,0.0,0.0,0.0,0.0,0.0,0.0,0.0,0.0,0.0,0.0,0.0,0.0,0.0,0.0,0.0,0.0,0.0,0.0,0.0,0.0,0.0,0.0,0.0,0.0,0.0,0.0,0.0,0.0,0.0,0.0,0.0,0.0,0.0,0.0,0.0,0.0,0.0,0.0,0.0,0.0,0.0,0.0,0.0,0.0,0.0,0.0,0.0,0.0,0.0,0.0,0.0,0.0,0.0,0.0,0.0,0.0,-0.1104,-0.1217,-0.1307,-0.1537,-0.1553,-0.1517,-0.2391,-0.2694,-0.2362,0.0,0.0,0.0,0.0,0.0,0.0,0.0,0.0,0.0,0.0,0.0,0.0,0.0,0.0,0.0,0.0,0.0,0.0,0.0,0.0,0.0,0.0,0.0,0.0,0.0,0.0,0.0,0.0,0.0,0.0,0.0,0.0,0.0,0.0,0.0,0.0,0.0,0.0,-0.1713,-0.1837,0.0,0.0,0.0,0.0,0.0,0.0,0.0,0.0,-0.1887,0.0,0.0,0.0,0.0,0.0,0.0,0.0,0.0,0.0,0.0,0.0,0.0,0.0,0.0,0.0,0.0,0.0,0.0,0.0,0.0,0.0,0.0,0.0,0.0,0.0,0.0,0.0,0.0,0.0,0.0,0.0,0.0,0.0,0.0,0.0,0.0,0.0,0.0,0.0,0.0,0.0,0.0,0.0,0.0,0.0,0.0,0.0,0.0,0.0,0.0,0.0,0.0,0.0,0.0,0.0,0.0,-0.109,-0.1166,-0.1249,-0.1339,-0.2183,-0.2536,-0.2439,-0.326,-0.3444,-0.2708,0.0,0.0,0.0,0.0,0.0,0.0,0.0,0.0,0.0,0.0,0.0,0.0,0.0,0.0,0.0,0.0,0.0,0.0,0.0,0.0,0.0,0.0,0.0,0.0,0.0,0.0,0.0,0.0,0.0,0.0,0.0,0.0,0.0,0.0,0.0,0.0,0.0,0.0,0.0,-0.2033,-0.205,0.0,0.0,0.0,0.0,0.0,0.0,0.0,0.0,-0.1862,0.0,0.0,0.0,0.0,0.0,0.0,0.0,0.0,0.0,0.0,0.0,0.0,0.0,0.0,0.0,0.0,0.0,0.0,0.0,0.0,0.0,0.0,0.0,0.0,0.0,0.0,0.0,0.0,0.0,0.0,0.0,0.0,0.0,0.0,0.0,0.0,0.0,0.0,0.0,0.0,0.0,0.0,0.0,0.0,0.0,0.0,0.0,0.0,0.0,0.0,0.0,0.0,0.0,0.0,0.0,-0.1073,-0.1181,-0.1509,-0.21,-0.263,-0.2809,-0.2773,-0.3526,-0.3448,0.0,0.0,0.0,0.0,0.0,0.0,0.0,0.0,0.0,0.0,0.0,0.0,0.0,0.0,0.0,0.0,0.0,0.0,0.0,0.0,0.0,0.0,0.0,0.0,0.0,0.0,0.0,0.0,0.0,0.0,0.0,0.0,0.0,0.0,0.0,0.0,0.0,0.0,0.0,0.0,-0.2015,-0.2151,-0.203,0.0,0.0,0.0,0.0,0.0,0.0,-0.1965,-0.1917,0.0,0.0,0.0,0.0,0.0,0.0,0.0,0.0,0.0,0.0,0.0,0.0,0.0,0.0,0.0,0.0,0.0,0.0,0.0,0.0,0.0,0.0,0.0,0.0,0.0,0.0,0.0,0.0,0.0,0.0,0.0,0.0,0.0,0.0,0.0,0.0,0.0,0.0,0.0,0.0,0.0,0.0,0.0,0.0,0.0,0.0,0.0,0.0,0.0,0.0,0.0,0.0,0.0,0.0,0.0,-0.1042,-0.1178,-0.1679,-0.2433,-0.2543,-0.2634,-0.2772,-0.3304,-0.3006,0.0,0.0,0.0,0.0,0.0,0.0,0.0,0.0,0.0,0.0,0.0,0.0,0.0,0.0,0.0,0.0,0.0,0.0,0.0,0.0,0.0,0.0,0.0,0.0,0.0,0.0,0.0,0.0,0.0,0.0,0.0,0.0,0.0,0.0,0.0,0.0,0.0,0.0,0.0,0.0,0.0,-0.214,-0.222,-0.2252,0.0,0.0,0.0,0.0,-0.2147,-0.2093,0.0,0.0,0.0,0.0,0.0,0.0,0.0,0.0,0.0,0.0,0.0,0.0,0.0,0.0,0.0,0.0,0.0,0.0,0.0,0.0,0.0,0.0,0.0,0.0,0.0,0.0,0.0,0.0,0.0,0.0,0.0,0.0,0.0,0.0,0.0,0.0,0.0,0.0,0.0,0.0,0.0,0.0,0.0,0.0,0.0,0.0,0.0,0.0,0.0,0.0,0.0,0.0,0.0,0.0,0.0,0.0,-0.1067,-0.1167,-0.1338,-0.1429,-0.158,-0.1932,-0.2604,-0.2621,-0.2144,0.0,0.0,0.0,0.0,0.0,0.0,0.0,0.0,0.0,0.0,0.0,0.0,0.0,0.0,0.0,0.0,0.0,0.0,0.0,0.0,0.0,0.0,0.0,0.0,0.0,0.0,0.0,0.0,0.0,0.0,0.0,0.0,0.0,0.0,0.0,0.0,0.0,0.0,0.0,0.0,0.0,-0.2324,-0.2174,-0.2288,-0.2387,0.0,0.0,0.0,-0.2435,-0.2367,0.0,0.0,0.0,0.0,0.0,0.0,0.0,0.0,0.0,0.0,0.0,0.0,0.0,0.0,0.0,0.0,0.0,0.0,0.0,0.0,0.0,0.0,0.0,0.0,0.0,0.0,0.0,0.0,0.0,0.0,0.0,0.0,0.0,0.0,0.0,0.0,0.0,0.0,0.0,0.0,0.0,0.0,0.0,0.0,0.0,0.0,0.0,0.0,0.0,0.0,0.0,0.0,0.0,0.0,0.0,-0.109,-0.1237,-0.1284,-0.1542,-0.2139,-0.2206,-0.2371,-0.2688,-0.2564,-0.2076,0.0,0.0,0.0,0.0,0.0,0.0,0.0,0.0,0.0,0.0,0.0,0.0,0.0,0.0,0.0,0.0,0.0,0.0,0.0,0.0,0.0,0.0,0.0,0.0,0.0,0.0,0.0,0.0,0.0,0.0,0.0,0.0,0.0,0.0,0.0,0.0,0.0,0.0,0.0,0.0,0.0,0.0,-0.2398,-0.2474,0.0,0.0,0.0,-0.2501,-0.2508,0.0,0.0,0.0,0.0,0.0,0.0,0.0,0.0,0.0,0.0,0.0,0.0,0.0,0.0,0.0,0.0,0.0,0.0,0.0,0.0,0.0,0.0,0.0,0.0,0.0,0.0,0.0,0.0,0.0,0.0,0.0,0.0,0.0,0.0,0.0,0.0,0.0,0.0,0.0,0.0,0.0,0.0,0.0,0.0,0.0,0.0,0.0,0.0,0.0,0.0,0.0,0.0,0.0,0.0,0.0,0.0,0.0,-0.1261,-0.1318,-0.1663,-0.2428,-0.2482,-0.2546,-0.2772,-0.2608,0.0,0.0,0.0,0.0,0.0,0.0,0.0,0.0,0.0,0.0,0.0,0.0,0.0,0.0,0.0,0.0,0.0,0.0,0.0,0.0,0.0,0.0,0.0,0.0,0.0,0.0,0.0,-0.1196,0.0,0.0,0.0,0.0,0.0,0.0,0.0,0.0,0.0,0.0,0.0,0.0,0.0,0.0,-0.2387,-0.2595,-0.2662,-0.2696,0.0,0.0,-0.2728,-0.2636,-0.2623,-0.2546,0.0,0.0,0.0,0.0,0.0,0.0,0.0,0.0,0.0,0.0,0.0,0.0,0.0,0.0,0.0,0.0,0.0,0.0,0.0,0.0,0.0,0.0,0.0,0.0,0.0,0.0,0.0,0.0,0.0,0.0,0.0,0.0,0.0,0.0,0.0,0.0,0.0,0.0,0.0,0.0,0.0,0.0,0.0,0.0,0.0,0.0,0.0,0.0,0.0,0.0,0.0,0.0,0.0,0.0,0.0,-0.119,-0.1241,-0.1331,-0.1475,-0.1509,-0.1844,-0.2604,-0.2408,-0.2241,0.0,0.0,0.0,0.0,0.0,0.0,0.0,0.0,0.0,0.0,0.0,0.0,0.0,0.0,0.0,0.0,0.0,0.0,0.0,0.0,0.0,0.0,0.0,0.0,0.0,0.0,0.0,0.0,0.0,0.0,0.0,0.0,0.0,0.0,0.0,0.0,0.0,0.0,0.0,0.0,0.0,-0.254,-0.2669,-0.2828,-0.2954,0.0,0.0,-0.2936,-0.2928,-0.2925,-0.2809,-0.2463,0.0,0.0,0.0,0.0,0.0,0.0,0.0,0.0,0.0,0.0,0.0,0.0,0.0,0.0,0.0,0.0,0.0,0.0,0.0,0.0,0.0,0.0,0.0,0.0,0.0,0.0,0.0,0.0,0.0,0.0,0.0,0.0,0.0,0.0,0.0,0.0,0.0,0.0,0.0,0.0,0.0,0.0,0.0,0.0,0.0,0.0,0.0,0.0,0.0,0.0,0.0,0.0,0.0,-0.1159,-0.1291,-0.1269,-0.1358,-0.1415,-0.1429,-0.1592,-0.1887,-0.1726,-0.1675,0.0,0.0,0.0,0.0,0.0,0.0,0.0,0.0,0.0,0.0,0.0,0.0,0.0,0.0,0.0,0.0,0.0,0.0,0.0,0.0,0.0,0.0,0.0,0.0,0.0,0.0,0.0,0.0,-0.1518,-0.1511,-0.1598,0.0,0.0,0.0,0.0,0.0,0.0,0.0,0.0,0.0,0.0,-0.2636,-0.283,-0.2947,0.0,0.0,-0.3061,-0.3057,-0.3021,-0.2954,-0.2834,-0.2621,-0.2493,0.0,0.0,0.0,0.0,0.0,0.0,0.0,0.0,0.0,0.0,0.0,0.0,0.0,0.0,0.0,0.0,0.0,0.0,0.0,0.0,0.0,0.0,0.0,0.0,0.0,0.0,0.0,0.0,0.0,0.0,0.0,0.0,0.0,0.0,0.0,0.0,0.0,0.0,0.0,0.0,0.0,0.0,0.0,0.0,0.0,0.0,0.0,0.0,0.0,0.0,0.0,0.0,-0.1178,-0.1238,-0.1286,-0.1377,-0.1434,-0.1436,-0.1421,-0.139,-0.1333,-0.124,0.0,0.0,0.0,0.0,0.0,0.0,0.0,0.0,0.0,0.0,0.0,0.0,0.0,0.0,0.0,0.0,0.0,0.0,0.0,0.0,0.0,0.0,0.0,0.0,0.0,0.0,0.0,0.0,-0.1836,-0.1917,-0.1967,0.0,0.0,0.0,0.0,0.0,0.0,0.0,0.0,0.0,0.0,-0.2782,-0.2984,-0.3064,-0.3104,-0.3104,-0.3139,-0.3139,-0.3157,-0.2995,-0.2901,-0.2744,0.0,0.0,0.0,0.0,0.0,0.0,0.0,0.0,0.0,0.0,0.0,0.0,0.0,0.0,0.0,0.0,0.0,0.0,0.0,0.0,0.0,0.0,0.0,0.0,0.0,0.0,0.0,0.0,0.0,0.0,0.0,0.0,0.0,0.0,0.0,0.0,0.0,0.0,0.0,0.0,0.0,0.0,0.0,0.0,0.0,0.0,0.0,0.0,0.0,0.0,0.0,0.0,0.0,0.0,-0.1093,-0.1207,-0.1377,-0.1433,-0.1436,-0.1421,-0.1391,-0.1334,-0.1338,-0.1383,0.0,0.0,0.0,0.0,0.0,0.0,0.0,0.0,0.0,0.0,0.0,0.0,0.0,0.0,0.0,0.0,0.0,0.0,0.0,0.0,0.0,0.0,0.0,0.0,0.0,0.0,-0.206,-0.2393,-0.2554,0.0,0.0,0.0,0.0,0.0,0.0,0.0,0.0,0.0,0.0,-0.2803,-0.2995,-0.3116,-0.3187,-0.3221,-0.3222,-0.3226,-0.3187,-0.3071,-0.3094,-0.3055,0.0,0.0,0.0,0.0,0.0,0.0,0.0,0.0,0.0,0.0,0.0,0.0,0.0,0.0,0.0,0.0,0.0,0.0,0.0,0.0,0.0,0.0,0.0,0.0,0.0,0.0,0.0,0.0,-0.1599,0.0,0.0,0.0,0.0,0.0,0.0,0.0,0.0,0.0,0.0,0.0,-0.1948,-0.2121,0.0,0.0,0.0,0.0,0.0,0.0,0.0,0.0,0.0,0.0,0.0,0.0,-0.1165,-0.1197,-0.1315,-0.1395,-0.1434,-0.1436,-0.143,-0.1419,-0.1554,-0.1613,-0.1641,0.0,0.0,0.0,0.0,0.0,0.0,0.0,0.0,0.0,0.0,0.0,0.0,0.0,0.0,0.0,0.0,0.0,0.0,0.0,0.0,0.0,0.0,0.0,0.0,0.0,-0.1879,0.0,0.0,0.0,0.0,0.0,0.0,0.0,0.0,0.0,0.0,0.0,-0.3318,-0.3862,-0.3402,-0.3252,-0.3679,-0.3417,-0.323,0.0,0.0,0.0,0.0,0.0,0.0,0.0,0.0,0.0,0.0,0.0,0.0,0.0,0.0,-0.0361,0.008,0.0077,0.0152,0.0536,0.0,0.0,0.0,0.0,0.0,0.0,0.0,0.0,0.0,0.0,0.0,0.0,0.0,0.0,0.0,0.0,-0.2079,0.0,0.0,0.0,0.0,0.0,0.0,0.0,0.0,-0.2209,-0.2384,-0.2343,-0.2532,-0.2515,0.0,-0.2119,-0.1882,0.0,0.0,0.0,0.0,0.0,0.0,0.0,0.0,-0.1266,-0.138,-0.1334,-0.1405,-0.1433,-0.1525,-0.1525,-0.1524,-0.1731,-0.186,-0.1881,-0.1753,-0.1921,0.0,0.0,0.0,0.0,0.0,0.0,0.0,0.0,0.0,0.0,0.0,0.0,0.0,0.0,0.0,0.0,0.0,0.0,0.0,0.0,0.0,0.0,0.0,-0.2292,0.0,0.0,0.0,0.0,0.0,0.0,0.0,0.0,0.0,-0.3823,-0.3875,-0.4104,-0.4583,-0.4126,-0.3834,-0.4158,0.0,0.0,0.0,0.0,0.0,0.0,0.0,-0.3413,-0.3238,-0.3065,-0.3014,-0.3143,-0.3153,-0.2305,0.0293,0.0,0.0,0.053,0.0593,0.0669,0.0843,0.1018,0.1112,0.1378,0.1413,0.1442,0.0,0.0,0.0,0.0,0.0,0.0,0.0,0.0,-0.1839,-0.2353,0.0,-0.2502,0.0,0.0,0.0,0.0,0.0,0.0,0.0,0.0,-0.2697,-0.2966,-0.297,-0.2886,-0.2854,-0.2803,-0.2722,-0.2541,-0.2273,-0.1786,0.0,0.0,0.0,0.0,0.0,0.0,-0.1355,-0.1497,-0.1432,-0.1406,-0.1436,-0.1705,-0.1795,-0.1882,-0.211,-0.2156,-0.213,-0.2169,-0.2168,-0.1989,-0.1868,0.0,0.0,0.0,0.0,0.0,0.0,0.0,0.0,0.0,0.0,0.0,0.0,0.0,0.0,0.0,0.0,0.0,0.0,0.0,0.0,-0.2746,0.0,0.0,0.0,0.0,0.0,0.0,0.0,0.0,0.0,0.0,-0.4161,-0.461,-0.5071,-0.488,0.0,0.0,0.0,0.0,-0.417,-0.4451,-0.4359,-0.4255,-0.4255,-0.4313,-0.4121,-0.3434,0.0,0.0,-0.3358,-0.3229,-0.2107,0.1121,0.1665,0.1686,0.1625,0.1156,0.0936,0.1332,0.113,0.0937,0.1335,0.157,0.161,0.0164,0.0,0.0,0.0,0.0,-0.2123,-0.2198,-0.2342,-0.248,-0.2779,-0.3068,-0.2834,0.0,0.0,0.0,0.0,0.0,0.0,-0.2532,-0.2707,-0.285,-0.2941,-0.3064,-0.3109,-0.3095,-0.3038,-0.2934,-0.2866,-0.2824,-0.2542,-0.2077,-0.1365,0.0,0.0,0.0,0.0,-0.1725,-0.2615,-0.2011,-0.1797,-0.2202,-0.208,-0.2155,-0.2334,-0.2346,-0.2338,-0.2475,-0.2398,-0.2352,-0.2174,-0.2052,0.0,0.0,0.0,0.0,0.0,0.0,0.0,0.0,0.0,0.0,0.0,0.0,0.0,0.0,0.0,0.0,0.0,0.0,0.0,-0.2211,-0.3049,-0.3664,0.0,0.0,0.0,0.0,0.0,0.0,0.0,0.0,0.0,-0.5639,-0.5551,-0.5652,0.0,0.0,-0.5118,-0.5182,-0.5004,-0.4727,-0.4537,0.0,0.0,0.0,-0.4934,-0.4818,-0.4643,-0.386,-0.3231,-0.3373,-0.2352,-0.0862,0.1369,0.1798,0.1698,0.1683,0.1556,0.1437,0.1651,0.1543,0.1437,0.1549,0.1669,0.1679,-0.1111,-0.157,-0.1262,-0.1607,-0.227,-0.2415,-0.2661,-0.2899,-0.2866,-0.3028,-0.3105,-0.3129,-0.2932,-0.2629,-0.2548,0.0,0.0,0.0,-0.2793,-0.2887,-0.298,-0.3049,-0.3173,-0.3213,-0.3211,-0.3176,-0.304,-0.2992,-0.3029,-0.2866,-0.2501,-0.191,0.0,0.0,-0.1305,-0.1764,-0.2277,-0.2761,-0.2275,-0.212,-0.2406,-0.236,-0.2424,-0.2602,-0.253,-0.2543,-0.2639,-0.2531,-0.2425,-0.2317,-0.2176,-0.2012,0.0,0.0,0.0,0.0,0.0,0.0,0.0,0.0,0.0,0.0,0.0,-0.1658,0.0,0.0,0.0,0.0,-0.2196,-0.2441,-0.2745,-0.3636,0.0,0.0,0.0,0.0,0.0,0.0,0.0,-0.5697,-0.6105,-0.6418,-0.6537,-0.63,-0.6264,-0.6755,-0.6258,-0.5948,-0.614,0.0,-0.5545,-0.5585,-0.5592,-0.5603,-0.5638,-0.5596,-0.5472,-0.51,-0.3618,-0.253,-0.24,-0.1536,-0.033,0.1308,0.1849,0.174,0.174,0.174,0.1731,0.171,0.1714,0.1722,0.1722,0.1732,0.174,-0.2024,-0.201,-0.187,-0.2108,-0.2611,-0.2611,-0.2827,-0.3063,-0.3064,-0.3191,-0.324,-0.3179,-0.3118,-0.305,-0.2858,0.0,0.0,-0.2955,-0.304,-0.3146,-0.3147,-0.3176,-0.3229,-0.323,-0.323,-0.323,-0.2928,-0.2901,-0.3049,-0.285,-0.2679,-0.2629,-0.2049,-0.1769,-0.1913,-0.2706,-0.2858,-0.2417,-0.2365,-0.2362,-0.2315,-0.2454,-0.2697,-0.2867,-0.2758,-0.2696,-0.2681,-0.2523,-0.2429,-0.2414,-0.2259,-0.2178,-0.205,0.0,0.0,0.0,0.0,0.0,0.0,0.0,0.0,0.0,0.0,0.0,0.0,0.0,0.0,0.0,-0.3394,0.0,-0.3574,-0.4352,0.0,0.0,0.0,-0.5186,-0.5439,-0.576,-0.6051,-0.6285,0.0,0.0,0.0,0.0,-0.6999,-0.6999,-0.6902,-0.6869,-0.7094,-0.658,-0.634,-0.6994,-0.6681,-0.627,-0.6337,-0.6352,-0.5906,-0.4806,-0.3144,-0.1797,-0.1348,-0.0788,-0.0,0.1464,0.1802,0.1802,0.1802,0.1802,0.1785,0.1734,0.1738,0.1754,0.1759,0.1778,0.1797,-0.1944,-0.2318,-0.2277,-0.2463,-0.277,-0.2969,-0.3075,-0.3187,-0.3188,-0.3195,-0.3204,-0.3243,-0.3179,-0.3029,-0.3048,-0.3063,-0.3079,-0.3138,-0.318,-0.3209,-0.3209,-0.3217,-0.323,-0.323,-0.323,-0.323,-0.313,-0.3122,-0.321,-0.3108,-0.3087,-0.3046,-0.2907,-0.2628,-0.2142,-0.2807,-0.3074,-0.3,-0.2778,-0.2642,-0.2777,-0.2854,-0.2897,-0.2807,-0.2777,-0.2718,-0.2627,-0.2582,-0.2515,-0.2424,-0.2338,-0.2377,-0.2507,-0.2148,0.0,0.0,0.0,0.0,0.0,0.0,0.0,0.0,0.0,-0.2538,-0.2308,0.0,-0.269,0.0,-0.4063,-0.4345,-0.4341,-0.4781,0.0,0.0,-0.5695,-0.5858,-0.6274,-0.6399,-0.6507,-0.6657,-0.6834,-0.695,-0.698,-0.7059,-0.7114,-0.7114,-0.7092,-0.7051,-0.6893,-0.6931,-0.6968,-0.7114,-0.7122,-0.7014,-0.6935,-0.6943,-0.6281,-0.426,-0.2717,-0.2056,-0.2746,-0.0693,0.1282,0.1748,0.1864,0.1864,0.1862,0.1864,0.1859,0.1843,0.1812,0.1791,0.1814,0.1825,0.1836,-0.2088,-0.2482,-0.2585,-0.2793,-0.3099,-0.3152,-0.323,-0.323,-0.323,-0.323,-0.3229,-0.3195,-0.3162,-0.3134,-0.3165,-0.318,-0.3183,-0.3215,-0.323,-0.323,-0.323,-0.323,-0.323,-0.323,-0.323,-0.323,-0.323,-0.323,-0.323,-0.323,-0.323,-0.323,-0.323,-0.2967,-0.2659,-0.297,-0.3213,-0.318,-0.3023,-0.2976,-0.304,-0.2985,-0.2914,-0.2827,-0.2797,-0.2895,-0.3089,-0.2975,-0.2832,-0.2953,-0.2704,-0.2614,-0.2807,-0.2555,-0.2538,0.0,0.0,0.0,0.0,0.0,0.0,0.0,0.0,0.0,0.0,0.0,-0.3429,0.0,-0.4597,0.0,-0.4982,-0.5436,-0.5871,-0.6187,-0.6271,-0.641,-0.6673,-0.6749,-0.6809,-0.6874,-0.6989,-0.7081,-0.7133,-0.7195,-0.7255,-0.7309,-0.7317,-0.7274,-0.7065,-0.7239,-0.7315,-0.7317,-0.7317,-0.7317,-0.732,-0.6296,-0.5502,-0.5052,-0.2772,-0.1045,-0.1046,0.0469,0.1768,0.1885,0.1885,0.1885,0.1885,0.1885,0.1885,0.1881,0.1859,0.1844,0.1857,0.186,0.1867,-0.2348,-0.2664,-0.2878,-0.3199,-0.3405,-0.3298,-0.3253,-0.3253,-0.3253,-0.3253,-0.3253,-0.3253,-0.3255,-0.3253,-0.3253,-0.3253,-0.3255,-0.3255,-0.3251,-0.3243,-0.3241,-0.3238,-0.323,-0.323,-0.323,-0.323,-0.323,-0.323,-0.323,-0.323,-0.323,-0.323,-0.323,-0.323,-0.323,-0.323,-0.323,-0.323,-0.3179,-0.3147,-0.3138,-0.3037,-0.2947,-0.2877,-0.2901,-0.3148,-0.3655,-0.3423,-0.3505,-0.3949,-0.3576,-0.3274,-0.325,-0.3232,-0.3234,0.0,-0.3599,0.0,0.0,0.0,0.0,0.0,0.0,0.0,0.0,-0.4729,-0.4693,-0.4351,-0.5087,-0.5586,-0.5496,-0.6087,-0.6524,-0.6632,-0.6755,-0.6825,-0.6831,-0.6931,-0.7008,-0.7008,-0.7108,-0.7222,-0.7312,-0.7347,-0.7402,-0.7483,-0.7521,-0.7491,-0.7297,-0.7335,-0.75,-0.7519,-0.7519,-0.7491,-0.7275,-0.5639,-0.4702,-0.5542,-0.2714,0.0354,0.13,0.1659,0.178,0.19,0.2021,0.2019,0.1897,0.1899,0.1898,0.1902,0.1899,0.1896,0.1893,0.1892,0.1893,-0.2699,-0.2878,-0.2984,-0.3199,-0.341,-0.3387,-0.3272,-0.3167,-0.3167,-0.3272,-0.3377,-0.3272,-0.3272,-0.3377,-0.3377,-0.3377,-0.3377,-0.3377,-0.3247,-0.3201,-0.3305,-0.3278,-0.3232,-0.323,-0.323,-0.323,-0.323,-0.323,-0.323,-0.323,-0.323,-0.323,-0.323,-0.323,0.0,0.0,0.0,0.0,-0.3219,-0.3188,-0.3142,-0.3117,-0.303,-0.288,-0.3164,0.0,-0.2925,-0.4034,-0.4859,-0.5378,-0.5479,0.0,0.0,0.0,0.0,0.0,0.0,0.0,0.0,0.0,0.0,0.0,-0.4811,-0.4576,-0.4656,-0.5412,-0.5628,-0.5127,-0.5821,-0.6294,-0.6246,-0.6473,-0.6741,-0.6768,-0.6877,-0.695,-0.6953,-0.7051,-0.7122,-0.7124,-0.7228,-0.7309,-0.7345,-0.7418,-0.7491,-0.7529,-0.7606,-0.7655,-0.7512,-0.7453,-0.7644,-0.7758,-0.766,-0.7423,-0.7437,-0.6857,-0.5086,-0.2359,-0.0834,-0.0,-0.0,0.1336,0.1958,0.1957,0.1959,0.1958,0.1958,0.1959,0.1956,0.1958,0.1958,0.1952,0.1928,0.1922,0.193,-0.2866,0.0,-0.306,-0.3279,0.0,-0.3499,-0.3499,-0.3386,-0.333,-0.3412,-0.3519,-0.3413,-0.3413,-0.3413,-0.3413,-0.3413,-0.3413,-0.3413,-0.3395,-0.3262,-0.3367,-0.3334,-0.3173,-0.3277,-0.326,-0.323,-0.323,-0.323,-0.323,-0.323,-0.323,-0.323,-0.323,-0.323,-0.323,-0.323,-0.323,-0.323,-0.323,-0.3215,-0.3185,-0.3351,-0.3465,-0.3427,0.0,0.0,0.0,0.0,0.0,0.0,0.0,0.0,0.0,0.0,0.0,-0.4859,-0.5146,-0.5283,-0.5028,-0.505,-0.5185,-0.562,-0.5602,-0.5494,-0.538,-0.5874,-0.6077,-0.5888,-0.6348,-0.6619,-0.6627,-0.6782,-0.6893,-0.6899,-0.6999,-0.7067,-0.7076,-0.7119,-0.7182,-0.7236,-0.7296,-0.7375,-0.7502,-0.7565,-0.7633,-0.7684,-0.7744,-0.7782,-0.7659,-0.7733,-0.7817,-0.7826,-0.7829,-0.7603,-0.7624,-0.7627,-0.58,-0.0,-0.0,-0.0,-0.0,0.0614,0.0988,0.0988,0.0988,0.1112,0.1853,0.1977,0.1977,0.1977,0.1977,0.1973,0.1956,0.1954,0.1958,-0.3029,-0.3138,-0.3138,-0.3362,-0.3587,-0.3587,-0.3587,-0.358,0.0,0.0,0.0,-0.3552,-0.3443,-0.3443,-0.3443,-0.3443,-0.3443,-0.3443,-0.3437,-0.3428,-0.3428,-0.3395,-0.3234,-0.3338,-0.3312,-0.3264,-0.3262,-0.3256,-0.3247,-0.3247,-0.324,-0.3232,-0.323,-0.323,-0.323,-0.323,-0.3232,-0.333,-0.3331,-0.333,-0.333,-0.3773,-0.4098,-0.4019,-0.4597,-0.5013,-0.5254,-0.5518,-0.6129,-0.727,-0.6175,-0.5419,-0.5157,-0.582,-0.6011,-0.561,-0.6424,-0.6606,-0.5833,-0.6007,-0.6086,-0.6002,-0.6184,-0.6257,-0.6154,-0.626,-0.641,-0.6605,-0.666,-0.6728,-0.6825,-0.6942,-0.7016,-0.7016,-0.71,-0.7154,-0.7157,-0.7176,-0.7228,-0.732,-0.7377,-0.7472,-0.7663,-0.7714,-0.7763,-0.7842,-0.7858,-0.7872,-0.7872,-0.7858,-0.7856,-0.7872,-0.7368,-0.715,-0.7678,-0.6553,-0.4822,-0.0,-0.0,-0.0,-0.0,-0.0,-0.0,-0.0,-0.0,-0.0,0.1359,0.1853,0.1977,0.1977,0.1977,0.1977,0.1977,0.1977,0.1976,-0.3475,-0.3587,-0.3475,-0.3587,-0.3587,-0.3587,-0.3587,-0.3586,-0.3568,-0.3563,-0.3563,-0.3563,-0.3561,-0.3563,-0.3563,-0.3563,-0.3563,-0.3563,-0.3536,0.0,-0.3485,-0.3563,-0.3507,-0.3401,-0.3395,-0.3387,-0.3387,-0.336,-0.3313,-0.3308,-0.3282,-0.3237,-0.323,-0.323,-0.323,-0.323,-0.3432,-0.3831,-0.3932,-0.3932,-0.3932,-0.4422,-0.4674,-0.4681,-0.5638,-0.5609,-0.4557,-0.7188,-0.7893,-0.6487,-0.7891,-0.8102,-0.6796,-0.6799,-0.6554,-0.5943,-0.5976,-0.6078,-0.6176,-0.6225,-0.6279,-0.6355,-0.6393,-0.6404,-0.6393,-0.6499,-0.6584,-0.6627,-0.6804,-0.694,-0.6967,-0.7059,-0.7124,-0.713,-0.7143,-0.7157,-0.7165,-0.7252,-0.732,-0.7353,-0.7524,-0.7646,-0.7703,-0.7785,-0.7842,-0.7867,-0.7872,-0.7872,-0.7872,-0.7872,-0.7877,-0.7643,-0.5912,-0.5673,-0.6434,-0.3832,-0.0,-0.0247,-0.0,-0.0,-0.0,-0.0,-0.0,-0.0,-0.0,-0.0,-0.0,0.1235,0.173,0.1853,0.1977,0.1977,0.1977,0.1977,0.1977,-0.3685,-0.3685,-0.3685,-0.4144,-0.4711,-0.3977,-0.4281,-0.538,-0.4132,-0.3576,-0.3587,-0.3587,-0.3587,-0.3587,-0.3587,-0.3587,-0.3587,-0.3587,-0.3572,-0.3546,-0.3546,-0.3623,-0.357,-0.3566,-0.3443,-0.3414,-0.3413,-0.3398,-0.3372,-0.3371,-0.3339,-0.3281,-0.3247,-0.333,-0.3632,-0.3937,-0.4137,-0.4435,-0.4133,-0.4133,-0.4435,-0.5434,-0.5907,-0.5854,-0.7006,-0.7475,-0.7211,-0.8258,-0.8582,-0.7926,-0.8563,-0.8575,-0.7852,-0.7833,-0.7506,-0.685,-0.6822,-0.6725,-0.6352,-0.6361,-0.641,-0.6524,-0.6537,-0.6564,-0.6632,-0.6624,-0.6676,-0.6801,-0.6926,-0.701,-0.707,-0.7124,-0.7154,-0.7154,-0.7209,-0.7252,-0.7266,-0.7358,-0.7462,-0.7529,-0.763,-0.7722,-0.7788,-0.7839,-0.7872,-0.7872,-0.7872,-0.7872,-0.7872,-0.7877,-0.7891,-0.7782,-0.6794,-0.5309,-0.0,-0.1729,-0.0,-0.0,-0.0,-0.0,-0.0,-0.0,-0.0,-0.0,-0.0,-0.0,-0.0,-0.0,0.0988,0.1482,0.1853,0.1977,0.1977,0.1977,0.1977,-0.4236,-0.4237,-0.4236,-0.4821,-0.5508,-0.4151,-0.4901,-0.6904,-0.5723,-0.5156,-0.5178,-0.4713,-0.4365,-0.4367,-0.4367,-0.4365,-0.4365,-0.4367,-0.4143,-0.3696,-0.392,-0.3895,-0.363,-0.3516,-0.3495,-0.3455,-0.3452,-0.3446,-0.3433,-0.3432,-0.3402,-0.3341,-0.3279,-0.3452,-0.4056,-0.4752,-0.5144,-0.4935,-0.4734,-0.4834,-0.5233,-0.6431,-0.7027,-0.7322,-0.8304,-0.9127,-0.9522,-0.9279,-0.9206,-0.9411,-0.9017,-0.8721,-0.854,-0.8656,-0.8337,-0.7862,-0.7664,-0.7232,-0.6537,-0.6464,-0.6518,-0.6611,-0.6646,-0.6711,-0.6817,-0.676,-0.6777,-0.6953,-0.7008,-0.7065,-0.7133,-0.7152,-0.7165,-0.7192,-0.7277,-0.7342,-0.7383,-0.7483,-0.7592,-0.7684,-0.7725,-0.7777,-0.7847,-0.7872,-0.7872,-0.7872,-0.7872,-0.7872,-0.7875,-0.7888,-0.7779,-0.7286,-0.7426,-0.5816,-0.0,-0.0,-0.0,-0.0,-0.0,-0.0,-0.0,-0.0,-0.0,-0.0,-0.0,-0.0,-0.0,-0.0,-0.0,0.0988,0.1359,0.173,0.1977,0.1984,0.1983,-0.5522,-0.5518,-0.5526,-0.5518,-0.5633,-0.4317,-0.512,-0.7206,-0.9074,-1.007,-0.9617,-0.7765,-0.6697,-0.6805,-0.6697,-0.6697,-0.6697,-0.6805,-0.5582,-0.391,-0.4697,-0.4698,-0.3798,-0.3578,-0.3576,-0.3568,-0.3565,-0.3536,-0.3491,-0.3486,-0.3458,-0.3403,-0.3235,-0.3514,-0.4233,-0.5498,-0.6052,-0.5536,-0.6232,-0.6531,-0.6628,-0.7232,-0.7928,-0.8623,-0.9402,-0.9788,-0.9674,-1.0458,-1.0542,-0.9661,-0.9759,-0.9563,-0.8871,-0.8788,-0.8803,-0.8696,-0.8018,-0.7232,-0.6545,-0.6543,-0.6608,-0.6624,-0.6728,-0.6836,-0.6956,-0.6956,-0.6953,-0.7002,-0.7081,-0.7135,-0.7152,-0.7157,-0.7203,-0.7293,-0.7339,-0.7377,-0.7494,-0.7611,-0.769,-0.7698,-0.7788,-0.7861,-0.7867,-0.7872,-0.7872,-0.7872,-0.7872,-0.7872,-0.7875,-0.7894,-0.7035,-0.5546,-0.6177,-0.5317,-0.0,-0.0,-0.0,-0.0,-0.0,-0.0,-0.0,-0.0,-0.0,-0.0,-0.0,-0.0,-0.0,-0.0,-0.0,0.0741,0.1112,0.1359,0.1856,0.1995,0.2002,-0.5794,-0.5796,-0.5796,-0.6242,-0.7015,-0.794,-0.8005,-0.7704,-1.023,-1.1094,-1.0654,-0.9648,-0.8437,-0.7141,-0.7141,-0.7141,-0.7141,-0.7141,-0.6581,-0.5691,-0.5479,-0.5479,-0.5588,-0.4143,-0.3923,-0.459,-0.3923,-0.3575,-0.3658,-0.3842,-0.4134,-0.4426,-0.3713,-0.3892,-0.5254,-0.6933,-0.748,-0.6943,-0.7569,-0.8226,-0.8623,-0.8924,-0.9225,-0.9517,-1.031,-1.0699,-1.06,-1.0993,-1.0998,-1.06,-1.0703,-1.0605,-1.0207,-0.9719,-0.9521,-0.9422,-0.8326,-0.7469,-0.7247,-0.6899,-0.6681,-0.6823,-0.688,-0.6961,-0.707,-0.7086,-0.7086,-0.7092,-0.713,-0.7154,-0.7163,-0.722,-0.7282,-0.7345,-0.7462,-0.7573,-0.7622,-0.7731,-0.7801,-0.7807,-0.7842,-0.7872,-0.7872,-0.7872,-0.7872,-0.7872,-0.7872,-0.7872,-0.7875,-0.7894,-0.6787,-0.4556,-0.3699,-0.2469,-0.0,-0.0,-0.0,-0.0,-0.0,-0.0,-0.0,-0.0,-0.0,-0.0,-0.0,-0.0,-0.0,-0.0,0.0124,0.0494,0.1236,0.1733,0.1999,0.2011,0.2016,-0.7004,-0.7004,-0.7004,-0.7443,-0.8447,-1.0,-1.0048,-0.9108,-1.0969,-1.1467,-1.0996,-1.094,-0.9938,-0.836,-0.8174,-0.8137,-0.8026,-0.8137,-0.8029,-0.7928,-0.6927,-0.6589,-0.6919,-0.5475,-0.5033,-0.559,-0.5035,-0.47,-0.4693,-0.5192,-0.5595,-0.5796,-0.4629,-0.491,-0.6719,-0.8273,-0.8685,-0.8241,-0.8807,-0.9422,-0.992,-1.0216,-1.0314,-1.0413,-1.0904,-1.1194,-1.1194,-1.1194,-1.1194,-1.1194,-1.1194,-1.1194,-1.1194,-1.0609,-1.0237,-1.0086,-0.9199,-0.8466,-0.7994,-0.7425,-0.7112,-0.7069,-0.701,-0.7065,-0.7135,-0.7154,-0.7154,-0.7154,-0.7184,-0.7209,-0.7214,-0.7285,-0.7355,-0.7432,-0.7608,-0.7706,-0.7747,-0.7826,-0.7867,-0.7872,-0.7867,-0.7872,-0.7872,-0.7872,-0.7872,-0.7872,-0.7872,-0.7875,-0.788,-0.7896,-0.7163,-0.5177,-0.2343,-0.0,-0.0,-0.0,-0.0,-0.0,-0.0,-0.0,-0.0,-0.0,-0.0,-0.0,-0.0,-0.0,-0.0,-0.0,-0.0,-0.0,-0.0,-0.0,0.1636,0.1648,0.1795,-0.968,-0.9562,-0.9562,-0.9552,-0.9667,-0.8787,-0.9523,-1.1331,-1.1684,-1.1728,-1.1674,-1.1409,-1.1208,-1.0807,-1.052,-1.0476,-1.0476,-1.037,-1.0272,-1.0181,-0.9154,-0.8143,-0.7141,-0.703,-0.6916,-0.7027,-0.6805,-0.6914,-0.7357,-0.7564,-0.7898,-0.7773,-0.6214,-0.6488,-0.8321,-0.9042,-0.9176,-0.9184,-0.9638,-1.0027,-1.0122,-1.0806,-1.1096,-1.1096,-1.1194,-1.1194,-1.1194,-1.1194,-1.1194,-1.1194,-1.1292,-1.1292,-1.1198,-1.1198,-1.0794,-1.0444,-1.0914,-1.0288,-0.8459,-0.8375,-0.8154,-0.7217,-0.7081,-0.7146,-0.7152,-0.7154,-0.716,-0.716,-0.7258,-0.7312,-0.7342,-0.7369,-0.7451,-0.7633,-0.7687,-0.7758,-0.7847,-0.7856,-0.7869,-0.7872,-0.7872,-0.7872,-0.7872,-0.7872,-0.7872,-0.7872,-0.7872,-0.7877,-0.7894,-0.7905,-0.7431,-0.6571,-0.0,-0.0,-0.0,-0.0,-0.0,-0.0,-0.0,-0.0,-0.0,-0.0,-0.0,-0.0,-0.0,-0.0,-0.0,-0.0,-0.0,-0.0,-0.0,-0.0,-0.0,0.1038,0.131,-0.9805,-0.9805,-0.9805,-1.0297,-1.1035,-1.0532,-1.0906,-1.1768,-1.1831,-1.1856,-1.1748,-1.1548,-1.1334,-1.1212,-1.109,-1.0972,-1.0875,-1.0871,-1.0818,-1.0614,-0.9478,-0.903,-0.9247,-0.8134,-0.7913,-0.8468,-0.8023,-0.7907,-0.8352,-0.8572,-0.8793,-0.901,-0.851,-0.8702,-0.945,-1.0686,-1.088,-1.0293,-1.0658,-1.1002,-1.0888,-1.1171,-1.1194,-1.1194,-1.1194,-1.1194,-1.1194,-1.1487,-1.1688,-1.1683,-1.2078,-1.2273,-1.2186,-1.1514,-1.0811,-1.0285,-0.969,-0.8996,-0.8278,-0.7813,-0.756,-0.7199,-0.7127,-0.7154,-0.7154,-0.7157,-0.7184,-0.7258,-0.7304,-0.7388,-0.7535,-0.757,-0.7603,-0.7687,-0.7766,-0.782,-0.7858,-0.7872,-0.7872,-0.7872,-0.7872,-0.7872,-0.7872,-0.7872,-0.7872,-0.7872,-0.7872,-0.7883,-0.7536,-0.6584,-0.6002,-0.6661,-0.0,-0.0,-0.0,-0.0,-0.0,-0.0,-0.0,-0.0,-0.0,-0.0,-0.0,-0.0,-0.0,-0.0,-0.0,-0.0,-0.0,-0.0,-0.0,-0.0,-0.0,-0.0,-0.0,-1.0418,-1.0418,-1.0422,-1.0914,-1.1776,-1.1776,-1.1776,-1.1776,-1.1776,-1.1827,-1.1725,-1.1589,-1.1516,-1.1415,-1.1511,-1.1417,-1.1257,-1.1196,-1.098,-1.0639,-1.0073,-1.027,-1.0671,-0.9654,-0.94,-0.9919,-0.9567,-0.9563,-0.9896,-1.0006,-1.0233,-1.0566,-1.0676,-1.0676,-1.0874,-1.1836,-1.1954,-1.1429,-1.1475,-1.1614,-1.1595,-1.1472,-1.1392,-1.1397,-1.1397,-1.1326,-1.1208,-1.1585,-1.1688,-1.1785,-1.2078,-1.2309,-1.2294,-1.1625,-1.1056,-1.0668,-0.9646,-0.8828,-0.8632,-0.7904,-0.7402,-0.7254,-0.7154,-0.7154,-0.7154,-0.719,-0.7255,-0.7326,-0.7423,-0.7538,-0.7657,-0.7731,-0.7755,-0.7763,-0.7826,-0.7869,-0.7872,-0.7872,-0.7872,-0.7872,-0.7872,-0.7872,-0.7872,-0.7872,-0.7872,-0.7872,-0.7872,-0.7888,-0.7583,-0.5753,-0.3915,-0.4831,-0.2306,-0.0,-0.0,-0.0,-0.0,-0.0,-0.0,-0.0,-0.0,-0.0,-0.0,-0.0,-0.0,-0.0,-0.0,-0.0,-0.0,-0.0,-0.0,-0.0,-0.0,-0.0,-0.0,-1.1776,-1.1651,-1.1776,-1.1776,-1.1776,-1.1776,-1.1776,-1.1776,-1.1776,-1.1764,-1.174,-1.176,-1.1736,-1.186,-1.2055,-1.2111,-1.1942,-1.1554,-1.1216,-1.093,-1.129,-1.1562,-1.1539,-1.1526,-1.1428,-1.1489,-1.1787,-1.1891,-1.1782,-1.1887,-1.211,-1.2219,-1.211,-1.211,-1.2332,-1.2276,-1.2278,-1.2009,-1.1831,-1.1827,-1.1817,-1.1779,-1.1756,-1.1775,-1.177,-1.16,-1.1246,-1.1334,-1.1447,-1.1339,-1.1433,-1.1406,-1.1793,-1.1659,-1.1709,-1.1595,-1.1043,-1.0389,-0.9647,-0.8686,-0.7799,-0.7376,-0.7154,-0.7163,-0.7192,-0.726,-0.7336,-0.7404,-0.7546,-0.7695,-0.7717,-0.7799,-0.7856,-0.7867,-0.7869,-0.7869,-0.7872,-0.7872,-0.7872,-0.7872,-0.7872,-0.7872,-0.7872,-0.7872,-0.7875,-0.7891,-0.7896,-0.7945,-0.7684,-0.5695,-0.305,-0.0,-0.0,-0.0,-0.0,-0.0,-0.0,-0.0,-0.0,-0.0,-0.0,-0.0,-0.0,-0.0,-0.0,-0.0,-0.0,-0.0,-0.0,-0.0,-0.0,-0.0,-0.0,-0.0,-0.0,-1.1776,-1.1776,-1.1776,-1.1776,-1.1776,-1.1776,-1.1776,-1.1776,-1.1776,-1.1776,-1.1776,-1.1776,-1.1893,-1.2001,-1.2118,-1.2324,-1.2388,-1.2319,-1.2047,-1.1718,-1.1918,-1.2135,-1.2315,-1.2406,-1.2415,-1.2446,-1.2288,-1.2332,-1.2337,-1.2332,-1.2436,-1.2436,-1.2436,-1.2436,-1.2436,-1.238,-1.2351,-1.2318,-1.2143,-1.2039,-1.2025,-1.1893,-1.1822,-1.1817,-1.1817,-1.1952,-1.2243,-1.2136,-1.2131,-1.2122,-1.2537,-1.278,-1.2858,-1.2781,-1.2183,-1.1035,-1.0197,-0.918,-0.8244,-0.7817,-0.7487,-0.7265,-0.7154,-0.7198,-0.7266,-0.7315,-0.7418,-0.7546,-0.7663,-0.7728,-0.7807,-0.7845,-0.7869,-0.7872,-0.7872,-0.7872,-0.7872,-0.7872,-0.7872,-0.7872,-0.7872,-0.7872,-0.7872,-0.7872,-0.7902,-0.7975,-0.7989,-0.8043,-0.7656,-0.5799,-0.2984,-0.0,-0.0,-0.0,-0.0,-0.0,-0.0,-0.0,-0.0,-0.0,-0.0,-0.0,-0.0,-0.0,-0.0,-0.0,-0.0,-0.0,-0.0,-0.0,-0.0,-0.0,-0.0,-0.0,-0.0,-1.1776,-1.1776,-1.1776,-1.1776,-1.1776,-1.1776,-1.1776,-1.1776,-1.1776,-1.1901,-1.2139,-1.2014,-1.2126,-1.2359,-1.2479,-1.2719,-1.284,-1.2964,-1.2949,-1.2741,-1.2593,-1.2687,-1.2855,-1.2873,-1.278,-1.2885,-1.2739,-1.2635,-1.2564,-1.2559,-1.2521,-1.245,-1.2436,-1.2436,-1.2436,-1.2436,-1.2436,-1.2417,-1.2313,-1.2252,-1.2224,-1.212,-1.2049,-1.2049,-1.226,-1.258,-1.29,-1.3105,-1.3122,-1.2987,-1.3259,-1.3507,-1.3604,-1.3519,-1.2981,-1.1903,-1.0586,-0.9457,-0.8585,-0.7817,-0.7154,-0.716,-0.7195,-0.7249,-0.7336,-0.7394,-0.7554,-0.7668,-0.7744,-0.7793,-0.7856,-0.7872,-0.7872,-0.7872,-0.7872,-0.7872,-0.7872,-0.7872,-0.7872,-0.7872,-0.7872,-0.7872,-0.7872,-0.7875,-0.7924,-0.8021,-0.8057,-0.813,-0.7876,-0.6803,-0.3945,-0.0,-0.0,-0.0,-0.0,-0.0,-0.0,-0.0,-0.0,-0.0,-0.0,-0.0,-0.0,-0.0,-0.0,-0.0,-0.0,-0.0,-0.0,-0.0,-0.0,-0.0,-0.0,-0.0,-0.0,-1.1776,-1.1776,-1.1776,-1.1776,-1.1776,-1.1776,-1.1776,-1.1776,-1.1893,-1.2139,-1.2496,-1.2367,-1.2479,-1.2724,-1.2964,-1.3084,-1.3324,-1.3444,-1.3555,-1.3522,-1.3388,-1.32,-1.3292,-1.31,-1.3112,-1.3088,-1.3046,-1.2928,-1.2739,-1.2729,-1.2658,-1.246,-1.2436,-1.2436,-1.2436,-1.2436,-1.2436,-1.2436,-1.2427,-1.2417,-1.2417,-1.2413,-1.2408,-1.2512,-1.2935,-1.3254,-1.3567,-1.3981,-1.4028,-1.367,-1.3659,-1.3866,-1.3908,-1.3952,-1.406,-1.3793,-1.1973,-1.0781,-1.0123,-0.8478,-0.7376,-0.7385,-0.7368,-0.7342,-0.7377,-0.7655,-0.7793,-0.7728,-0.7804,-0.7861,-0.7869,-0.7872,-0.7872,-0.7872,-0.7872,-0.7872,-0.7872,-0.7872,-0.7872,-0.7872,-0.7872,-0.7872,-0.7872,-0.7872,-0.7937,-0.8043,-0.8089,-0.8195,-0.8237,-0.7278,-0.5313,-0.0,-0.0,-0.0,-0.0,-0.0,-0.0,-0.0,-0.0,-0.0,-0.0,-0.0,-0.0,-0.0,-0.0,-0.0,-0.0,-0.0,-0.0,-0.0,-0.0,-0.0,-0.0,-0.0,-0.0,-1.1776,-1.1776,-1.1776,-1.1776,-1.1776,-1.1776,-1.1776,-1.1772,-1.2001,-1.2371,-1.2612,-1.2608,-1.2719,-1.308,-1.3204,-1.3329,-1.3569,-1.3688,-1.3688,-1.3688,-1.3564,-1.355,-1.358,-1.3405,-1.3301,-1.3287,-1.3169,-1.2961,-1.2781,-1.2791,-1.2663,-1.2446,-1.2446,-1.2436,-1.2436,-1.2436,-1.2436,-1.2436,-1.2441,-1.2441,-1.2441,-1.2436,-1.2659,-1.3098,-1.3212,-1.3748,-1.4504,-1.5137,-1.499,-1.4114,-1.4412,-1.4652,-1.4702,-1.5028,-1.4944,-1.3906,-1.2521,-1.1109,-1.0017,-0.8699,-0.7823,-0.7832,-0.7847,-0.7946,-0.7815,-0.7962,-0.7971,-0.7922,-0.7861,-0.7872,-0.7872,-0.7872,-0.7872,-0.7872,-0.7872,-0.7872,-0.7872,-0.7872,-0.7872,-0.7872,-0.7872,-0.7872,-0.7872,-0.7891,-0.7962,-0.8122,-0.8201,-0.8261,-0.8454,-0.8278,-0.6691,-0.4149,-0.0,-0.0,-0.0,-0.0,-0.0,-0.0,-0.0,-0.0,-0.0,-0.0,-0.0,-0.0,-0.0,-0.0,-0.0,-0.0,-0.0,-0.0,-0.0,-0.0,-0.0,-0.0,-0.0,-1.1776,-1.1776,-1.1776,-1.1776,-1.1776,-1.1776,-1.1772,-1.1881,-1.2118,-1.2603,-1.2978,-1.2969,-1.3084,-1.3449,-1.3449,-1.3569,-1.3688,-1.3688,-1.3688,-1.3688,-1.3688,-1.3684,-1.3655,-1.3556,-1.3514,-1.3504,-1.3386,-1.323,-1.3051,-1.2942,-1.2776,-1.2597,-1.2484,-1.2441,-1.2436,-1.2436,-1.2436,-1.2436,-1.2659,-1.2772,-1.2886,-1.3088,-1.3305,-1.3743,-1.3851,-1.4498,-1.5357,-1.5678,-1.5565,-1.5131,-1.5244,-1.5357,-1.5464,-1.5678,-1.5452,-1.4572,-1.3383,-1.2082,-1.0777,-0.9467,-0.8624,-0.8252,-0.8259,-0.8271,-0.8287,-0.8417,-0.8418,-0.8343,-0.836,-0.8241,-0.8119,-0.7994,-0.7872,-0.7872,-0.7872,-0.7872,-0.7872,-0.7872,-0.7872,-0.7872,-0.7872,-0.7872,-0.7875,-0.7913,-0.8038,-0.8185,-0.8282,-0.8397,-0.8541,-0.8451,-0.8074,-0.5778,-0.2685,-0.0,-0.0,-0.0,-0.0,-0.0,-0.0,-0.0,-0.0,-0.0,-0.0,-0.0,-0.0,-0.0,-0.0,-0.0,-0.0,-0.0,-0.0,-0.0,-0.0,-0.0,-0.0,-1.1776,-1.1776,-1.1776,-1.1776,-1.1776,-1.1776,-1.176,-1.1864,-1.2109,-1.2848,-1.3467,-1.3333,-1.3449,-1.3688,-1.3688,-1.3688,-1.3688,-1.3688,-1.3688,-1.3688,-1.3688,-1.3688,-1.3684,-1.367,-1.3655,-1.3655,-1.3684,-1.3537,-1.3334,-1.3164,-1.2975,-1.2762,-1.2559,-1.2356,-1.2337,-1.2436,-1.2436,-1.2545,-1.2985,-1.3428,-1.365,-1.3856,-1.4062,-1.4277,-1.4815,-1.525,-1.5678,-1.5885,-1.5885,-1.5885,-1.5885,-1.5885,-1.5891,-1.5885,-1.5885,-1.5452,-1.4143,-1.2842,-1.1991,-1.048,-0.9335,-0.8684,-0.8487,-0.8506,-0.8747,-0.8871,-0.8836,-0.8729,-0.8857,-0.8732,-0.8488,-0.8241,-0.8116,-0.7994,-0.7994,-0.7994,-0.7872,-0.7872,-0.7872,-0.7872,-0.7872,-0.7872,-0.7899,-0.7975,-0.8095,-0.8206,-0.8312,-0.8437,-0.8538,-0.8587,-0.8614,-0.7947,-0.457,-0.0,-0.0,-0.0,-0.0,-0.0,-0.0,-0.0,-0.0,-0.0,-0.0,-0.0,-0.0,-0.0,-0.0,-0.0,-0.0,-0.0,-0.0,-0.0,-0.0,-0.0,-0.0,-1.1776,-1.1776,-1.1776,-1.1776,-1.1776,-1.1776,-1.176,-1.186,-1.235,-1.2969,-1.3583,-1.3573,-1.3569,-1.3688,-1.3688,-1.3688,-1.3688,-1.3688,-1.3688,-1.3688,-1.3688,-1.3688,-1.3688,-1.3688,-1.3688,-1.3688,-1.3688,-1.3584,-1.3414,-1.332,-1.3131,-1.2814,-1.2618,-1.2381,-1.2484,-1.2583,-1.2427,-1.2521,-1.3088,-1.3753,-1.431,-1.4288,-1.4493,-1.4821,-1.5351,-1.5672,-1.5891,-1.5885,-1.5885,-1.5885,-1.5885,-1.5885,-1.5885,-1.5885,-1.5885,-1.5452,-1.3932,-1.263,-1.201,-1.0691,-0.9342,-0.9191,-0.9165,-0.9216,-0.8997,-0.9134,-0.9089,-0.8976,-0.8857,-0.8976,-0.8854,-0.8732,-0.8485,-0.8366,-0.8244,-0.8122,-0.7994,-0.7872,-0.7872,-0.7872,-0.7872,-0.7872,-0.7877,-0.7992,-0.8108,-0.8223,-0.8345,-0.8462,-0.853,-0.859,-0.8609,-0.8622,-0.578,-0.0,-0.0,-0.0,-0.0,-0.0,-0.0,-0.0,-0.0,-0.0,-0.0,-0.0,-0.0,-0.0,-0.0,-0.0,-0.0,-0.0,-0.0,-0.0,-0.0,-0.0,-0.0,-1.1776,-1.1776,-1.1776,-1.1776,-1.1776,-1.1889,-1.1872,-1.1976,-1.259,-1.3209,-1.3578,-1.3693,-1.3688,-1.3688,-1.3688,-1.3688,-1.3688,-1.3688,-1.3688,-1.3688,-1.3688,-1.3688,-1.3688,-1.3688,-1.3688,-1.3688,-1.3688,-1.3618,-1.3537,-1.3424,-1.3277,-1.3055,-1.2697,-1.2824,-1.3155,-1.3172,-1.3222,-1.3178,-1.3769,-1.4515,-1.5081,-1.5047,-1.503,-1.5357,-1.5672,-1.5885,-1.5885,-1.5885,-1.5885,-1.5885,-1.5885,-1.5891,-1.5891,-1.5891,-1.5891,-1.5559,-1.4374,-1.3355,-1.2903,-1.1445,-1.0114,-1.0152,-0.9877,-0.9618,-0.9447,-0.9542,-0.9447,-0.9339,-0.9339,-0.9335,-0.9095,-0.8976,-0.8854,-0.8613,-0.8491,-0.8369,-0.8122,-0.7994,-0.7872,-0.7872,-0.7872,-0.7872,-0.7913,-0.8019,-0.8125,-0.8239,-0.8426,-0.8538,-0.8543,-0.8592,-0.8603,-0.8069,-0.591,-0.0,-0.0,-0.0,-0.0,-0.0,-0.0,-0.0,-0.0,-0.0,-0.0,-0.0,-0.0,-0.0,-0.0,-0.0,-0.0,-0.0,-0.0,-0.0,-0.0,-0.0,-0.0,-1.1776,-1.1776,-1.1776,-1.1776,-1.1897,-1.2122,-1.2105,-1.2088,-1.2826,-1.3329,-1.3688,-1.3688,-1.3688,-1.3688,-1.3688,-1.3688,-1.3688,-1.3688,-1.3688,-1.3688,-1.3688,-1.3688,-1.3688,-1.3688,-1.3808,-1.3808,-1.3688,-1.3674,-1.3865,-1.376,-1.3766,-1.3567,-1.3021,-1.3107,-1.3886,-1.4585,-1.4414,-1.3863,-1.4424,-1.52,-1.5731,-1.5803,-1.5785,-1.5779,-1.5885,-1.5885,-1.5885,-1.5885,-1.5885,-1.5885,-1.5885,-1.591,-1.594,-1.5897,-1.5934,-1.5833,-1.457,-1.3806,-1.3426,-1.1942,-1.0613,-1.1122,-1.0346,-0.9693,-0.9788,-0.969,-0.9697,-0.97,-0.97,-0.9579,-0.946,-0.9217,-0.9098,-0.8976,-0.8732,-0.8491,-0.8491,-0.8241,-0.8116,-0.7872,-0.7872,-0.7872,-0.7948,-0.8051,-0.8152,-0.8269,-0.8456,-0.8587,-0.8587,-0.859,-0.86,-0.8611,-0.6855,-0.3627,-0.0,-0.0,-0.0,-0.0,-0.0,-0.0,-0.0,-0.0,-0.0,-0.0,-0.0,-0.0,-0.0,-0.0,-0.0,-0.0,-0.0,-0.0,-0.0,-0.0,-0.0,-1.1776,-1.1776,-1.1776,-1.1776,-1.1893,-1.2122,-1.2354,-1.2595,-1.296,-1.3449,-1.3688,-1.3688,-1.3688,-1.3688,-1.3688,-1.3688,-1.3688,-1.3688,-1.3688,-1.3688,-1.3688,-1.3688,-1.3688,-1.3808,-1.3923,-1.4157,-1.4162,-1.4043,-1.4391,-1.4465,-1.4473,-1.467,-1.3968,-1.3869,-1.4603,-1.5682,-1.5793,-1.4679,-1.5009,-1.5561,-1.5875,-1.591,-1.5885,-1.5885,-1.5885,-1.5885,-1.5885,-1.5885,-1.5885,-1.5885,-1.5885,-1.6012,-1.6109,-1.6018,-1.5947,-1.574,-1.4235,-1.3218,-1.3301,-1.1301,-1.0116,-0.9863,-0.9827,-0.9771,-0.9812,-0.9819,-0.9819,-0.9819,-0.9819,-0.9822,-0.97,-0.9579,-0.946,-0.9339,-0.9095,-0.8976,-0.8857,-0.8732,-0.8485,-0.8116,-0.7994,-0.7877,-0.7951,-0.8043,-0.8155,-0.8266,-0.8424,-0.8546,-0.8587,-0.859,-0.8595,-0.8609,-0.8352,-0.4705,-0.0,-0.0,-0.0,-0.0,-0.0,-0.0,-0.0,-0.0,-0.0,-0.0,-0.0,-0.0,-0.0,-0.0,-0.0,-0.0,-0.0,-0.0,-0.0,-0.0,-0.0,-1.1776,-1.1776,-1.1776,-1.1893,-1.2005,-1.2359,-1.2595,-1.2711,-1.32,-1.3569,-1.3688,-1.3688,-1.3688,-1.3688,-1.3688,-1.3688,-1.3688,-1.3688,-1.3688,-1.3688,-1.3688,-1.3688,-1.3808,-1.4047,-1.4277,-1.4629,-1.4639,-1.4764,-1.5116,-1.511,-1.5284,-1.5328,-1.4886,-1.4813,-1.5434,-1.6556,-1.6786,-1.5974,-1.5876,-1.5908,-1.6085,-1.5982,-1.5903,-1.5897,-1.5897,-1.5885,-1.5885,-1.5885,-1.5885,-1.5916,-1.6018,-1.6145,-1.6132,-1.5881,-1.5696,-1.5812,-1.4137,-1.3211,-1.3389,-1.1569,-0.9986,-1.0554,-1.0151,-0.9815,-0.9819,-0.9819,-0.9819,-0.9819,-0.9819,-0.9819,-0.9822,-0.9819,-0.97,-0.9579,-0.9457,-0.9217,-0.9098,-0.8973,-0.8729,-0.8485,-0.8366,-0.8127,-0.7899,-0.8005,-0.8141,-0.8272,-0.8402,-0.8494,-0.8576,-0.859,-0.8592,-0.82,-0.7804,-0.4435,-0.0,-0.0,-0.0,-0.0,-0.0,-0.0,-0.0,-0.0,-0.0,-0.0,-0.0,-0.0,-0.0,-0.0,-0.0,-0.0,-0.0,-0.0,-0.0,-0.0,-0.0,-1.1776,-1.1776,-1.1776,-1.1889,-1.2234,-1.2599,-1.2711,-1.2822,-1.3444,-1.3688,-1.3688,-1.3688,-1.3688,-1.3688,-1.3688,-1.3688,-1.3688,-1.3688,-1.3688,-1.3688,-1.3688,-1.3813,-1.4172,-1.4396,-1.4748,-1.5224,-1.5472,-1.5839,-1.5715,-1.5833,-1.5833,-1.6031,-1.6009,-1.6138,-1.6569,-1.7152,-1.7432,-1.7332,-1.6837,-1.6453,-1.632,-1.6169,-1.6054,-1.6048,-1.6048,-1.6079,-1.6115,-1.6121,-1.6115,-1.6157,-1.626,-1.6282,-1.6022,-1.5519,-1.5535,-1.5574,-1.3929,-1.3683,-1.3241,-1.1659,-1.007,-1.0752,-1.0297,-0.9943,-0.9819,-0.9819,-0.9819,-0.9819,-0.9819,-0.9819,-0.9819,-0.9819,-0.9819,-0.97,-0.9579,-0.9339,-0.9339,-0.9217,-0.9095,-0.8851,-0.8735,-0.8497,-0.8261,-0.7983,-0.8119,-0.8242,-0.8372,-0.8486,-0.856,-0.8584,-0.8456,-0.7789,-0.6447,-0.3627,-0.0,-0.0,-0.0,-0.0,-0.0,-0.0,-0.0,-0.0,-0.0,-0.0,-0.0,-0.0,-0.0,-0.0,-0.0,-0.0,-0.0,-0.0,-0.0,-0.0,-0.0,-1.1776,-1.1776,-1.1776,-1.201,-1.2238,-1.2599,-1.2715,-1.2822,-1.3439,-1.3688,-1.3688,-1.3688,-1.3688,-1.3688,-1.3688,-1.3688,-1.3688,-1.3688,-1.3688,-1.3688,-1.3808,-1.4301,-1.5038,-1.4764,-1.5348,-1.5941,-1.6301,-1.6419,-1.6419,-1.6419,-1.6661,-1.7009,-1.7003,-1.7238,-1.7114,-1.7418,-1.7444,-1.7389,-1.714,-1.6857,-1.6658,-1.6579,-1.6555,-1.6561,-1.6555,-1.6531,-1.6501,-1.6495,-1.6519,-1.6549,-1.661,-1.6191,-1.5674,-1.6436,-1.5538,-1.4177,-1.2627,-1.1635,-1.2017,-1.0729,-0.9774,-1.0176,-0.994,-0.9819,-0.9819,-0.9819,-0.9819,-0.9819,-0.9819,-0.9819,-0.9819,-0.9819,-0.9819,-0.9822,-0.97,-0.97,-0.97,-0.9579,-0.9457,-0.9339,-0.9098,-0.8732,-0.8494,-0.8237,-0.8098,-0.822,-0.8337,-0.8448,-0.8541,-0.8562,-0.8598,-0.8069,-0.6178,-0.3356,-0.0,-0.0,-0.0,-0.0,-0.0,-0.0,-0.0,-0.0,-0.0,-0.0,-0.0,-0.0,-0.0,-0.0,-0.0,-0.0,-0.0,-0.0,-0.0,-0.0,-0.0,-1.1776,-1.1776,-1.1776,-1.2005,-1.2238,-1.2599,-1.2964,-1.3324,-1.3569,-1.3688,-1.3688,-1.3688,-1.3688,-1.3688,-1.3688,-1.3688,-1.3688,-1.3688,-1.3688,-1.3803,-1.4043,-1.4655,-1.5396,-1.5607,-1.6177,-1.6419,-1.6891,-1.7015,-1.7009,-1.7126,-1.7244,-1.7367,-1.7485,-1.7479,-1.7485,-1.7485,-1.7541,-1.7426,-1.728,-1.696,-1.6773,-1.6706,-1.6706,-1.6706,-1.6712,-1.6724,-1.6724,-1.67,-1.67,-1.673,-1.6821,-1.6383,-1.5467,-1.5104,-1.4291,-1.2786,-1.1199,-1.0951,-1.1495,-1.0422,-0.994,-0.9819,-0.9819,-0.9819,-0.9819,-0.9819,-0.9819,-0.9819,-0.9819,-0.9819,-0.9819,-0.9819,-0.9819,-0.9819,-0.9819,-0.9819,-0.9819,-0.9819,-0.97,-0.9579,-0.946,-0.9095,-0.8854,-0.8787,-0.8519,-0.8259,-0.8381,-0.8497,-0.8601,-0.8543,-0.8581,-0.8488,-0.6183,-0.3356,-0.0,-0.0,-0.0,-0.0,-0.0,-0.0,-0.0,-0.0,-0.0,-0.0,-0.0,-0.0,-0.0,-0.0,-0.0,-0.0,-0.0,-0.0,-0.0,-0.0,-0.0,-1.1893,-1.2014,-1.1893,-1.201,-1.2238,-1.2599,-1.3089,-1.3707,-1.3698,-1.3688,-1.3688,-1.3688,-1.3688,-1.3688,-1.3688,-1.3688,-1.3688,-1.3688,-1.3679,-1.3913,-1.4391,-1.5137,-1.5866,-1.6448,-1.6537,-1.6773,-1.7244,-1.7361,-1.7485,-1.7479,-1.7479,-1.7485,-1.7485,-1.7485,-1.7485,-1.7485,-1.7461,-1.7443,-1.7298,-1.7123,-1.6972,-1.693,-1.693,-1.6917,-1.6893,-1.6893,-1.6899,-1.6917,-1.6923,-1.6972,-1.6621,-1.6025,-1.4896,-1.4158,-1.3035,-1.1744,-1.0642,-1.0649,-1.0785,-1.0304,-0.994,-0.9819,-0.9819,-0.9819,-0.9819,-0.9819,-0.9819,-0.9819,-0.9819,-0.9819,-0.9819,-0.9819,-0.9819,-0.9819,-0.9819,-0.9819,-0.9819,-0.9819,-0.9819,-0.97,-0.9579,-0.946,-0.9217,-0.9217,-0.8928,-0.8548,-0.8543,-0.8676,-0.8677,-0.867,-0.8576,-0.8486,-0.6317,-0.0,-0.0,-0.0,-0.0,-0.0,-0.0,-0.0,-0.0,-0.0,-0.0,-0.0,-0.0,-0.0,-0.0,-0.0,-0.0,-0.0,-0.0,-0.0,-0.0,-0.6482,-0.7704,-1.2359,-1.2603,-1.201,-1.201,-1.2238,-1.2599,-1.3093,-1.3587,-1.3693,-1.3688,-1.3688,-1.3688,-1.3688,-1.3688,-1.3688,-1.3688,-1.3688,-1.3688,-1.3784,-1.3889,-1.4371,-1.5726,-1.6583,-1.6808,-1.6891,-1.7244,-1.7479,-1.7479,-1.7485,-1.7485,-1.7485,-1.7485,-1.7485,-1.7485,-1.7485,-1.7485,-1.7485,-1.7479,-1.7412,-1.7412,-1.7352,-1.7352,-1.7358,-1.7376,-1.74,-1.7424,-1.7418,-1.7358,-1.7083,-1.7083,-1.6294,-1.5135,-1.3955,-1.3517,-1.2346,-1.0785,-1.0789,-1.0668,-1.0304,-1.0061,-0.9819,-0.9819,-0.9819,-0.9819,-0.9819,-0.9819,-0.9819,-0.9819,-0.9819,-0.9819,-0.9819,-0.9819,-0.9819,-0.9819,-0.9819,-0.9819,-0.9819,-0.9819,-0.9819,-0.9819,-0.97,-0.9579,-0.9612,-0.9496,-0.93,-0.8801,-0.8458,-0.8593,-0.8727,-0.8839,-0.872,-0.8202,-0.6313,-0.0,-0.0,-0.0,-0.0,-0.0,-0.0,-0.0,-0.0,-0.0,-0.0,-0.0,-0.0,-0.0,-0.0,-0.0,-0.0,-0.0,-0.2559,-0.4584,-0.5389,-0.674,-0.7823,-1.2599,-1.2715,-1.2483,-1.2363,-1.2479,-1.284,-1.308,-1.32,-1.3564,-1.3688,-1.3688,-1.3688,-1.3688,-1.3688,-1.3688,-1.3688,-1.3808,-1.4162,-1.4013,-1.4356,-1.5084,-1.6329,-1.7174,-1.728,-1.725,-1.7485,-1.7485,-1.7485,-1.7485,-1.7485,-1.7485,-1.7485,-1.7485,-1.7485,-1.7485,-1.7485,-1.7485,-1.7485,-1.7485,-1.7485,-1.7485,-1.7485,-1.7485,-1.7485,-1.7485,-1.7485,-1.7473,-1.7479,-1.6873,-1.6149,-1.5677,-1.4376,-1.2946,-1.259,-1.1627,-1.0061,-1.0422,-1.0304,-1.0061,-0.9819,-0.9819,-0.9819,-0.9819,-0.9819,-0.9819,-0.9819,-0.9819,-0.9819,-0.9819,-0.9819,-0.9819,-0.9819,-0.9819,-0.9819,-0.9819,-0.9819,-0.9819,-0.9819,-0.9819,-0.9819,-0.9819,-0.97,-0.9744,-0.9791,-0.9481,-0.919,-0.8733,-0.8508,-0.8769,-0.8989,-0.9001,-0.8737,-0.6982,-0.4832,-0.0,-0.0,-0.0,-0.0,-0.0,-0.0,-0.0,-0.0,-0.0,-0.0,-0.0,-0.0,-0.0,-0.0,-0.0,-0.0,-0.0,-0.7437,-0.7833,-0.7407,-0.7809,-1.296,-1.296,-1.2964,-1.284,-1.2719,-1.308,-1.3071,-1.2822,-1.3439,-1.3688,-1.3688,-1.3688,-1.3688,-1.3688,-1.3688,-1.3928,-1.4043,-1.4386,-1.4366,-1.4955,-1.58,-1.6796,-1.728,-1.7509,-1.7485,-1.7485,-1.7485,-1.7485,-1.7485,-1.7485,-1.7485,-1.7485,-1.7485,-1.7485,-1.7485,-1.7485,-1.7485,-1.7485,-1.7485,-1.7485,-1.7485,-1.7485,-1.7485,-1.7485,-1.7485,-1.7485,-1.7485,-1.7361,-1.6626,-1.5666,-1.4718,-1.3784,-1.247,-1.1269,-1.0668,-1.0183,-0.9819,-0.9819,-0.9819,-0.9819,-0.9819,-0.9819,-0.9819,-0.9819,-0.9819,-0.9819,-0.9819,-0.9819,-0.9819,-0.9819,-0.9819,-0.9819,-0.9819,-0.9819,-0.9819,-0.9819,-0.9819,-0.9819,-0.9819,-0.9819,-0.9825,-0.9846,-0.9998,-0.9948,-0.9936,-0.9478,-0.9175,-0.8941,-0.9326,-0.9395,-0.9534,-0.9134,-0.8328,-0.604,-0.0,-0.0,-0.0,-0.0,-0.0,-0.0,-0.0,-0.0,-0.0,-0.0,-0.0,-0.0,-0.0,-0.0,-0.0,-0.0,-0.0,-0.7152,-0.8504,-0.8076,-0.8202,-1.3329,-1.3688,-1.3688,-1.3324,-1.284,-1.3084,-1.3075,-1.2946,-1.3439,-1.3688,-1.3688,-1.3688,-1.3688,-1.3688,-1.3808,-1.4043,-1.4515,-1.4748,-1.4966,-1.5542,-1.6155,-1.6891,-1.725,-1.7485,-1.7485,-1.7485,-1.7485,-1.7485,-1.7485,-1.7485,-1.7485,-1.7485,-1.7485,-1.7485,-1.7485,-1.7485,-1.7485,-1.7485,-1.7485,-1.7485,-1.7485,-1.7485,-1.7485,-1.7485,-1.7485,-1.7485,-1.7485,-1.7485,-1.6503,-1.4811,-1.4247,-1.3186,-1.1631,-1.0543,-1.0061,-0.9819,-0.9819,-0.9819,-0.9819,-0.9819,-0.9819,-0.9819,-0.9819,-0.9819,-0.9819,-0.9819,-0.9819,-0.9819,-0.9819,-0.9819,-0.9819,-0.9819,-0.9819,-0.9819,-0.9819,-0.9819,-0.9819,-0.9873,-0.9886,-0.9914,-0.9883,-0.9897,-1.0093,-1.0259,-1.027,-0.9945,-0.9559,-0.9511,-0.9763,-0.993,-0.9933,-0.9664,-0.9128,-0.7922,-0.5906,-0.4966,-0.0,-0.0,-0.0,-0.0,-0.0,-0.0,-0.0,-0.0,-0.0,-0.0,-0.0,-0.0,-0.0,-0.0,-0.0,-0.551,-0.7261,-0.8611,-0.86,-1.3569,-1.3688,-1.3688,-1.3569,-1.3444,-1.3449,-1.3439,-1.3439,-1.3564,-1.3688,-1.3688,-1.3688,-1.3688,-1.3808,-1.4162,-1.4396,-1.4748,-1.5698,-1.6037,-1.5768,-1.6632,-1.712,-1.7479,-1.7485,-1.7485,-1.7485,-1.7485,-1.7485,-1.7485,-1.7485,-1.7485,-1.7485,-1.7485,-1.7485,-1.7485,-1.7485,-1.7485,-1.7485,-1.7485,-1.7485,-1.7485,-1.7485,-1.7485,-1.7485,-1.7485,-1.7485,-1.7479,-1.7479,-1.6026,-1.3975,-1.3407,-1.2586,-1.1027,-0.9819,-0.9819,-0.9819,-0.9819,-0.9819,-0.9819,-0.9819,-0.9819,-0.9819,-0.9819,-0.9819,-0.9819,-0.9819,-0.9819,-0.9819,-0.9819,-0.9819,-0.9819,-0.9819,-0.9819,-0.9819,-0.9819,-0.9819,-0.9839,-0.9937,-0.9998,-1.0039,-1.0036,-1.0148,-1.0314,-1.0392,-1.0387,-1.0464,-1.0067,-0.9952,-1.005,-1.0326,-1.0326,-1.006,-0.9661,-0.9131,-0.8192,-0.6978,-0.6445,-0.0,-0.0,-0.0,-0.0,-0.0,-0.0,-0.0,-0.6205,-0.5667,-0.3367,-0.0,-0.0,-0.0,-0.0,-0.497,-0.7675,-0.8614,-0.8592,-1.3688,-1.3688,-1.3688,-1.3688,-1.3688,-1.3688,-1.3688,-1.3688,-1.3688,-1.3688,-1.3688,-1.3688,-1.3803,-1.4038,-1.4391,-1.4986,-1.5224,-1.6059,-1.6649,-1.6256,-1.6991,-1.7361,-1.7485,-1.7485,-1.7485,-1.7485,-1.7485,-1.7485,-1.7485,-1.7485,-1.7485,-1.7485,-1.7485,-1.7485,-1.7485,-1.7485,-1.7485,-1.7485,-1.7485,-1.7485,-1.7485,-1.7485,-1.7485,-1.7485,-1.7485,-1.7485,-1.7361,-1.6756,-1.5671,-1.3751,-1.2569,-1.2109,-1.0422,-0.9819,-0.9819,-0.9819,-0.9819,-0.9819,-0.9819,-0.9819,-0.9819,-0.9819,-0.9819,-0.9819,-0.9819,-0.9819,-0.9819,-0.9819,-0.9819,-0.9819,-0.9819,-0.9819,-0.9819,-0.9819,-0.9873,-0.9876,-0.993,-1.0029,-1.0131,-1.0171,-1.0215,-1.0358,-1.048,-1.0548,-1.0616,-1.0666,-1.0711,-1.0588,-1.0326,-1.0588,-1.0588,-1.0323,-0.9927,-0.9528,-0.9128,-0.8592,-0.8328,-0.8609,-0.7665,-0.6583,-0.0,-0.0,-0.0,-0.6193,-0.5518,-0.498,-0.4042,-0.0,-0.0,-0.0,-0.0,-0.4167,-0.7821,-0.8483,-0.8325,-1.3688,-1.3688,-1.3688,-1.3688,-1.3688,-1.3688,-1.3688,-1.3688,-1.3688,-1.3688,-1.3808,-1.3933,-1.4167,-1.4629,-1.4748,-1.5343,-1.6177,-1.6537,-1.6885,-1.7238,-1.7361,-1.7485,-1.7485,-1.7485,-1.7485,-1.7485,-1.7485,-1.7485,-1.7485,-1.7485,-1.7485,-1.7485,-1.7485,-1.7485,-1.7485,-1.7485,-1.7485,-1.7485,-1.7485,-1.7485,-1.7485,-1.7485,-1.7485,-1.7485,-1.7485,-1.7485,-1.7244,-1.6402,-1.5095,-1.366,-1.247,-1.1265,-1.0304,-0.9819,-0.9819,-0.9819,-0.9819,-0.9819,-0.9819,-0.9819,-0.9819,-0.9819,-0.9819,-0.9819,-0.9819,-0.9819,-0.9819,-0.9819,-0.9819,-0.9819,-0.9819,-0.9819,-0.9819,-0.988,-0.9958,-0.9998,-1.0049,-1.0141,-1.0249,-1.0304,-1.0331,-1.0426,-1.0534,-1.0616,-1.0663,-1.069,-1.0721,-1.0721,-1.0588,-1.0588,-1.0588,-1.0455,-1.019,-0.9791,-0.9525,-0.9125,-0.8859,-0.86,-0.8606,-0.7796,-0.7665,-0.7397,-0.7266,-0.6589,-0.5101,-0.4431,-0.4844,-0.0,-0.0,-0.0,-0.0,-0.2822,-0.6193,-0.7541,-0.7796,-1.3688,-1.3688,-1.3688,-1.3688,-1.3688,-1.3688,-1.3688,-1.3688,-1.3688,-1.4177,-1.5043,-1.5033,-1.5137,-1.5353,-1.5822,-1.6177,-1.6537,-1.7009,-1.725,-1.7485,-1.7485,-1.7485,-1.7485,-1.7485,-1.7485,-1.7485,-1.7485,-1.7485,-1.7485,-1.7485,-1.7485,-1.7485,-1.7485,-1.7485,-1.7485,-1.7485,-1.7485,-1.7485,-1.7485,-1.7485,-1.7485,-1.7485,-1.7485,-1.7485,-1.7485,-1.7485,-1.7244,-1.6166,-1.4857,-1.3784,-1.235,-1.1148,-0.994,-0.9819,-0.9819,-0.9819,-0.9819,-0.9819,-0.9819,-0.9819,-0.9819,-0.9819,-0.9819,-0.9819,-0.9819,-0.9819,-0.9819,-0.9819,-0.9819,-0.9819,-0.9819,-0.9819,-0.9819,-0.9866,-0.9968,-1.0076,-1.0148,-1.0287,-1.0392,-1.0446,-1.047,-1.0527,-1.0629,-1.0653,-1.0697,-1.0711,-1.0721,-1.0721,-1.0721,-1.0721,-1.0721,-1.0455,-1.0323,-1.0057,-0.9658,-0.9259,-0.8989,-0.872,-0.8595,-0.86,-0.8331,-0.8061,-0.7932,-0.7259,-0.6044,-0.6182,-0.6866,-0.0,-0.0,-0.0,-0.0538,-0.2419,-0.4301,-0.6321,-0.767,-1.3688,-1.3688,-1.3688,-1.3688,-1.3688,-1.3688,-1.3684,-1.3913,-1.4685,-1.5433,-1.5655,-1.5769,-1.5866,-1.5952,-1.6301,-1.6655,-1.7015,-1.725,-1.7485,-1.7485,-1.7485,-1.7485,-1.7485,-1.7485,-1.7485,-1.7485,-1.7485,-1.7485,-1.7485,-1.7485,-1.7485,-1.7485,-1.7485,-1.7485,-1.7485,-1.7485,-1.7485,-1.7485,-1.7485,-1.7485,-1.7485,-1.7485,-1.7485,-1.7485,-1.7485,-1.7479,-1.7126,-1.593,-1.45,-1.3421,-1.2109,-1.0664,-0.9819,-0.9819,-0.9819,-0.9819,-0.9819,-0.9819,-0.9819,-0.9819,-0.9819,-0.9819,-0.9819,-0.9819,-0.9819,-0.9819,-0.9819,-0.9819,-0.9819,-0.9819,-0.9819,-0.9819,-0.9819,-0.9825,-0.9978,-1.0134,-1.028,-1.0436,-1.0517,-1.0582,-1.0629,-1.0677,-1.0714,-1.0721,-1.0721,-1.0721,-1.0721,-1.0721,-1.0721,-1.0721,-1.0721,-1.0588,-1.0455,-1.0323,-0.9924,-0.9525,-0.912,-0.8851,-0.859,-0.8592,-0.859,-0.8592,-0.8331,-0.7932,-0.7263,-0.7402,-0.7538,-0.6329,-0.0,-0.2555,-0.1479,-0.2957,-0.4978,-0.7011,-0.8089,-1.3688,-1.3688,-1.3688,-1.3688,-1.3688,-1.3684,-1.366,-1.3999,-1.6164,-1.6816,-1.6023,-1.6126,-1.6459,-1.6661,-1.6767,-1.7009,-1.7244,-1.7485,-1.7485,-1.7485,-1.7485,-1.7485,-1.7485,-1.7485,-1.7485,-1.7485,-1.7485,-1.7485,-1.7485,-1.7485,-1.7485,-1.7485,-1.7485,-1.7485,-1.7485,-1.7485,-1.7485,-1.7485,-1.7485,-1.7485,-1.7485,-1.7485,-1.7485,-1.7479,-1.7361,-1.712,-1.6644,-1.5332,-1.3545,-1.2706,-1.1503,-0.9937,-0.9819,-0.9819,-0.9819,-0.9819,-0.9819,-0.9819,-0.9819,-0.9819,-0.9819,-0.9819,-0.9819,-0.9819,-0.9819,-0.9819,-0.9819,-0.9819,-0.9819,-0.9819,-0.9819,-0.9819,-0.9819,-0.9893,-1.0032,-1.0158,-1.028,-1.0456,-1.0619,-1.0666,-1.0677,-1.0721,-1.0721,-1.0721,-1.0721,-1.0721,-1.0721,-1.0721,-1.0721,-1.0721,-1.0721,-1.0721,-1.0588,-1.0455,-1.019,-0.9658,-0.9253,-0.8984,-0.872,-0.8587,-0.859,-0.8592,-0.8595,-0.8197,-0.7796,-0.7665,-0.7397,-0.6457,-0.5921,-0.5111,-0.4301,-0.4303,-0.5655,-0.7018,-0.7011,-1.3688,-1.3688,-1.3688,-1.3688,-1.3684,-1.3651,-1.3751,-1.3984,-1.6352,-1.7357,-1.7091,-1.7085,-1.7174,-1.7132,-1.7126,-1.7361,-1.7361,-1.7485,-1.7485,-1.7485,-1.7485,-1.7485,-1.7485,-1.7485,-1.7485,-1.7485,-1.7485,-1.7485,-1.7485,-1.7485,-1.7485,-1.7485,-1.7485,-1.7485,-1.7485,-1.7485,-1.7485,-1.7485,-1.7485,-1.7485,-1.7485,-1.7485,-1.7485,-1.7244,-1.6885,-1.6284,-1.5451,-1.378,-1.259,-1.1752,-1.0664,-0.994,-0.9819,-0.9819,-0.9819,-0.9819,-0.9819,-0.9819,-0.9819,-0.9819,-0.9819,-0.9819,-0.9819,-0.9819,-0.9819,-0.9819,-0.9819,-0.9819,-0.9819,-0.9819,-0.9819,-0.9819,-0.9836,-0.9954,-1.009,-1.0188,-1.029,-1.0493,-1.07,-1.0721,-1.0721,-1.0721,-1.0721,-1.0721,-1.0721,-1.0721,-1.0721,-1.0721,-1.0721,-1.0721,-1.0721,-1.0721,-1.0721,-1.0588,-1.0323,-0.9924,-0.9389,-0.8987,-0.872,-0.8587,-0.8587,-0.859,-0.8592,-0.8592,-0.8459,-0.8061,-0.7794,-0.766,-0.7123,-0.6721,-0.6053,-0.5517,-0.4713,-0.5529,-0.4981,-1.3608,-1.3688,-1.4043,-1.4043,-1.4152,-1.4242,-1.4341,-1.494,-1.669,-1.7433,-1.7533,-1.7527,-1.7515,-1.7485,-1.7485,-1.7485,-1.7485,-1.7485,-1.7485,-1.7485,-1.7485,-1.7485,-1.7485,-1.7485,-1.7485,-1.7485,-1.7485,-1.7485,-1.7485,-1.7485,-1.7485,-1.7485,-1.7485,-1.7485,-1.7485,-1.7485,-1.7485,-1.7485,-1.7485,-1.7485,-1.7485,-1.7485,-1.7485,-1.7126,-1.6408,-1.5693,-1.4738,-1.3186,-1.2109,-1.139,-1.0425,-0.994,-0.9819,-0.9819,-0.9819,-0.9819,-0.9819,-0.9819,-0.9819,-0.9819,-0.9819,-0.9819,-0.9819,-0.9819,-0.9819,-0.9819,-0.9819,-0.9819,-0.9819,-0.9819,-0.9819,-0.9819,-0.9819,-0.9893,-1.0117,-1.0293,-1.0436,-1.0616,-1.0714,-1.0721,-1.0721,-1.0721,-1.0721,-1.0721,-1.0721,-1.0721,-1.0721,-1.0721,-1.0721,-1.0721,-1.0721,-1.0721,-1.0721,-1.0721,-1.0455,-1.0057,-0.9661,-0.9256,-0.8853,-0.872,-0.8587,-0.8587,-0.8587,-0.859,-0.8456,-0.8189,-0.7925,-0.8061,-0.8202,-0.7804,-0.7136,-0.6468,-0.5389,-0.4178,-0.4039,-1.3632,-1.3913,-1.4396,-1.4629,-1.4748,-1.509,-1.5306,-1.5773,-1.692,-1.7527,-1.7491,-1.7485,-1.7485,-1.7485,-1.7485,-1.7485,-1.7485,-1.7485,-1.7485,-1.7485,-1.7485,-1.7485,-1.7485,-1.7485,-1.7485,-1.7485,-1.7485,-1.7485,-1.7485,-1.7485,-1.7485,-1.7485,-1.7485,-1.7485,-1.7485,-1.7485,-1.7485,-1.7485,-1.7485,-1.7485,-1.7485,-1.7361,-1.7126,-1.6767,-1.593,-1.5219,-1.4262,-1.3181,-1.1631,-1.1027,-1.0425,-1.0061,-0.9819,-0.9819,-0.9819,-0.9819,-0.9819,-0.9819,-0.9819,-0.9819,-0.9819,-0.9819,-0.9819,-0.9819,-0.9819,-0.9819,-0.9819,-0.9819,-0.9819,-0.9819,-0.9819,-0.9819,-0.9819,-0.991,-1.0164,-1.0402,-1.0568,-1.0707,-1.0714,-1.0721,-1.0721,-1.0721,-1.0721,-1.0721,-1.0721,-1.0721,-1.0721,-1.0721,-1.0721,-1.0721,-1.0721,-1.0721,-1.0721,-1.0721,-1.0588,-1.0326,-0.9794,-0.9392,-0.9123,-0.8853,-0.8587,-0.8587,-0.8587,-0.859,-0.8456,-0.8189,-0.8328,-0.8467,-0.8609,-0.8619,-0.8089,-0.6879,-0.4039,-0.3098,-0.3368,-1.3853,-1.4391,-1.451,-1.4873,-1.5472,-1.5806,-1.5784,-1.5886,-1.6997,-1.7491,-1.7485,-1.7485,-1.7485,-1.7485,-1.7485,-1.7485,-1.7485,-1.7485,-1.7485,-1.7485,-1.7485,-1.7485,-1.7485,-1.7602,-1.7485,-1.7485,-1.7602,-1.7479,-1.7719,-1.7602,-1.7485,-1.7602,-1.7485,-1.7485,-1.7485,-1.7485,-1.7485,-1.7485,-1.7485,-1.7485,-1.7126,-1.6767,-1.6048,-1.5095,-1.3665,-1.2831,-1.1989,-1.0906,-1.0301,-1.0061,-1.0065,-0.9822,-0.9819,-0.9819,-0.9819,-0.9819,-0.9819,-0.9819,-0.9819,-0.9819,-0.9819,-0.9819,-0.9819,-0.9819,-0.9819,-0.9819,-0.9819,-0.9819,-0.9819,-0.9819,-0.9819,-0.9819,-0.9836,-1.0039,-1.027,-1.0473,-1.0656,-1.0704,-1.0717,-1.0721,-1.0721,-1.0721,-1.0721,-1.0721,-1.0721,-1.0721,-1.0721,-1.0721,-1.0721,-1.0721,-1.0721,-1.0721,-1.0721,-1.0721,-1.0721,-1.0459,-0.9927,-0.9658,-0.9389,-0.8987,-0.872,-0.8587,-0.859,-0.859,-0.859,-0.8456,-0.8598,-0.8606,-0.8619,-0.863,-0.8507,-0.7291,-0.0,-0.0,-0.0]},{"header":{"parameterUnit":"m.s-1","parameterCategory":1,"la1":31.0,"la2":29.5877,"lo1":-88.7671,"lo2":-86.6584,"dy":0.0162,"dx":0.0185,"nx":115,"ny":88,"refTime":"2024-06-01T06:00:00:Z","depth":0,"parameterNumber":3,"parameterNumberName":"V-component_of_WINDS"},"data":[0.0,0.0,0.0,0.0,0.0,0.0,0.0,0.0,0.0,0.0,0.0,0.0,0.0,0.0,0.0,0.0,0.0,0.0,0.0,0.0,0.0,0.0,0.0,0.0,0.0,0.0,0.0,0.0,0.0,0.0,0.0,0.0,0.0,0.0,0.0,0.0,0.0,0.0,0.0,0.0,0.0,0.0,0.0,0.0,0.0,0.0,0.0,0.0,0.0,0.0,0.0,0.0,0.0,0.0,0.0,0.0,0.0,0.0,0.0,0.0,0.0,0.0,0.0,0.0,0.0,0.0,0.0,0.0,0.0,0.0,0.0,0.0,0.0,0.0,0.0,0.0,0.0,0.0,0.0,0.0,0.0,0.0,0.0,0.0,0.0,0.0,0.0,0.0,0.0,0.0,0.0,0.0,0.0,0.0,0.0,0.0,0.0,0.0,0.0,0.0,0.0,0.0,0.0,0.0,0.0,0.0,0.0,0.0,0.0,0.0,0.0,0.0,0.0,0.0,0.0,0.0,0.0,0.0,0.0,0.0,0.0,0.0,0.0,0.0,0.0,0.0,0.0,0.0,0.0,0.0,0.0,0.0,0.0,0.0,0.0,0.0,0.0,0.0,0.0,0.0,0.0,0.0,0.0,0.0,0.0,0.0,0.0,0.0,0.0,0.0,0.0,0.0,0.0,0.0,0.0,0.0,0.0,0.0,0.0,0.0,0.0,0.0,0.0,0.0,0.0,0.0,0.0,0.0,0.0,0.0,0.0,0.0,0.0,0.0,0.0,0.0,0.0,0.0,0.0,0.0,0.0,0.0,0.0,0.0,0.0,0.0,0.0,0.0,0.0,0.0,0.0,0.0,0.0,0.0,0.0,0.0,0.0,0.0,0.0,0.0,0.0,0.0,0.0,0.0,0.0,0.0,0.0,0.0,0.0,0.0,0.0,0.0,0.0,0.0,0.0,0.0,0.0,0.0,0.0,0.0,0.0,0.0,0.0,0.0,0.0,0.0,0.0,0.0,0.0,0.0,0.0,0.0,0.0,0.0,0.0,0.0,0.0,0.0,0.0,0.0,0.0,0.0,0.0,0.0,0.0,0.0,0.0,0.0,0.0,0.0,0.0,0.0,0.0,0.0,0.0,0.0,0.0,0.0,0.0,0.0,0.0,0.0,0.0,0.0,0.0,0.0,0.0,0.0,0.0,0.0,0.0,0.0,0.0,0.0,0.0,0.0,0.0,0.0,0.0,0.0,0.0,0.0,0.0,0.0,0.0,0.0,0.0,0.0,0.0,0.0,0.0,0.0,0.0,0.0,0.0,0.0,0.0,0.0,0.0,0.0,0.0,0.0,0.0,0.0,0.0,0.0,0.0,0.0,0.0,0.0,0.0,0.0,0.0,0.0,0.0,0.0,0.0,0.0,0.0,0.0,0.0,0.0,0.0,0.0,0.0,0.0,0.0,0.0,0.0,0.0,0.0,0.0,0.0,0.0,0.0,0.0,0.0,0.0,0.0,0.0,0.0,0.0,0.0,0.0,0.0,0.0,0.0,0.0,0.0,0.0,0.0,0.0,0.0,0.0,0.0,0.0,0.0,0.0,0.0,0.0,0.0,0.0,0.0,0.0,0.0,0.0,0.0,0.0,0.0,0.0,0.0,0.0,0.0,0.0,0.0,0.0,0.0,0.0,0.0,0.0,0.0,0.0,0.0,0.0,0.0,0.0,0.0,0.0,0.0,0.0,0.0,0.0,0.0,0.0,0.0,0.0,0.0,0.0,0.0,0.0,0.0,0.0,0.0,0.0,0.0,0.0,0.0,0.0,0.0,0.0,0.0,0.0,0.0,0.0,0.0,0.0,0.0,0.0,0.0,0.0,0.0,0.0,0.0,0.0,0.0,0.0,0.0,0.0,0.0,0.0,0.0,0.0,0.0,0.0,0.0,0.0,0.0,0.0,0.0,0.0,0.0,0.0,0.0,0.0,0.0,0.0,0.0,0.0,0.0,0.0,0.0,0.0,0.0,0.0,0.0,0.0,0.0,0.0,0.0,0.0,0.0,0.0,0.0,0.0,0.0,0.0,0.0,0.0,0.0,0.0,0.0,0.0,0.0,0.0,0.0,0.0,0.0,0.0,0.0,0.0,0.0,0.0,0.0,0.0,0.0,0.0,0.0,0.0,0.0,0.0,0.0,0.0,0.0,0.0,0.0,0.0,0.0,0.0,0.0,0.0,0.0,0.0,0.0,0.0,0.0,0.0,0.0,0.0,0.0,0.0,0.0,0.0,0.0,0.0,0.0,0.0,0.0,0.0,0.0,0.0,0.0,0.0,0.0,0.0,0.0,0.0,0.0,0.0,0.0,0.0,0.0,0.0,0.0,0.0,0.0,0.0,0.0,0.0,0.0,0.0,0.0,0.0,0.0,0.0,0.0,0.0,0.0,0.0,0.0,0.0,0.0,0.0,0.0,0.0,0.0,0.0,0.0,0.0,0.0,0.0,0.0,0.0,0.0,0.0,0.0,0.0,0.0,0.0,0.0,0.0,0.0,0.0,0.0,0.0,0.0,0.0,0.0,0.0,0.0,0.0,0.0,0.0,0.0,0.0,0.0,0.0,0.0,0.0,0.0,0.0,0.0,0.0,0.0,0.0,0.0,0.0,0.0,0.0,0.0,0.0,0.0,0.0,0.0,0.0,0.0,0.0,0.0,0.0,0.0,0.0,0.0,0.0,0.0,0.0,0.0,0.0,0.0,0.0,0.0,0.0,0.0,0.0,0.0,0.0,0.0,0.0,0.0,0.0,0.0,0.0,0.0,0.0,0.0,0.0,0.0,0.0,0.0,0.0,0.0,0.0,0.0,0.0,0.0,0.0,0.0,0.0,0.0,0.0,0.0,0.0,0.0,0.0,0.0,0.0,0.0,0.0,0.0,0.0,0.0,0.0,0.0,0.0,0.0,0.0,0.0,0.0,0.0,0.0,0.0,0.0,0.0,0.0,0.0,0.0,0.0,0.0,0.0,0.0,0.0,0.0,0.0,0.0,0.0,0.0,0.0,0.0,0.0,0.0,0.0,0.0,0.0,0.0,0.0,0.0,0.0,0.0,0.0,0.0,0.0,0.0,0.0,0.0,0.0,0.0,0.0,0.0,0.0,0.0,0.0,0.0,0.0,0.0,0.0,0.0,0.0,0.0,0.0,0.0,0.0,0.0,0.0,0.0,0.0,0.0,0.0,0.0,0.0,0.0,0.0,0.0,0.0,0.0,0.0,0.0,0.0,0.0,0.0,0.0,0.0,0.0,0.0,0.0,0.0,0.0,0.0,0.0,0.0,0.0,0.0,0.0,0.0,0.0,0.0,0.0,0.0,0.0,0.0,0.0,0.0,0.0,0.0,0.0,0.0,0.0,0.0,0.0,0.0,0.0,0.0,0.0,0.0,0.0,0.0,0.0,0.0,0.0,0.0,0.0,0.0,0.0,0.0,0.0,0.0,0.0,0.0,0.0,0.0,0.0,0.0,0.0,0.0,0.0,0.0,0.0,0.0,0.0,0.0,0.0,0.0,0.0,0.0,0.0,0.0,0.0,0.0,0.0,0.0,0.0,0.0,0.0,0.0,0.0,0.0,0.0,0.0,0.0,0.0,0.0,0.0,0.0,0.0,0.0,0.0,0.0,0.0,0.0,0.0,0.0,0.0,0.0,0.0,0.0,0.0,0.0,0.0,0.0,0.0,0.0,0.0,0.0,0.0,0.0,0.0,0.0,0.0,0.0,0.0,0.0,0.0,0.0,0.0,0.0,0.0,0.0,0.0,0.0,0.0,0.0,0.0,0.0,0.0,0.0,0.0,0.0,0.0,0.0,0.0,0.0,0.0,0.0,0.0,0.0,0.0,0.0,0.0,0.0,0.0,0.0,0.0,0.0,0.0,0.0,0.0,0.0,0.0,0.0,0.0,0.0,0.0,0.0,0.0,0.0,0.0,0.0,0.0,0.0,0.0,0.0,0.0,0.0,0.0,0.0,0.0,0.0,0.0,0.0,0.0,0.0,0.0,0.0,0.0,0.0,0.0,0.0,0.0,0.0,0.0,0.0,0.0,0.0,0.0,0.0,0.0,0.0,0.0,0.0,0.0,0.0,0.0,0.0,0.0,0.0,0.0,0.0,0.0,0.0,0.0,0.0,0.0,0.0,0.0,0.0,0.0,0.0,0.0,0.0,0.0,0.0,0.0,0.0,0.0,0.0,0.0,0.0,0.0,0.0,0.0,0.0,0.0,0.0,0.0,0.0,0.0,0.0,0.0,0.0,-1.8712,0.0,0.0,0.0,0.0,0.0,0.0,0.0,0.0,0.0,0.0,0.0,0.0,0.0,0.0,0.0,0.0,0.0,0.0,0.0,0.0,0.0,0.0,0.0,0.0,0.0,0.0,0.0,0.0,0.0,0.0,0.0,0.0,0.0,0.0,0.0,0.0,0.0,0.0,0.0,0.0,0.0,0.0,0.0,0.0,0.0,0.0,0.0,0.0,0.0,0.0,0.0,0.0,0.0,0.0,0.0,0.0,0.0,0.0,0.0,0.0,0.0,0.0,0.0,0.0,0.0,0.0,0.0,0.0,0.0,0.0,0.0,0.0,0.0,0.0,0.0,0.0,0.0,0.0,0.0,0.0,0.0,0.0,0.0,0.0,0.0,0.0,0.0,0.0,0.0,0.0,0.0,0.0,0.0,0.0,0.0,0.0,0.0,0.0,0.0,0.0,0.0,0.0,0.0,0.0,0.0,0.0,0.0,0.0,0.0,0.0,-2.0171,-2.0134,-1.9781,-1.9379,-1.892,0.0,0.0,0.0,0.0,0.0,0.0,0.0,0.0,0.0,0.0,0.0,0.0,0.0,0.0,0.0,0.0,0.0,0.0,0.0,0.0,0.0,0.0,0.0,0.0,0.0,0.0,0.0,0.0,0.0,0.0,0.0,0.0,0.0,0.0,0.0,0.0,0.0,0.0,0.0,0.0,0.0,0.0,0.0,0.0,0.0,0.0,0.0,0.0,0.0,0.0,0.0,0.0,0.0,0.0,0.0,0.0,0.0,0.0,0.0,0.0,0.0,0.0,0.0,0.0,0.0,0.0,0.0,0.0,0.0,0.0,0.0,0.0,0.0,0.0,0.0,0.0,0.0,0.0,0.0,0.0,0.0,0.0,0.0,0.0,0.0,0.0,0.0,0.0,0.0,0.0,0.0,0.0,0.0,0.0,0.0,0.0,0.0,0.0,0.0,0.0,0.0,0.0,0.0,0.0,0.0,0.0,0.0,0.0,0.0,0.0,0.0,0.0,-2.0809,-2.0389,-1.9545,0.0,0.0,0.0,0.0,0.0,0.0,0.0,0.0,0.0,0.0,0.0,0.0,0.0,0.0,0.0,0.0,0.0,0.0,0.0,0.0,0.0,0.0,0.0,0.0,0.0,0.0,0.0,0.0,0.0,0.0,0.0,0.0,0.0,0.0,0.0,0.0,0.0,0.0,0.0,0.0,0.0,0.0,0.0,0.0,0.0,0.0,0.0,0.0,0.0,0.0,0.0,0.0,0.0,0.0,0.0,0.0,0.0,0.0,0.0,0.0,0.0,0.0,0.0,0.0,0.0,0.0,0.0,0.0,0.0,0.0,0.0,0.0,0.0,0.0,0.0,0.0,0.0,0.0,0.0,0.0,0.0,0.0,0.0,0.0,0.0,0.0,0.0,0.0,0.0,0.0,0.0,0.0,0.0,0.0,0.0,0.0,0.0,0.0,0.0,0.0,0.0,0.0,0.0,0.0,0.0,0.0,0.0,0.0,0.0,0.0,-2.1105,-2.2598,-2.2566,0.0,-2.1355,0.0,0.0,0.0,0.0,0.0,0.0,0.0,0.0,0.0,0.0,0.0,0.0,0.0,0.0,0.0,0.0,0.0,0.0,0.0,0.0,0.0,0.0,0.0,0.0,0.0,0.0,0.0,0.0,0.0,0.0,0.0,0.0,0.0,0.0,0.0,0.0,0.0,0.0,0.0,0.0,0.0,0.0,0.0,0.0,0.0,0.0,0.0,0.0,0.0,0.0,0.0,0.0,0.0,0.0,0.0,0.0,0.0,0.0,0.0,0.0,0.0,0.0,0.0,0.0,0.0,0.0,0.0,0.0,0.0,0.0,0.0,0.0,0.0,0.0,0.0,0.0,0.0,0.0,0.0,0.0,0.0,0.0,0.0,0.0,0.0,0.0,0.0,0.0,0.0,0.0,0.0,0.0,0.0,0.0,0.0,0.0,0.0,0.0,0.0,0.0,0.0,0.0,0.0,0.0,0.0,0.0,0.0,0.0,0.0,0.0,0.0,-2.2935,-2.2423,-2.1944,0.0,0.0,0.0,0.0,0.0,0.0,0.0,0.0,0.0,0.0,0.0,0.0,0.0,0.0,0.0,0.0,0.0,0.0,0.0,0.0,0.0,0.0,0.0,0.0,0.0,0.0,0.0,0.0,0.0,0.0,0.0,0.0,0.0,0.0,0.0,0.0,0.0,0.0,0.0,0.0,0.0,0.0,0.0,0.0,0.0,0.0,0.0,0.0,0.0,0.0,0.0,0.0,0.0,0.0,0.0,0.0,0.0,0.0,0.0,0.0,0.0,0.0,0.0,0.0,0.0,0.0,0.0,0.0,0.0,0.0,0.0,0.0,0.0,0.0,0.0,0.0,0.0,0.0,0.0,0.0,0.0,0.0,0.0,0.0,0.0,0.0,0.0,0.0,0.0,0.0,0.0,0.0,0.0,0.0,0.0,0.0,0.0,0.0,0.0,0.0,0.0,0.0,0.0,0.0,0.0,0.0,0.0,0.0,0.0,0.0,-2.2649,0.0,-2.3674,-2.311,-2.2317,-2.1236,0.0,0.0,0.0,0.0,0.0,0.0,0.0,0.0,0.0,0.0,0.0,0.0,0.0,0.0,0.0,0.0,0.0,0.0,0.0,0.0,0.0,0.0,0.0,0.0,0.0,0.0,0.0,0.0,0.0,0.0,0.0,0.0,0.0,0.0,0.0,0.0,0.0,0.0,0.0,0.0,0.0,0.0,0.0,0.0,0.0,0.0,0.0,0.0,0.0,0.0,0.0,0.0,0.0,0.0,0.0,0.0,0.0,0.0,0.0,0.0,0.0,0.0,0.0,0.0,0.0,0.0,0.0,0.0,0.0,0.0,0.0,0.0,0.0,0.0,0.0,0.0,0.0,0.0,0.0,0.0,0.0,0.0,0.0,0.0,0.0,0.0,0.0,0.0,0.0,0.0,0.0,0.0,0.0,0.0,0.0,0.0,0.0,0.0,0.0,0.0,0.0,0.0,0.0,0.0,0.0,0.0,0.0,0.0,0.0,-2.3886,-2.3854,-2.541,-2.5492,-2.3923,0.0,0.0,0.0,0.0,0.0,0.0,0.0,0.0,0.0,0.0,0.0,0.0,0.0,0.0,0.0,0.0,0.0,0.0,0.0,0.0,0.0,0.0,0.0,0.0,0.0,0.0,0.0,0.0,0.0,0.0,0.0,0.0,0.0,0.0,0.0,0.0,0.0,0.0,0.0,0.0,0.0,0.0,0.0,0.0,0.0,0.0,0.0,0.0,0.0,0.0,0.0,0.0,0.0,0.0,0.0,0.0,0.0,0.0,0.0,0.0,0.0,0.0,0.0,0.0,0.0,0.0,0.0,0.0,0.0,0.0,0.0,0.0,0.0,0.0,0.0,0.0,0.0,0.0,0.0,0.0,0.0,0.0,0.0,0.0,0.0,0.0,0.0,0.0,0.0,0.0,0.0,0.0,0.0,0.0,0.0,0.0,0.0,0.0,0.0,0.0,0.0,0.0,0.0,0.0,0.0,0.0,0.0,0.0,0.0,-2.2366,-2.2855,-2.4407,0.0,-2.407,-2.2224,0.0,0.0,0.0,0.0,0.0,0.0,0.0,0.0,0.0,0.0,0.0,0.0,0.0,0.0,0.0,0.0,0.0,0.0,0.0,0.0,0.0,0.0,0.0,0.0,0.0,0.0,0.0,0.0,0.0,0.0,0.0,0.0,0.0,0.0,0.0,0.0,0.0,0.0,0.0,0.0,0.0,0.0,0.0,0.0,0.0,0.0,0.0,0.0,0.0,0.0,0.0,0.0,0.0,0.0,0.0,0.0,0.0,0.0,0.0,0.0,0.0,0.0,0.0,0.0,0.0,0.0,0.0,0.0,0.0,0.0,0.0,0.0,0.0,0.0,0.0,0.0,0.0,0.0,0.0,0.0,0.0,0.0,0.0,0.0,0.0,0.0,0.0,0.0,0.0,0.0,0.0,0.0,0.0,0.0,0.0,0.0,0.0,0.0,0.0,0.0,0.0,0.0,0.0,0.0,0.0,0.0,0.0,0.0,0.0,-2.2252,0.0,-2.558,0.0,-2.3977,-2.1889,0.0,0.0,0.0,0.0,0.0,0.0,0.0,0.0,0.0,0.0,0.0,0.0,0.0,0.0,0.0,0.0,0.0,0.0,0.0,0.0,0.0,0.0,0.0,0.0,0.0,0.0,0.0,0.0,0.0,0.0,0.0,0.0,0.0,0.0,0.0,0.0,0.0,0.0,0.0,0.0,0.0,0.0,0.0,0.0,0.0,0.0,0.0,0.0,0.0,0.0,0.0,0.0,0.0,0.0,0.0,0.0,0.0,0.0,0.0,0.0,0.0,0.0,0.0,0.0,0.0,0.0,0.0,0.0,0.0,0.0,0.0,0.0,0.0,0.0,0.0,0.0,0.0,0.0,0.0,0.0,0.0,0.0,0.0,0.0,0.0,0.0,0.0,0.0,0.0,0.0,0.0,0.0,0.0,0.0,0.0,0.0,0.0,0.0,0.0,0.0,0.0,0.0,0.0,0.0,0.0,0.0,0.0,0.0,-2.2291,-2.5492,-2.721,-2.7276,-2.5749,-2.5517,-2.3163,0.0,0.0,0.0,0.0,0.0,0.0,0.0,0.0,0.0,0.0,0.0,0.0,0.0,0.0,0.0,0.0,0.0,0.0,0.0,0.0,0.0,0.0,0.0,0.0,0.0,0.0,0.0,0.0,0.0,0.0,0.0,0.0,0.0,0.0,0.0,0.0,0.0,0.0,0.0,0.0,0.0,0.0,0.0,0.0,0.0,0.0,0.0,0.0,0.0,0.0,0.0,0.0,0.0,0.0,0.0,0.0,0.0,0.0,0.0,0.0,0.0,0.0,0.0,0.0,0.0,0.0,0.0,0.0,0.0,0.0,0.0,0.0,0.0,0.0,0.0,0.0,0.0,0.0,0.0,0.0,0.0,0.0,0.0,0.0,0.0,0.0,0.0,0.0,0.0,0.0,0.0,0.0,0.0,0.0,0.0,0.0,0.0,0.0,0.0,0.0,0.0,0.0,0.0,0.0,0.0,0.0,0.0,0.0,0.0,-2.3855,-2.5579,-2.7027,-2.7982,-2.4803,-2.3042,0.0,0.0,0.0,0.0,0.0,0.0,0.0,0.0,0.0,0.0,0.0,0.0,0.0,0.0,0.0,0.0,0.0,0.0,0.0,0.0,0.0,0.0,0.0,0.0,0.0,0.0,0.0,0.0,0.0,0.0,0.0,0.0,0.0,0.0,0.0,0.0,0.0,0.0,0.0,0.0,0.0,0.0,0.0,0.0,0.0,0.0,0.0,0.0,0.0,0.0,0.0,0.0,0.0,0.0,0.0,0.0,0.0,0.0,0.0,0.0,0.0,0.0,0.0,0.0,0.0,0.0,0.0,0.0,0.0,0.0,0.0,0.0,0.0,0.0,0.0,0.0,0.0,0.0,0.0,0.0,0.0,0.0,0.0,0.0,0.0,0.0,0.0,0.0,0.0,0.0,0.0,0.0,0.0,0.0,0.0,0.0,0.0,0.0,0.0,0.0,0.0,0.0,0.0,0.0,0.0,0.0,0.0,0.0,0.0,-2.5063,-2.7,-2.8476,-2.9335,-2.6018,-2.416,-2.3978,0.0,0.0,0.0,0.0,0.0,0.0,0.0,0.0,0.0,0.0,0.0,0.0,0.0,0.0,0.0,0.0,0.0,0.0,0.0,0.0,0.0,0.0,0.0,0.0,0.0,0.0,0.0,0.0,0.0,0.0,0.0,0.0,0.0,0.0,0.0,0.0,0.0,0.0,0.0,0.0,0.0,0.0,0.0,0.0,0.0,0.0,0.0,0.0,0.0,0.0,0.0,0.0,0.0,0.0,0.0,0.0,0.0,0.0,0.0,0.0,0.0,0.0,0.0,0.0,0.0,0.0,0.0,0.0,0.0,0.0,0.0,0.0,0.0,0.0,0.0,0.0,0.0,0.0,0.0,0.0,0.0,0.0,0.0,0.0,0.0,0.0,0.0,0.0,0.0,0.0,0.0,0.0,0.0,0.0,0.0,0.0,0.0,0.0,0.0,0.0,0.0,0.0,0.0,0.0,0.0,0.0,0.0,0.0,-2.8403,-3.0963,-3.1438,-2.9714,-2.8723,-2.6295,0.0,0.0,0.0,0.0,0.0,0.0,0.0,0.0,0.0,0.0,0.0,0.0,0.0,0.0,0.0,0.0,0.0,0.0,0.0,0.0,0.0,0.0,0.0,0.0,0.0,0.0,0.0,0.0,0.0,0.0,0.0,0.0,0.0,0.0,0.0,0.0,0.0,0.0,0.0,0.0,0.0,0.0,0.0,0.0,0.0,0.0,0.0,0.0,0.0,0.0,0.0,0.0,0.0,0.0,0.0,0.0,0.0,0.0,0.0,0.0,0.0,0.0,0.0,0.0,0.0,0.0,0.0,0.0,0.0,0.0,0.0,0.0,0.0,0.0,0.0,0.0,0.0,0.0,0.0,0.0,0.0,0.0,0.0,0.0,0.0,0.0,0.0,0.0,0.0,0.0,0.0,0.0,0.0,0.0,0.0,0.0,0.0,0.0,0.0,0.0,0.0,0.0,0.0,0.0,0.0,0.0,0.0,0.0,0.0,-3.1064,-3.3649,-3.3835,-3.1417,-2.9364,-2.7437,0.0,0.0,0.0,0.0,0.0,0.0,0.0,0.0,0.0,0.0,0.0,0.0,0.0,0.0,0.0,0.0,0.0,0.0,0.0,0.0,0.0,0.0,0.0,0.0,0.0,0.0,0.0,0.0,0.0,0.0,0.0,0.0,0.0,0.0,0.0,0.0,0.0,0.0,0.0,0.0,0.0,0.0,0.0,0.0,0.0,0.0,0.0,0.0,0.0,0.0,0.0,0.0,0.0,0.0,0.0,0.0,0.0,0.0,0.0,0.0,0.0,0.0,0.0,0.0,0.0,0.0,0.0,0.0,0.0,0.0,0.0,0.0,0.0,0.0,0.0,0.0,0.0,0.0,0.0,0.0,0.0,0.0,0.0,0.0,0.0,0.0,0.0,0.0,0.0,0.0,0.0,0.0,0.0,0.0,0.0,0.0,0.0,0.0,0.0,0.0,0.0,0.0,0.0,0.0,0.0,0.0,0.0,0.0,-3.0079,-3.2597,-3.5193,-3.5458,-3.3197,-3.175,-2.9865,0.0,0.0,0.0,0.0,0.0,0.0,0.0,0.0,0.0,0.0,0.0,0.0,0.0,0.0,0.0,0.0,0.0,0.0,0.0,0.0,0.0,0.0,0.0,0.0,0.0,0.0,0.0,0.0,0.0,0.0,0.0,0.0,0.0,0.0,0.0,0.0,0.0,0.0,0.0,0.0,0.0,0.0,0.0,0.0,0.0,0.0,0.0,0.0,0.0,0.0,0.0,0.0,0.0,0.0,0.0,0.0,0.0,0.0,0.0,0.0,0.0,0.0,0.0,0.0,0.0,0.0,0.0,0.0,0.0,0.0,0.0,0.0,0.0,0.0,0.0,0.0,0.0,0.0,0.0,0.0,0.0,0.0,0.0,0.0,0.0,0.0,0.0,0.0,0.0,0.0,0.0,0.0,0.0,0.0,0.0,0.0,0.0,0.0,0.0,0.0,0.0,0.0,0.0,0.0,0.0,0.0,0.0,0.0,-3.1192,-3.3629,-3.6205,-3.6768,-3.5171,-3.4742,-3.2558,0.0,0.0,0.0,0.0,0.0,0.0,0.0,0.0,0.0,0.0,0.0,0.0,0.0,0.0,0.0,0.0,0.0,0.0,0.0,0.0,0.0,0.0,0.0,0.0,0.0,0.0,0.0,0.0,0.0,0.0,0.0,0.0,0.0,0.0,0.0,0.0,0.0,0.0,0.0,0.0,0.0,0.0,0.0,0.0,0.0,0.0,0.0,0.0,0.0,0.0,0.0,0.0,0.0,0.0,0.0,0.0,0.0,0.0,0.0,0.0,0.0,0.0,0.0,0.0,0.0,0.0,0.0,0.0,0.0,0.0,0.0,0.0,0.0,0.0,0.0,0.0,0.0,0.0,0.0,0.0,0.0,0.0,0.0,0.0,0.0,0.0,0.0,0.0,0.0,0.0,0.0,0.0,0.0,0.0,0.0,0.0,0.0,0.0,0.0,0.0,0.0,0.0,0.0,0.0,0.0,0.0,0.0,0.0,-3.3515,-3.5425,-3.7893,-3.8692,-3.7625,-3.5061,-3.197,0.0,0.0,0.0,0.0,0.0,0.0,0.0,0.0,0.0,0.0,0.0,0.0,0.0,0.0,0.0,0.0,0.0,0.0,0.0,0.0,0.0,0.0,0.0,0.0,0.0,0.0,0.0,0.0,0.0,0.0,0.0,0.0,0.0,0.0,0.0,0.0,0.0,0.0,0.0,0.0,0.0,0.0,0.0,0.0,0.0,0.0,0.0,0.0,-2.5699,0.0,0.0,0.0,0.0,0.0,0.0,0.0,0.0,0.0,0.0,0.0,0.0,0.0,0.0,0.0,0.0,0.0,0.0,0.0,0.0,0.0,0.0,0.0,0.0,0.0,0.0,0.0,0.0,0.0,0.0,0.0,0.0,0.0,0.0,0.0,0.0,0.0,0.0,0.0,0.0,0.0,0.0,0.0,0.0,0.0,0.0,0.0,0.0,0.0,0.0,0.0,0.0,0.0,0.0,0.0,0.0,0.0,0.0,0.0,-3.4452,-3.656,-3.8666,-3.934,-3.8463,-3.6317,-3.3329,0.0,0.0,0.0,0.0,0.0,0.0,0.0,0.0,0.0,0.0,0.0,0.0,0.0,0.0,0.0,0.0,0.0,0.0,0.0,0.0,0.0,0.0,0.0,0.0,0.0,0.0,0.0,0.0,0.0,0.0,0.0,0.0,0.0,0.0,0.0,0.0,0.0,0.0,0.0,0.0,0.0,0.0,0.0,0.0,0.0,0.0,0.0,0.0,0.0,0.0,0.0,0.0,0.0,0.0,0.0,0.0,0.0,0.0,0.0,0.0,0.0,0.0,0.0,0.0,0.0,0.0,0.0,0.0,0.0,0.0,0.0,0.0,0.0,0.0,0.0,0.0,0.0,0.0,0.0,0.0,0.0,0.0,0.0,0.0,0.0,0.0,0.0,0.0,0.0,0.0,0.0,0.0,0.0,0.0,0.0,0.0,0.0,0.0,0.0,0.0,0.0,0.0,0.0,0.0,0.0,0.0,0.0,-3.1621,-3.4861,-3.7419,-3.913,-3.952,-3.8603,-3.7737,-3.521,-3.0867,0.0,0.0,0.0,0.0,0.0,0.0,0.0,0.0,0.0,0.0,0.0,0.0,0.0,0.0,0.0,0.0,0.0,0.0,0.0,0.0,0.0,0.0,0.0,0.0,0.0,0.0,0.0,0.0,0.0,0.0,0.0,0.0,0.0,0.0,0.0,0.0,0.0,0.0,-2.4491,-2.6264,0.0,0.0,0.0,0.0,0.0,0.0,0.0,0.0,-2.6985,0.0,0.0,0.0,0.0,0.0,0.0,0.0,0.0,0.0,0.0,0.0,0.0,0.0,0.0,0.0,0.0,0.0,0.0,0.0,0.0,0.0,0.0,0.0,0.0,0.0,0.0,0.0,0.0,0.0,0.0,0.0,0.0,0.0,0.0,0.0,0.0,0.0,0.0,0.0,0.0,0.0,0.0,0.0,0.0,0.0,0.0,0.0,0.0,0.0,0.0,0.0,0.0,0.0,0.0,0.0,0.0,-3.1211,-3.3398,-3.5759,-3.8336,-3.9979,-4.0037,-3.8497,-3.8221,-3.5772,-3.0956,0.0,0.0,0.0,0.0,0.0,0.0,0.0,0.0,0.0,0.0,0.0,0.0,0.0,0.0,0.0,0.0,0.0,0.0,0.0,0.0,0.0,0.0,0.0,0.0,0.0,0.0,0.0,0.0,0.0,0.0,0.0,0.0,0.0,0.0,0.0,0.0,0.0,0.0,0.0,-2.8188,-2.9323,0.0,0.0,0.0,0.0,0.0,0.0,0.0,0.0,-2.6634,0.0,0.0,0.0,0.0,0.0,0.0,0.0,0.0,0.0,0.0,0.0,0.0,0.0,0.0,0.0,0.0,0.0,0.0,0.0,0.0,0.0,0.0,0.0,0.0,0.0,0.0,0.0,0.0,0.0,0.0,0.0,0.0,0.0,0.0,0.0,0.0,0.0,0.0,0.0,0.0,0.0,0.0,0.0,0.0,0.0,0.0,0.0,0.0,0.0,0.0,0.0,0.0,0.0,0.0,0.0,-3.0723,-3.3827,-3.6375,-3.8458,-4.0129,-4.0175,-3.8455,-3.7471,-3.5006,0.0,0.0,0.0,0.0,0.0,0.0,0.0,0.0,0.0,0.0,0.0,0.0,0.0,0.0,0.0,0.0,0.0,0.0,0.0,0.0,0.0,0.0,0.0,0.0,0.0,0.0,0.0,0.0,0.0,0.0,0.0,0.0,0.0,0.0,0.0,0.0,0.0,0.0,0.0,0.0,-2.8816,-2.9825,-2.9031,0.0,0.0,0.0,0.0,0.0,0.0,-2.8095,-2.7413,0.0,0.0,0.0,0.0,0.0,0.0,0.0,0.0,0.0,0.0,0.0,0.0,0.0,0.0,0.0,0.0,0.0,0.0,0.0,0.0,0.0,0.0,0.0,0.0,0.0,0.0,0.0,0.0,0.0,0.0,0.0,0.0,0.0,0.0,0.0,0.0,0.0,0.0,0.0,0.0,0.0,0.0,0.0,0.0,0.0,0.0,0.0,0.0,0.0,0.0,0.0,0.0,0.0,0.0,0.0,-2.9845,-3.3729,-3.6622,-3.8399,-4.0134,-4.0187,-3.8435,-3.6844,-3.4361,0.0,0.0,0.0,0.0,0.0,0.0,0.0,0.0,0.0,0.0,0.0,0.0,0.0,0.0,0.0,0.0,0.0,0.0,0.0,0.0,0.0,0.0,0.0,0.0,0.0,0.0,0.0,0.0,0.0,0.0,0.0,0.0,0.0,0.0,0.0,0.0,0.0,0.0,0.0,0.0,0.0,-3.0609,-3.0779,-3.1227,0.0,0.0,0.0,0.0,-3.0706,-2.9927,0.0,0.0,0.0,0.0,0.0,0.0,0.0,0.0,0.0,0.0,0.0,0.0,0.0,0.0,0.0,0.0,0.0,0.0,0.0,0.0,0.0,0.0,0.0,0.0,0.0,0.0,0.0,0.0,0.0,0.0,0.0,0.0,0.0,0.0,0.0,0.0,0.0,0.0,0.0,0.0,0.0,0.0,0.0,0.0,0.0,0.0,0.0,0.0,0.0,0.0,0.0,0.0,0.0,0.0,0.0,0.0,-3.0567,-3.3417,-3.6069,-3.8509,-4.0223,-4.0227,-3.8447,-3.7487,-3.5052,0.0,0.0,0.0,0.0,0.0,0.0,0.0,0.0,0.0,0.0,0.0,0.0,0.0,0.0,0.0,0.0,0.0,0.0,0.0,0.0,0.0,0.0,0.0,0.0,0.0,0.0,0.0,0.0,0.0,0.0,0.0,0.0,0.0,0.0,0.0,0.0,0.0,0.0,0.0,0.0,0.0,-3.3239,-3.1096,-3.2713,-3.4135,0.0,0.0,0.0,-3.4817,-3.3843,0.0,0.0,0.0,0.0,0.0,0.0,0.0,0.0,0.0,0.0,0.0,0.0,0.0,0.0,0.0,0.0,0.0,0.0,0.0,0.0,0.0,0.0,0.0,0.0,0.0,0.0,0.0,0.0,0.0,0.0,0.0,0.0,0.0,0.0,0.0,0.0,0.0,0.0,0.0,0.0,0.0,0.0,0.0,0.0,0.0,0.0,0.0,0.0,0.0,0.0,0.0,0.0,0.0,0.0,0.0,-2.7732,-3.148,-3.4605,-3.7175,-3.918,-4.0408,-4.0203,-3.8441,-3.6668,-3.394,0.0,0.0,0.0,0.0,0.0,0.0,0.0,0.0,0.0,0.0,0.0,0.0,0.0,0.0,0.0,0.0,0.0,0.0,0.0,0.0,0.0,0.0,0.0,0.0,0.0,0.0,0.0,0.0,0.0,0.0,0.0,0.0,0.0,0.0,0.0,0.0,0.0,0.0,0.0,0.0,0.0,0.0,-3.4291,-3.5382,0.0,0.0,0.0,-3.5772,-3.5869,0.0,0.0,0.0,0.0,0.0,0.0,0.0,0.0,0.0,0.0,0.0,0.0,0.0,0.0,0.0,0.0,0.0,0.0,0.0,0.0,0.0,0.0,0.0,0.0,0.0,0.0,0.0,0.0,0.0,0.0,0.0,0.0,0.0,0.0,0.0,0.0,0.0,0.0,0.0,0.0,0.0,0.0,0.0,0.0,0.0,0.0,0.0,0.0,0.0,0.0,0.0,0.0,0.0,0.0,0.0,0.0,0.0,-3.2085,-3.5522,-3.8089,-3.9691,-4.0588,-4.0193,-3.8435,-3.6156,0.0,0.0,0.0,0.0,0.0,0.0,0.0,0.0,0.0,0.0,0.0,0.0,0.0,0.0,0.0,0.0,0.0,0.0,0.0,0.0,0.0,0.0,0.0,0.0,0.0,0.0,0.0,-1.6578,0.0,0.0,0.0,0.0,0.0,0.0,0.0,0.0,0.0,0.0,0.0,0.0,0.0,0.0,-3.4135,-3.7116,-3.8071,-3.8558,0.0,0.0,-3.9006,-3.7701,-3.7506,-3.6415,0.0,0.0,0.0,0.0,0.0,0.0,0.0,0.0,0.0,0.0,0.0,0.0,0.0,0.0,0.0,0.0,0.0,0.0,0.0,0.0,0.0,0.0,0.0,0.0,0.0,0.0,0.0,0.0,0.0,0.0,0.0,0.0,0.0,0.0,0.0,0.0,0.0,0.0,0.0,0.0,0.0,0.0,0.0,0.0,0.0,0.0,0.0,0.0,0.0,0.0,0.0,0.0,0.0,0.0,0.0,-3.2068,-3.5545,-3.8121,-3.9758,-4.0656,-4.0231,-3.8447,-3.6737,-3.4184,0.0,0.0,0.0,0.0,0.0,0.0,0.0,0.0,0.0,0.0,0.0,0.0,0.0,0.0,0.0,0.0,0.0,0.0,0.0,0.0,0.0,0.0,0.0,0.0,0.0,0.0,0.0,0.0,0.0,0.0,0.0,0.0,0.0,0.0,0.0,0.0,0.0,0.0,0.0,0.0,0.0,-3.6317,-3.8168,-4.0448,-4.2241,0.0,0.0,-4.1987,-4.187,-4.1831,-4.0175,-3.5226,0.0,0.0,0.0,0.0,0.0,0.0,0.0,0.0,0.0,0.0,0.0,0.0,0.0,0.0,0.0,0.0,0.0,0.0,0.0,0.0,0.0,0.0,0.0,0.0,0.0,0.0,0.0,0.0,0.0,0.0,0.0,0.0,0.0,0.0,0.0,0.0,0.0,0.0,0.0,0.0,0.0,0.0,0.0,0.0,0.0,0.0,0.0,0.0,0.0,0.0,0.0,0.0,0.0,-2.9489,-3.2865,-3.6325,-3.8902,-4.0522,-4.0932,-4.0516,-3.9291,-3.7636,-3.4882,0.0,0.0,0.0,0.0,0.0,0.0,0.0,0.0,0.0,0.0,0.0,0.0,0.0,0.0,0.0,0.0,0.0,0.0,0.0,0.0,0.0,0.0,0.0,0.0,0.0,0.0,0.0,0.0,-2.1705,-2.2312,-2.2854,0.0,0.0,0.0,0.0,0.0,0.0,0.0,0.0,0.0,0.0,-3.7701,-4.0467,-4.2143,0.0,0.0,-4.378,-4.3721,-4.3195,-4.2241,-4.0526,-3.7487,-3.5655,0.0,0.0,0.0,0.0,0.0,0.0,0.0,0.0,0.0,0.0,0.0,0.0,0.0,0.0,0.0,0.0,0.0,0.0,0.0,0.0,0.0,0.0,0.0,0.0,0.0,0.0,0.0,0.0,0.0,0.0,0.0,0.0,0.0,0.0,0.0,0.0,0.0,0.0,0.0,0.0,0.0,0.0,0.0,0.0,0.0,0.0,0.0,0.0,0.0,0.0,0.0,0.0,-2.9977,-3.3375,-3.6833,-3.9429,-4.1069,-4.1108,-4.0678,-3.98,-3.818,-3.5506,0.0,0.0,0.0,0.0,0.0,0.0,0.0,0.0,0.0,0.0,0.0,0.0,0.0,0.0,0.0,0.0,0.0,0.0,0.0,0.0,0.0,0.0,0.0,0.0,0.0,0.0,0.0,0.0,-2.3326,-2.3692,-2.4315,0.0,0.0,0.0,0.0,0.0,0.0,0.0,0.0,0.0,0.0,-3.9786,-4.2669,-4.3819,-4.4384,-4.4384,-4.489,-4.489,-4.3773,-4.2825,-4.1481,-3.924,0.0,0.0,0.0,0.0,0.0,0.0,0.0,0.0,0.0,0.0,0.0,0.0,0.0,0.0,0.0,0.0,0.0,0.0,0.0,0.0,0.0,0.0,0.0,0.0,0.0,0.0,0.0,0.0,0.0,0.0,0.0,0.0,0.0,0.0,0.0,0.0,0.0,0.0,0.0,0.0,0.0,0.0,0.0,0.0,0.0,0.0,0.0,0.0,0.0,0.0,0.0,0.0,0.0,0.0,-3.338,-3.6875,-3.9429,-4.103,-4.1108,-4.0698,-3.9839,-3.8199,-3.6049,-3.335,0.0,0.0,0.0,0.0,0.0,0.0,0.0,0.0,0.0,0.0,0.0,0.0,0.0,0.0,0.0,0.0,0.0,0.0,0.0,0.0,0.0,0.0,0.0,0.0,0.0,0.0,-2.2974,-2.3766,-2.43,0.0,0.0,0.0,0.0,0.0,0.0,0.0,0.0,0.0,0.0,-4.0078,-4.2825,-4.4559,-4.5572,-4.6059,-4.6079,-4.6137,-4.5572,-4.3916,-4.4247,-4.3682,0.0,0.0,0.0,0.0,0.0,0.0,0.0,0.0,0.0,0.0,0.0,0.0,0.0,0.0,0.0,0.0,0.0,0.0,0.0,0.0,0.0,0.0,0.0,0.0,0.0,0.0,0.0,0.0,-2.4401,0.0,0.0,0.0,0.0,0.0,0.0,0.0,0.0,0.0,0.0,0.0,-3.3028,-3.4681,0.0,0.0,0.0,0.0,0.0,0.0,0.0,0.0,0.0,0.0,0.0,0.0,-3.1385,-3.4276,-3.7653,-3.9937,-4.1069,-4.1108,-4.0952,-4.0639,-3.9559,-3.6937,-3.2674,0.0,0.0,0.0,0.0,0.0,0.0,0.0,0.0,0.0,0.0,0.0,0.0,0.0,0.0,0.0,0.0,0.0,0.0,0.0,0.0,0.0,0.0,0.0,0.0,0.0,-2.3225,0.0,0.0,0.0,0.0,0.0,0.0,0.0,0.0,0.0,0.0,0.0,-3.7,-4.0107,-4.205,-4.3766,-4.5476,-4.5986,-4.6196,0.0,0.0,0.0,0.0,0.0,0.0,0.0,0.0,0.0,0.0,0.0,0.0,0.0,0.0,-4.1366,-3.6836,-3.5273,-3.4785,-3.5074,0.0,0.0,0.0,0.0,0.0,0.0,0.0,0.0,0.0,0.0,0.0,0.0,0.0,0.0,0.0,0.0,-2.8831,0.0,0.0,0.0,0.0,0.0,0.0,0.0,0.0,-3.4871,-3.6367,-3.6977,-3.8628,-3.8375,0.0,-3.5934,-3.315,0.0,0.0,0.0,0.0,0.0,0.0,0.0,0.0,-3.2221,-3.5129,-3.8199,-4.0229,-4.1049,-4.1104,-4.1104,-4.1085,-3.965,-3.7043,-3.313,-2.9733,-2.7472,0.0,0.0,0.0,0.0,0.0,0.0,0.0,0.0,0.0,0.0,0.0,0.0,0.0,0.0,0.0,0.0,0.0,0.0,0.0,0.0,0.0,0.0,0.0,-2.4365,0.0,0.0,0.0,0.0,0.0,0.0,0.0,0.0,0.0,-3.4221,-3.6867,-3.9887,-4.2704,-4.3849,-4.4954,-4.6357,0.0,0.0,0.0,0.0,0.0,0.0,0.0,-4.4616,-4.4903,-4.3838,-4.3098,-4.3578,-4.5085,-4.5899,-4.4804,0.0,0.0,-4.0504,-3.8843,-3.8314,-3.8624,-3.8893,-3.9183,-3.9449,-4.0464,-4.1283,0.0,0.0,0.0,0.0,0.0,0.0,0.0,0.0,-3.368,-3.3648,0.0,-3.2697,0.0,0.0,0.0,0.0,0.0,0.0,0.0,0.0,-3.9811,-4.1124,-4.1182,-4.1266,-4.0818,-4.0078,-4.1532,-4.0115,-3.5885,-3.0279,0.0,0.0,0.0,0.0,0.0,0.0,-3.2667,-3.6102,-3.8606,-4.0268,-4.1127,-4.1117,-4.1113,-4.1051,-3.8653,-3.6557,-3.4818,-3.3093,-3.0998,-2.8446,-2.6712,0.0,0.0,0.0,0.0,0.0,0.0,0.0,0.0,0.0,0.0,0.0,0.0,0.0,0.0,0.0,0.0,0.0,0.0,0.0,0.0,-2.4574,0.0,0.0,0.0,0.0,0.0,0.0,0.0,0.0,0.0,0.0,-3.6521,-3.9694,-4.2845,-4.4558,0.0,0.0,0.0,0.0,-4.6493,-4.731,-4.7437,-4.7446,-4.7446,-4.8088,-4.8321,-4.7611,0.0,0.0,-4.6559,-4.7664,-4.8255,-4.6705,-4.7666,-4.8291,-4.6534,-4.4164,-4.288,-4.3593,-4.3149,-4.2939,-4.371,-4.4972,-4.6105,-3.7519,0.0,0.0,0.0,0.0,-3.5992,-3.7279,-3.9716,-3.914,-3.8533,-3.7923,-3.704,0.0,0.0,0.0,0.0,0.0,0.0,-3.7375,-3.9967,-4.076,-4.2065,-4.3819,-4.4462,-4.4267,-4.3448,-4.3319,-4.2305,-4.039,-3.7531,-3.396,-2.9773,0.0,0.0,0.0,0.0,-3.5916,-3.8603,-4.0047,-4.1152,-4.2013,-4.1413,-4.1115,-4.1106,-3.9775,-3.8229,-3.6537,-3.5407,-3.3629,-3.1096,-2.9342,0.0,0.0,0.0,0.0,0.0,0.0,0.0,0.0,0.0,0.0,0.0,0.0,0.0,0.0,0.0,0.0,0.0,0.0,0.0,-2.4647,-2.5758,-2.7373,0.0,0.0,0.0,0.0,0.0,0.0,0.0,0.0,0.0,-4.2124,-4.3633,-4.5214,0.0,0.0,-4.7695,-4.7315,-4.7609,-4.799,-4.8224,0.0,0.0,0.0,-4.795,-4.7844,-4.8214,-4.9047,-4.9289,-4.8241,-4.8967,-4.9367,-4.8262,-4.8463,-4.8623,-4.8193,-4.7533,-4.7048,-4.7276,-4.7123,-4.7029,-4.7318,-4.7783,-4.8076,-4.2427,-3.9969,-3.8553,-3.8756,-3.9975,-3.9477,-4.0596,-4.2792,-4.2305,-4.1981,-4.1779,-4.0896,-3.9461,-3.7603,-3.6434,0.0,0.0,0.0,-3.9941,-4.2617,-4.2611,-4.3604,-4.5377,-4.5942,-4.5923,-4.5416,-4.4878,-4.4176,-4.3312,-4.2305,-3.9472,-3.4987,0.0,0.0,-3.5171,-3.6715,-3.8605,-4.0766,-4.1676,-4.2212,-4.2373,-4.1554,-4.11,-4.107,-3.9939,-3.8803,-3.774,-3.6201,-3.4681,-3.3142,-3.1115,-2.8777,0.0,0.0,0.0,0.0,0.0,0.0,0.0,0.0,0.0,0.0,0.0,-2.0499,0.0,0.0,0.0,0.0,-2.3903,-2.5351,-2.7873,-2.909,0.0,0.0,0.0,0.0,0.0,0.0,0.0,-4.0539,-4.344,-4.5664,-4.6515,-4.7061,-4.7578,-4.8063,-4.8347,-4.8445,-4.8263,0.0,-4.8669,-4.9019,-4.9077,-4.9174,-4.9484,-4.9116,-4.8973,-4.9562,-5.0163,-5.0386,-4.9962,-5.0289,-5.0409,-4.9963,-4.9829,-4.9833,-4.9833,-4.9813,-4.956,-4.8954,-4.9072,-4.9325,-4.9325,-4.9599,-4.9833,-4.6362,-4.603,-4.283,-4.1978,-4.2694,-4.2694,-4.313,-4.3799,-4.3819,-4.424,-4.4922,-4.4085,-4.3227,-4.2292,-4.0877,0.0,0.0,-4.226,-4.3468,-4.4988,-4.5007,-4.5416,-4.6176,-4.6196,-4.6196,-4.6196,-4.6216,-4.5787,-4.5014,-4.4988,-4.3805,-4.1499,-3.9106,-3.8592,-3.9837,-3.9947,-4.0877,-4.2568,-4.3314,-4.3256,-4.2398,-4.1607,-4.1142,-4.0994,-3.9435,-3.8558,-3.8344,-3.6084,-3.4739,-3.4525,-3.2304,-3.0195,-2.8422,0.0,0.0,0.0,0.0,0.0,0.0,0.0,0.0,0.0,0.0,0.0,0.0,0.0,0.0,0.0,-2.7644,0.0,-3.1988,-3.3626,0.0,0.0,0.0,-3.6903,-3.8702,-4.0984,-4.3053,-4.4717,0.0,0.0,0.0,0.0,-4.9803,-4.9803,-4.9107,-4.8875,-4.9691,-4.9151,-4.8986,-4.9765,-4.9906,-5.0156,-5.0699,-5.0815,-5.0849,-5.1083,-5.1408,-5.1472,-5.1467,-5.1595,-5.1601,-5.162,-5.1609,-5.159,-5.1609,-5.1609,-5.1121,-4.9657,-4.9774,-5.0223,-5.0379,-5.0926,-5.1453,-4.6874,-4.6153,-4.5333,-4.5109,-4.5286,-4.5293,-4.5404,-4.5572,-4.5592,-4.5689,-4.5825,-4.4961,-4.4085,-4.3312,-4.3585,-4.3799,-4.4033,-4.4871,-4.5475,-4.5884,-4.5884,-4.6001,-4.6196,-4.6196,-4.6196,-4.6196,-4.6203,-4.6086,-4.5903,-4.5891,-4.5579,-4.4975,-4.4358,-4.2966,-4.0881,-4.1448,-4.2624,-4.4293,-4.3857,-4.32,-4.237,-4.213,-4.1422,-4.0136,-3.9708,-3.887,-3.7564,-3.6921,-3.5967,-3.4661,-3.3434,-3.1982,-3.0169,-2.7298,0.0,0.0,0.0,0.0,0.0,0.0,0.0,0.0,0.0,-2.7618,-2.3971,0.0,-2.9997,0.0,-3.2501,-3.4158,-3.473,-3.5716,0.0,0.0,-4.052,-4.168,-4.4639,-4.5529,-4.6303,-4.7366,-4.8624,-4.9455,-4.9668,-5.0229,-5.0616,-5.0616,-5.0461,-5.0171,-4.9838,-5.0109,-5.038,-5.0616,-5.0674,-5.0709,-5.0956,-5.1014,-5.1159,-5.1269,-5.1843,-5.2323,-5.2389,-5.2964,-5.3402,-5.3389,-5.3385,-5.3385,-5.3327,-5.3385,-5.3249,-5.278,-5.1902,-5.1297,-5.1941,-5.2273,-5.2565,-4.7825,-4.7357,-4.7351,-4.7359,-4.7281,-4.6534,-4.6196,-4.6196,-4.6196,-4.6196,-4.6176,-4.5689,-4.5222,-4.4812,-4.526,-4.5475,-4.5514,-4.5981,-4.6196,-4.6196,-4.6196,-4.6196,-4.6196,-4.6196,-4.6196,-4.6196,-4.6196,-4.6196,-4.6196,-4.6196,-4.6196,-4.6196,-4.6196,-4.5274,-4.3473,-4.3845,-4.4552,-4.5475,-4.4624,-4.3942,-4.3468,-4.2689,-4.1675,-4.0429,-4.0,-3.8955,-3.7176,-3.6774,-3.5982,-3.462,-3.3426,-3.2316,-3.13,-2.9205,-2.7618,0.0,0.0,0.0,0.0,0.0,0.0,0.0,0.0,0.0,0.0,0.0,-3.332,0.0,-3.6134,0.0,-3.8487,-3.9944,-4.1777,-4.402,-4.462,-4.5606,-4.7482,-4.8024,-4.845,-4.8914,-4.9726,-5.0384,-5.0751,-5.1196,-5.1621,-5.2008,-5.2066,-5.1757,-5.1076,-5.1505,-5.2047,-5.2066,-5.2066,-5.2066,-5.2086,-5.2219,-5.2348,-5.2472,-5.2896,-5.3232,-5.3271,-5.3689,-5.3994,-5.399,-5.399,-5.399,-5.399,-5.399,-5.399,-5.3873,-5.3229,-5.2819,-5.3171,-5.3268,-5.3463,-4.8889,-4.8794,-4.8802,-4.8801,-4.869,-4.717,-4.6527,-4.6527,-4.6527,-4.6527,-4.6527,-4.6527,-4.6546,-4.6527,-4.6527,-4.6527,-4.6546,-4.6546,-4.6488,-4.6371,-4.6352,-4.6313,-4.6196,-4.6196,-4.6196,-4.6196,-4.6196,-4.6196,-4.6196,-4.6196,-4.6196,-4.6196,-4.6196,-4.6196,-4.6196,-4.6196,-4.6196,-4.6196,-4.5455,-4.5007,-4.4871,-4.3429,-4.2143,-4.1149,-4.0227,-3.8916,-3.7106,-3.6382,-3.5589,-3.4659,-3.3324,-3.2511,-3.2278,-3.0749,-2.953,0.0,-2.9311,0.0,0.0,0.0,0.0,0.0,0.0,0.0,0.0,-3.592,-3.689,-3.7463,-3.9301,-4.1047,-4.2458,-4.4724,-4.6419,-4.7192,-4.8063,-4.8566,-4.8604,-4.932,-4.9861,-4.9861,-5.0577,-5.1389,-5.2028,-5.2279,-5.2666,-5.3246,-5.3517,-5.3304,-5.2759,-5.303,-5.3362,-5.3498,-5.3498,-5.3304,-5.3452,-5.365,-5.374,-5.3856,-5.4033,-5.4159,-5.4164,-5.4291,-5.4385,-5.44,-5.4455,-5.4416,-5.4322,-5.4381,-5.4361,-5.4459,-5.4381,-5.4303,-5.4205,-5.4166,-5.4205,-4.9438,-4.8802,-4.8795,-4.8801,-4.8768,-4.8436,-4.8307,-4.8314,-4.8314,-4.8307,-4.83,-4.8307,-4.8307,-4.83,-4.83,-4.83,-4.83,-4.83,-4.7937,-4.7255,-4.7267,-4.6878,-4.6215,-4.6196,-4.6196,-4.6196,-4.6196,-4.6196,-4.6196,-4.6196,-4.6196,-4.6196,-4.6196,-4.6196,0.0,0.0,0.0,0.0,-4.604,-4.5592,-4.4929,-4.4579,-4.3332,-4.1188,-4.0208,0.0,-3.717,-3.683,-3.6297,-3.5454,-3.5596,0.0,0.0,0.0,0.0,0.0,0.0,0.0,0.0,0.0,0.0,0.0,-3.717,-3.661,-3.6599,-3.977,-4.1357,-4.03,-4.3479,-4.5504,-4.5156,-4.68,-4.7966,-4.8159,-4.8933,-4.9455,-4.9475,-5.0171,-5.0674,-5.0693,-5.1428,-5.2008,-5.226,-5.2782,-5.3304,-5.3575,-5.4116,-5.4465,-5.4307,-5.3881,-5.3539,-5.3503,-5.3655,-5.3669,-5.3765,-5.3901,-5.4058,-5.403,-5.4622,-5.5019,-5.5098,-5.5648,-5.6059,-5.604,-5.6098,-5.6059,-5.6059,-5.6098,-5.6001,-5.6079,-5.6079,-5.5903,-5.522,-5.5044,-5.5259,-5.0465,0.0,-5.0024,-5.0029,0.0,-5.0034,-5.0034,-4.9983,-4.9165,-4.8787,-4.8799,-4.8806,-4.8806,-4.8806,-4.8806,-4.8806,-4.8806,-4.8806,-4.8553,-4.8151,-4.8144,-4.7676,-4.6846,-4.6858,-4.6624,-4.6196,-4.6196,-4.6196,-4.6196,-4.6196,-4.6196,-4.6196,-4.6196,-4.6196,-4.6196,-4.6196,-4.6196,-4.6196,-4.6196,-4.5981,-4.5553,-4.509,-4.4024,-4.2362,0.0,0.0,0.0,0.0,0.0,0.0,0.0,0.0,0.0,0.0,0.0,-3.6297,-3.6613,-3.7007,-3.7555,-3.836,-3.9387,-4.0629,-4.1163,-4.104,-4.0188,-4.2467,-4.3937,-4.3983,-4.5891,-4.7096,-4.7154,-4.8256,-4.9049,-4.9088,-4.9803,-5.0287,-5.0345,-5.0654,-5.1099,-5.1486,-5.1912,-5.2472,-5.3382,-5.3826,-5.431,-5.4677,-5.5103,-5.5374,-5.5371,-5.5026,-5.4757,-5.4815,-5.4834,-5.4965,-5.512,-5.5139,-5.5184,-5.5351,-5.5664,-5.5898,-5.5937,-5.6286,-5.6612,-5.6612,-5.6612,-5.661,-5.661,-5.6606,-5.6606,-5.6606,-5.6606,-5.6489,-5.602,-5.5942,-5.6059,-5.1356,-5.131,-5.131,-5.1296,-5.13,-5.13,-5.13,-5.1203,0.0,0.0,0.0,-4.9247,-4.9235,-4.9235,-4.9235,-4.9235,-4.9235,-4.9235,-4.9157,-4.9021,-4.9021,-4.8553,-4.7742,-4.7735,-4.7365,-4.6683,-4.6644,-4.6566,-4.6429,-4.6429,-4.6332,-4.6215,-4.6196,-4.6196,-4.6196,-4.6196,-4.6215,-4.6169,-4.6189,-4.6169,-4.6169,-4.541,-4.4597,-4.3741,-4.284,-4.1574,-3.9909,-3.9894,-3.9251,-3.7843,-3.7918,-3.7955,-3.7893,-3.837,-3.9052,-3.992,-4.1142,-4.1707,-4.1506,-4.2744,-4.3305,-4.2705,-4.4001,-4.4523,-4.3788,-4.4543,-4.5606,-4.6999,-4.7386,-4.7869,-4.8566,-4.9397,-4.9919,-4.9919,-5.0519,-5.0906,-5.0925,-5.1061,-5.1428,-5.2086,-5.2492,-5.3169,-5.4523,-5.489,-5.5238,-5.5799,-5.5915,-5.6012,-5.6012,-5.5915,-5.5896,-5.6012,-5.5962,-5.6207,-5.6413,-5.6417,-5.6533,-5.6445,-5.6523,-5.6621,-5.6621,-5.6621,-5.6621,-5.6621,-5.6621,-5.6621,-5.6605,-5.661,-5.6606,-5.6606,-5.6606,-5.6606,-5.6606,-5.6606,-5.6586,-5.1308,-5.13,-5.1308,-5.13,-5.13,-5.13,-5.13,-5.1281,-5.1028,-5.095,-5.095,-5.095,-5.093,-5.095,-5.095,-5.095,-5.095,-5.095,-5.056,0.0,-4.9839,-4.9403,-4.8624,-4.8631,-4.8553,-4.8436,-4.8436,-4.8047,-4.7384,-4.7306,-4.6936,-4.6293,-4.6196,-4.6196,-4.6196,-4.6196,-4.6181,-4.6111,-4.6102,-4.6102,-4.6102,-4.592,-4.5424,-4.454,-4.3562,-4.2601,-4.1607,-4.1293,-4.1085,-4.0954,-4.1562,-4.1681,-4.1161,-4.1181,-4.1379,-4.1629,-4.1861,-4.2576,-4.3943,-4.4291,-4.4678,-4.522,-4.549,-4.5568,-4.549,-4.6245,-4.6844,-4.7154,-4.8411,-4.9378,-4.9571,-5.0229,-5.0693,-5.0732,-5.0828,-5.0925,-5.0983,-5.1602,-5.2086,-5.2318,-5.3536,-5.4407,-5.4813,-5.5393,-5.5799,-5.5973,-5.6012,-5.6012,-5.6012,-5.6012,-5.6051,-5.6162,-5.6253,-5.6336,-5.647,-5.6569,-5.6582,-5.6601,-5.6621,-5.6621,-5.6621,-5.6621,-5.6621,-5.6621,-5.6621,-5.6621,-5.6621,-5.6607,-5.6614,-5.661,-5.6606,-5.6606,-5.6606,-5.6606,-5.6606,-5.2703,-5.2703,-5.2703,-5.265,-5.2523,-5.1977,-5.1522,-5.1183,-5.1083,-5.1145,-5.13,-5.13,-5.13,-5.13,-5.13,-5.13,-5.13,-5.13,-5.1086,-5.0716,-5.0716,-5.024,-4.95,-4.9442,-4.9235,-4.8826,-4.8806,-4.8592,-4.8222,-4.8202,-4.7754,-4.6917,-4.6429,-4.6169,-4.6146,-4.616,-4.6123,-4.6056,-4.6084,-4.6084,-4.6056,-4.591,-4.5635,-4.5228,-4.4234,-4.3503,-4.3092,-4.2486,-4.2183,-4.2251,-4.2565,-4.2622,-4.2364,-4.2785,-4.3121,-4.325,-4.3689,-4.4337,-4.52,-4.5258,-4.5606,-4.6419,-4.6515,-4.6709,-4.7192,-4.7134,-4.7502,-4.8392,-4.9281,-4.9881,-5.0306,-5.0693,-5.0906,-5.0906,-5.1293,-5.1602,-5.1699,-5.2356,-5.3091,-5.3575,-5.4291,-5.4948,-5.5412,-5.578,-5.6012,-5.6012,-5.6012,-5.6012,-5.6012,-5.6051,-5.6147,-5.6261,-5.635,-5.643,-5.6523,-5.6575,-5.6601,-5.6621,-5.6621,-5.6621,-5.6621,-5.6621,-5.6621,-5.6621,-5.6621,-5.6621,-5.6621,-5.6621,-5.6612,-5.6602,-5.661,-5.6606,-5.6606,-5.6606,-5.6606,-5.3818,-5.3837,-5.3818,-5.3749,-5.3526,-5.2747,-5.2094,-5.1571,-5.1224,-5.1206,-5.142,-5.1288,-5.1181,-5.1201,-5.1201,-5.1181,-5.1181,-5.1201,-5.1219,-5.1253,-5.1237,-5.0906,-5.0338,-5.0287,-4.9976,-4.941,-4.9372,-4.9274,-4.9099,-4.9079,-4.8651,-4.7774,-4.6897,-4.6454,-4.6366,-4.6182,-4.6042,-4.5986,-4.6007,-4.5997,-4.5933,-4.5761,-4.5654,-4.5587,-4.4803,-4.4364,-4.4321,-4.3654,-4.331,-4.3345,-4.3349,-4.335,-4.3426,-4.402,-4.444,-4.4586,-4.5194,-4.5661,-4.5786,-4.5993,-4.638,-4.7038,-4.7289,-4.7753,-4.8508,-4.8101,-4.8217,-4.9475,-4.9861,-5.0268,-5.0751,-5.0887,-5.0983,-5.1177,-5.1776,-5.224,-5.2531,-5.3246,-5.402,-5.4677,-5.4967,-5.5335,-5.5838,-5.6012,-5.6012,-5.6012,-5.6012,-5.6012,-5.6031,-5.6128,-5.6242,-5.6288,-5.6408,-5.6518,-5.6601,-5.6601,-5.6621,-5.6621,-5.6621,-5.6621,-5.6621,-5.6621,-5.6621,-5.6621,-5.6621,-5.6621,-5.6621,-5.6621,-5.6621,-5.6612,-5.6605,-5.6614,-5.6606,-5.6821,-5.6782,-5.3662,-5.3623,-5.3701,-5.3623,-5.3591,-5.3361,-5.3172,-5.2949,-5.2126,-5.1804,-5.189,-5.1192,-5.087,-5.0835,-5.087,-5.087,-5.087,-5.0835,-5.0965,-5.1101,-5.1113,-5.1132,-5.1109,-5.1164,-5.1145,-5.1028,-5.0989,-5.056,-4.9917,-4.9859,-4.9449,-4.867,-4.7762,-4.7291,-4.7193,-4.6453,-4.597,-4.5917,-4.5789,-4.5747,-4.5713,-4.5661,-4.5545,-4.5419,-4.5204,-4.5082,-4.5027,-4.4851,-4.4772,-4.497,-4.4949,-4.4991,-4.5112,-4.5208,-4.5285,-4.5266,-4.547,-4.5661,-4.5844,-4.6554,-4.7018,-4.7134,-4.7869,-4.8643,-4.9494,-4.9494,-4.9475,-4.9823,-5.0384,-5.077,-5.0887,-5.0925,-5.1254,-5.1892,-5.2221,-5.2492,-5.3323,-5.4155,-5.4716,-5.4774,-5.5412,-5.5935,-5.5973,-5.6012,-5.6012,-5.6012,-5.6012,-5.6012,-5.6031,-5.6167,-5.6281,-5.6309,-5.6401,-5.6508,-5.6601,-5.6621,-5.6621,-5.6621,-5.6621,-5.6621,-5.6621,-5.6621,-5.6621,-5.6621,-5.6621,-5.6621,-5.6621,-5.6621,-5.6621,-5.6616,-5.661,-5.6605,-5.6688,-5.7133,-5.7328,-5.5126,-5.5145,-5.5145,-5.4782,-5.4196,-5.393,-5.3565,-5.3136,-5.2628,-5.2193,-5.1786,-5.1427,-5.1105,-5.0809,-5.0809,-5.0809,-5.0809,-5.0809,-5.0845,-5.0933,-5.1054,-5.1054,-5.1023,-5.1219,-5.1276,-5.1181,-5.1276,-5.1125,-5.0728,-5.0224,-4.975,-4.9353,-4.853,-4.8104,-4.7975,-4.709,-4.6571,-4.6457,-4.5844,-4.5493,-4.5419,-4.5381,-4.5341,-4.526,-4.5106,-4.4995,-4.5019,-4.4924,-4.4943,-4.5019,-4.5014,-4.5038,-4.5109,-4.5237,-4.5279,-4.53,-4.5475,-4.5861,-4.641,-4.6858,-4.754,-4.8546,-4.8952,-4.9533,-5.0306,-5.0422,-5.0422,-5.0461,-5.0732,-5.0906,-5.0964,-5.137,-5.1815,-5.226,-5.3091,-5.3884,-5.4233,-5.5006,-5.5509,-5.5548,-5.5799,-5.6012,-5.6012,-5.6012,-5.6012,-5.6012,-5.6012,-5.6012,-5.6031,-5.6167,-5.6291,-5.632,-5.6441,-5.6548,-5.6601,-5.6621,-5.6621,-5.6621,-5.6621,-5.6621,-5.6621,-5.6621,-5.6621,-5.6621,-5.6621,-5.6621,-5.6621,-5.6621,-5.6621,-5.6619,-5.6647,-5.6731,-5.725,-5.7582,-5.7738,-5.6029,-5.6029,-5.6029,-5.5598,-5.4881,-5.4619,-5.4213,-5.3706,-5.3317,-5.2812,-5.2294,-5.2026,-5.173,-5.1335,-5.0891,-5.0659,-5.0677,-5.0659,-5.0696,-5.0771,-5.0898,-5.0903,-5.084,-5.1016,-5.11,-5.1042,-5.112,-5.1152,-5.1074,-5.0456,-5.0079,-4.9899,-4.9197,-4.8757,-4.858,-4.7527,-4.6858,-4.674,-4.5841,-4.53,-4.5213,-4.5148,-4.5125,-4.5103,-4.4986,-4.4895,-4.4895,-4.4895,-4.4895,-4.4895,-4.4895,-4.4895,-4.4895,-4.5057,-4.5243,-4.5497,-4.5724,-4.6243,-4.7139,-4.7549,-4.8307,-4.9517,-4.9881,-5.0268,-5.077,-5.0906,-5.0906,-5.0906,-5.1119,-5.1293,-5.1331,-5.1834,-5.2337,-5.2879,-5.4136,-5.4832,-5.5122,-5.5683,-5.5973,-5.6012,-5.5973,-5.6012,-5.6012,-5.6012,-5.6012,-5.6012,-5.6012,-5.6031,-5.607,-5.6186,-5.6304,-5.6345,-5.6494,-5.6601,-5.6621,-5.6621,-5.6621,-5.6621,-5.6621,-5.6621,-5.6621,-5.6621,-5.6621,-5.6621,-5.6621,-5.6621,-5.6621,-5.6621,-5.666,-5.666,-5.6836,-5.7148,-5.7652,-5.8082,-5.8742,-5.5609,-5.5649,-5.5649,-5.5591,-5.5532,-5.548,-5.5418,-5.5077,-5.4384,-5.4015,-5.3767,-5.3105,-5.2728,-5.2533,-5.1136,-5.0367,-5.0367,-5.0409,-5.0489,-5.0607,-5.0624,-5.0698,-5.0809,-5.0825,-5.082,-5.0805,-5.0835,-5.0801,-5.0739,-5.061,-5.0578,-5.0499,-4.9711,-4.9282,-4.9065,-4.7626,-4.6665,-4.6703,-4.5833,-4.523,-4.5189,-4.501,-4.4919,-4.4919,-4.4895,-4.4895,-4.4895,-4.4895,-4.4895,-4.4895,-4.487,-4.487,-4.4914,-4.4914,-4.5394,-4.6157,-4.6349,-4.6892,-4.7971,-4.8739,-4.939,-4.9772,-5.0384,-5.0848,-5.0887,-5.0906,-5.0945,-5.0945,-5.1641,-5.2028,-5.224,-5.2434,-5.3014,-5.431,-5.4697,-5.52,-5.5838,-5.5896,-5.5993,-5.6012,-5.6012,-5.6012,-5.6012,-5.6012,-5.6012,-5.6012,-5.6012,-5.6051,-5.6167,-5.6244,-5.6446,-5.6573,-5.668,-5.664,-5.666,-5.6621,-5.6621,-5.6797,-5.6894,-5.6777,-5.666,-5.6621,-5.6699,-5.668,-5.6797,-5.6797,-5.666,-5.666,-5.6738,-5.6953,-5.7539,-5.793,-5.8437,-5.9463,-6.0025,-5.5607,-5.5607,-5.5607,-5.5558,-5.5476,-5.5474,-5.5461,-5.5365,-5.5071,-5.4606,-5.411,-5.3754,-5.332,-5.2747,-5.2174,-5.162,-5.1162,-5.1142,-5.0894,-5.0478,-5.0525,-5.0567,-5.0508,-5.064,-5.0675,-5.0605,-5.0657,-5.0636,-5.0585,-5.0548,-5.051,-5.0452,-5.0182,-4.999,-4.9775,-4.8705,-4.8081,-4.7911,-4.6629,-4.5827,-4.5794,-4.5223,-4.4895,-4.4895,-4.4895,-4.4895,-4.4895,-4.4821,-4.4789,-4.477,-4.4685,-4.4632,-4.4697,-4.5338,-4.5912,-4.6393,-4.7099,-4.7952,-4.8815,-4.9326,-4.984,-5.0426,-5.0712,-5.0906,-5.0906,-5.0925,-5.1119,-5.1641,-5.197,-5.2569,-5.3614,-5.3865,-5.4097,-5.4697,-5.5258,-5.5644,-5.5915,-5.6012,-5.6012,-5.6012,-5.6012,-5.6012,-5.6012,-5.6012,-5.6012,-5.6012,-5.6012,-5.6089,-5.6295,-5.6689,-5.7107,-5.7349,-5.7832,-5.8281,-5.8262,-5.7187,-5.6719,-5.7226,-5.75,-5.7851,-5.793,-5.8027,-5.8144,-5.7578,-5.7441,-5.7265,-5.7226,-5.7363,-5.7344,-5.7558,-5.8125,-5.8828,-5.9414,-6.0117,-6.0664,-5.5535,-5.5535,-5.5554,-5.5499,-5.5403,-5.5403,-5.5403,-5.5403,-5.5403,-5.5052,-5.4575,-5.4524,-5.418,-5.3702,-5.3582,-5.3143,-5.2398,-5.2112,-5.1658,-5.1151,-5.1226,-5.1047,-5.0746,-5.0849,-5.0718,-5.044,-5.0389,-5.037,-5.0325,-5.0303,-5.0298,-5.0249,-5.0225,-5.0225,-5.0083,-4.9302,-4.8852,-4.8536,-4.734,-4.6582,-4.6506,-4.6013,-4.5691,-4.571,-4.571,-4.5426,-4.4952,-4.4796,-4.4789,-4.4764,-4.4685,-4.4764,-4.5092,-4.5773,-4.6497,-4.7148,-4.7945,-4.8818,-4.9586,-4.9905,-5.0278,-5.0813,-5.0906,-5.0906,-5.0906,-5.1157,-5.1621,-5.2124,-5.2821,-5.3633,-5.4484,-5.5006,-5.518,-5.5238,-5.5683,-5.5993,-5.6012,-5.6012,-5.6012,-5.6012,-5.6012,-5.6012,-5.6012,-5.6012,-5.6012,-5.6012,-5.6012,-5.6128,-5.6643,-5.7133,-5.7797,-5.8139,-5.8685,-5.8984,-5.8965,-5.8183,-5.7812,-5.8203,-5.8301,-5.873,-5.9062,-5.9258,-5.914,-5.8555,-5.8183,-5.7949,-5.791,-5.8066,-5.8203,-5.834,-5.8945,-5.9668,-6.0156,-6.0566,-6.1035,-5.5403,-5.5409,-5.5403,-5.5403,-5.5403,-5.5403,-5.5403,-5.5403,-5.5403,-5.5345,-5.5231,-5.5326,-5.5212,-5.5205,-5.4943,-5.4631,-5.3868,-5.3213,-5.2766,-5.2547,-5.2551,-5.2152,-5.1516,-5.1459,-5.1021,-5.0266,-5.0057,-5.0012,-5.0038,-4.9993,-4.9959,-4.9933,-4.9959,-4.9959,-4.9925,-4.9235,-4.8791,-4.8617,-4.7896,-4.7434,-4.7397,-4.7245,-4.715,-4.7226,-4.7207,-4.6525,-4.5103,-4.5041,-4.5073,-4.506,-4.5016,-4.5325,-4.6013,-4.6329,-4.6961,-4.8296,-4.8805,-4.9408,-5.0214,-5.0548,-5.0673,-5.0874,-5.0906,-5.0964,-5.1177,-5.166,-5.2202,-5.2685,-5.3691,-5.4755,-5.4909,-5.549,-5.5896,-5.5973,-5.5993,-5.5993,-5.6012,-5.6012,-5.6012,-5.6012,-5.6012,-5.6012,-5.6012,-5.6012,-5.6031,-5.6147,-5.6186,-5.6534,-5.7398,-5.7826,-5.8201,-5.8887,-5.9492,-5.9824,-5.9551,-5.9238,-5.9238,-5.9277,-5.9219,-5.9375,-5.9687,-5.9902,-5.9785,-5.9316,-5.8867,-5.8633,-5.8633,-5.8789,-5.9062,-5.9316,-5.9941,-6.041,-6.0742,-6.1074,-6.1348,-5.5403,-5.5403,-5.5403,-5.5403,-5.5403,-5.5403,-5.5403,-5.5403,-5.5403,-5.5403,-5.5403,-5.5403,-5.5358,-5.5275,-5.5229,-5.5023,-5.4749,-5.4444,-5.3784,-5.2857,-5.2672,-5.2563,-5.23,-5.2178,-5.1714,-5.0863,-5.0218,-4.9925,-4.9944,-4.9925,-4.9879,-4.9879,-4.9879,-4.9879,-4.9879,-4.9652,-4.9538,-4.9405,-4.8704,-4.8287,-4.823,-4.77,-4.7416,-4.7397,-4.7397,-4.7061,-4.6501,-4.6509,-4.649,-4.6452,-4.6382,-4.6478,-4.676,-4.7287,-4.7969,-4.8767,-4.9567,-5.0143,-5.0622,-5.0789,-5.0858,-5.089,-5.0906,-5.1215,-5.1699,-5.2047,-5.2782,-5.3691,-5.4523,-5.4987,-5.5548,-5.5818,-5.5993,-5.6012,-5.6012,-5.6012,-5.6012,-5.6012,-5.6012,-5.6012,-5.6012,-5.6012,-5.6012,-5.6012,-5.6225,-5.6747,-5.6844,-5.723,-5.815,-5.8875,-5.9417,-5.9922,-6.0351,-6.0683,-6.0527,-6.043,-6.043,-6.0293,-6.0156,-6.0137,-6.039,-6.0508,-6.039,-6.0137,-5.9687,-5.9492,-5.9473,-5.9629,-5.9922,-6.0215,-6.0703,-6.1015,-6.125,-6.1465,-6.164,-5.5403,-5.5403,-5.5403,-5.5403,-5.5403,-5.5403,-5.5403,-5.5403,-5.5403,-5.5396,-5.5325,-5.5332,-5.5267,-5.5176,-5.5149,-5.5094,-5.5066,-5.5057,-5.4458,-5.3584,-5.3479,-5.3356,-5.3034,-5.2608,-5.2228,-5.1679,-5.1092,-5.0675,-5.0391,-5.0372,-5.022,-4.9936,-4.9879,-4.9879,-4.9879,-4.9879,-4.9879,-4.9803,-4.9386,-4.914,-4.9026,-4.8609,-4.8325,-4.8325,-4.8272,-4.821,-4.8145,-4.807,-4.7721,-4.7231,-4.7014,-4.7105,-4.7443,-4.7935,-4.8447,-4.9105,-4.9805,-5.041,-5.0625,-5.0789,-5.0906,-5.0945,-5.1196,-5.1583,-5.2202,-5.2608,-5.3749,-5.4561,-5.5103,-5.5451,-5.5896,-5.6012,-5.6012,-5.6012,-5.6012,-5.6012,-5.6012,-5.6012,-5.6012,-5.6012,-5.6012,-5.6012,-5.6012,-5.6031,-5.6379,-5.7076,-5.7327,-5.7849,-5.883,-5.9711,-6.0183,-6.0664,-6.1113,-6.1387,-6.1582,-6.1601,-6.1621,-6.1387,-6.1113,-6.1113,-6.123,-6.1269,-6.1191,-6.1015,-6.0644,-6.0625,-6.0605,-6.0703,-6.0918,-6.1211,-6.1308,-6.1426,-6.1543,-6.1582,-6.1699,-5.5403,-5.5403,-5.5403,-5.5403,-5.5403,-5.5403,-5.5403,-5.5403,-5.5358,-5.5325,-5.5225,-5.5214,-5.5149,-5.5113,-5.5057,-5.5028,-5.4971,-5.4941,-5.4874,-5.4741,-5.4714,-5.4458,-5.3812,-5.3035,-5.2589,-5.2494,-5.2324,-5.185,-5.1092,-5.1054,-5.077,-4.9974,-4.9879,-4.9879,-4.9879,-4.9879,-4.9879,-4.9879,-4.9841,-4.9803,-4.9803,-4.9784,-4.9765,-4.9719,-4.957,-4.9466,-4.934,-4.9164,-4.8521,-4.7282,-4.7245,-4.7571,-4.8108,-4.8258,-4.8633,-4.9318,-4.9872,-5.0183,-5.032,-5.0663,-5.0874,-5.0932,-5.1606,-5.224,-5.2492,-5.3616,-5.4583,-5.4987,-5.5528,-5.5935,-5.5993,-5.6012,-5.6012,-5.6012,-5.6012,-5.6012,-5.6012,-5.6012,-5.6012,-5.6012,-5.6012,-5.6012,-5.6012,-5.6012,-5.6476,-5.723,-5.7559,-5.8314,-5.955,-6.0363,-6.0725,-6.1133,-6.1523,-6.164,-6.1699,-6.1699,-6.1699,-6.164,-6.1484,-6.1562,-6.164,-6.166,-6.168,-6.1543,-6.1465,-6.1523,-6.1543,-6.1445,-6.1445,-6.1523,-6.1601,-6.1699,-6.1699,-6.1699,-6.1699,-5.5403,-5.5403,-5.5403,-5.5403,-5.5403,-5.5403,-5.5403,-5.5384,-5.5275,-5.5233,-5.5178,-5.5159,-5.5094,-5.5009,-5.5,-5.499,-5.4931,-5.4901,-5.4901,-5.4901,-5.4912,-5.4855,-5.4465,-5.3764,-5.3347,-5.329,-5.2817,-5.1983,-5.1263,-5.13,-5.0789,-4.9917,-4.9917,-4.9879,-4.9879,-4.9879,-4.9879,-4.9879,-4.9898,-4.9898,-4.9898,-4.9879,-4.9843,-4.975,-4.974,-4.9574,-4.9358,-4.9127,-4.9029,-4.8821,-4.8652,-4.8683,-4.8851,-4.8772,-4.888,-4.9307,-4.9757,-5.0111,-5.0361,-5.0625,-5.0827,-5.0885,-5.1732,-5.2389,-5.308,-5.4085,-5.4972,-5.5492,-5.5935,-5.6012,-5.6012,-5.6012,-5.6012,-5.6012,-5.6012,-5.6012,-5.6012,-5.6012,-5.6012,-5.6012,-5.6012,-5.6012,-5.6012,-5.6147,-5.665,-5.7791,-5.8352,-5.8778,-6.0151,-6.0826,-6.1099,-6.1246,-6.1504,-6.1621,-6.168,-6.1699,-6.1699,-6.1699,-6.166,-6.164,-6.168,-6.1699,-6.1699,-6.166,-6.1601,-6.164,-6.166,-6.1621,-6.1699,-6.1699,-6.1699,-6.1699,-6.1699,-6.1699,-6.1699,-5.5403,-5.5403,-5.5403,-5.5403,-5.5403,-5.5403,-5.5384,-5.5301,-5.5229,-5.514,-5.5114,-5.5076,-5.5028,-5.496,-5.496,-5.4931,-5.4901,-5.4901,-5.4901,-5.4901,-5.4901,-5.4882,-5.4769,-5.4371,-5.42,-5.4162,-5.3688,-5.3063,-5.2343,-5.1907,-5.1244,-5.0523,-5.0069,-4.9898,-4.9879,-4.9879,-4.9879,-4.9879,-4.9843,-4.9835,-4.9825,-4.9712,-4.9655,-4.9555,-4.9525,-4.934,-4.9079,-4.8978,-4.8993,-4.9108,-4.9094,-4.9079,-4.9046,-4.8978,-4.9008,-4.9196,-4.9512,-4.9846,-5.0164,-5.0467,-5.0856,-5.1373,-5.2143,-5.2971,-5.3839,-5.4688,-5.5498,-5.5825,-5.5941,-5.5979,-5.5996,-5.5995,-5.6012,-5.6012,-5.6012,-5.6012,-5.6012,-5.6012,-5.6012,-5.6012,-5.6012,-5.6012,-5.6031,-5.6302,-5.7192,-5.8236,-5.8932,-5.9745,-6.077,-6.1098,-6.1326,-6.1408,-6.1504,-6.1601,-6.168,-6.1699,-6.1699,-6.1699,-6.1699,-6.1699,-6.1699,-6.1699,-6.1699,-6.1699,-6.1699,-6.1699,-6.1699,-6.1699,-6.1699,-6.1699,-6.1699,-6.1699,-6.1699,-6.1699,-6.1699,-5.5403,-5.5403,-5.5403,-5.5403,-5.5403,-5.5403,-5.5326,-5.5224,-5.5191,-5.5104,-5.5036,-5.5009,-5.496,-5.4901,-5.4901,-5.4901,-5.4901,-5.4901,-5.4901,-5.4901,-5.4901,-5.4901,-5.4882,-5.4825,-5.4769,-5.4769,-5.4882,-5.4295,-5.348,-5.2798,-5.204,-5.1187,-5.0372,-5.002,-4.9944,-4.9879,-4.9879,-4.9852,-4.9759,-4.9682,-4.9642,-4.9544,-4.9446,-4.9384,-4.9225,-4.9113,-4.8978,-4.889,-4.889,-4.889,-4.889,-4.889,-4.8909,-4.889,-4.889,-4.9008,-4.9321,-4.9655,-4.9948,-5.0386,-5.0988,-5.1895,-5.2838,-5.3705,-5.4458,-5.5229,-5.5789,-5.5904,-5.5924,-5.5924,-5.5961,-5.5979,-5.5977,-5.5995,-5.5995,-5.5995,-5.6012,-5.6012,-5.6012,-5.6012,-5.6012,-5.6012,-5.6205,-5.6747,-5.7598,-5.8391,-5.9145,-6.0035,-6.075,-6.1099,-6.1292,-6.1402,-6.149,-6.1601,-6.166,-6.1699,-6.1699,-6.1699,-6.1699,-6.1699,-6.1699,-6.1699,-6.1699,-6.1699,-6.1699,-6.1699,-6.1699,-6.1699,-6.1699,-6.1699,-6.1699,-6.1699,-6.1699,-6.1699,-6.1699,-5.5403,-5.5403,-5.5403,-5.5403,-5.5403,-5.5403,-5.5326,-5.5205,-5.5138,-5.5076,-5.4988,-5.495,-5.4931,-5.4901,-5.4901,-5.4901,-5.4901,-5.4901,-5.4901,-5.4901,-5.4901,-5.4901,-5.4901,-5.4901,-5.4901,-5.4901,-5.4901,-5.4484,-5.3802,-5.3423,-5.2665,-5.1395,-5.1082,-5.0597,-5.0069,-5.0003,-4.9841,-4.9757,-4.9712,-4.9593,-4.9496,-4.9421,-4.9321,-4.9244,-4.9061,-4.8959,-4.8909,-4.889,-4.889,-4.889,-4.889,-4.889,-4.889,-4.889,-4.889,-4.9008,-4.9401,-4.973,-5.0024,-5.0841,-5.1662,-5.2125,-5.3339,-5.4341,-5.4496,-5.5325,-5.5808,-5.5885,-5.5924,-5.5885,-5.5905,-5.5924,-5.5942,-5.598,-5.5998,-5.6016,-5.5995,-5.6012,-5.6012,-5.6012,-5.6012,-5.6012,-5.6051,-5.6863,-5.7695,-5.8507,-5.9377,-6.0209,-6.0692,-6.1118,-6.1253,-6.135,-6.1428,-6.1543,-6.164,-6.1699,-6.1699,-6.1699,-6.1699,-6.1699,-6.1699,-6.1699,-6.1699,-6.1699,-6.1699,-6.1699,-6.1699,-6.1699,-6.1699,-6.1699,-6.1699,-6.1699,-6.1699,-6.1699,-6.1699,-5.5403,-5.5403,-5.5403,-5.5403,-5.5403,-5.5339,-5.5262,-5.516,-5.5083,-5.5019,-5.4969,-5.492,-5.4901,-5.4901,-5.4901,-5.4901,-5.4901,-5.4901,-5.4901,-5.4901,-5.4901,-5.4901,-5.4901,-5.4901,-5.4901,-5.4901,-5.4901,-5.4617,-5.4295,-5.384,-5.3252,-5.2362,-5.1887,-5.1433,-5.0865,-5.0478,-5.0222,-5.0052,-4.9649,-4.9396,-4.9328,-4.9216,-4.916,-4.9079,-4.8959,-4.889,-4.889,-4.889,-4.889,-4.889,-4.889,-4.8909,-4.8909,-4.8909,-4.8909,-4.8974,-4.9315,-4.9843,-5.0345,-5.1097,-5.2034,-5.2842,-5.3947,-5.4549,-5.4975,-5.5534,-5.5708,-5.5806,-5.5806,-5.5787,-5.5846,-5.5885,-5.5905,-5.5962,-5.5981,-5.5999,-5.6016,-5.5995,-5.6012,-5.6012,-5.6012,-5.6012,-5.6302,-5.7056,-5.7811,-5.8623,-5.9957,-6.075,-6.0789,-6.1137,-6.1215,-6.1287,-6.1376,-6.1465,-6.1601,-6.168,-6.1699,-6.1699,-6.1699,-6.1699,-6.1699,-6.1699,-6.1699,-6.1699,-6.1699,-6.1699,-6.1699,-6.1699,-6.1699,-6.1699,-6.1699,-6.1699,-6.1699,-6.1699,-6.1699,-5.5403,-5.5403,-5.5403,-5.5403,-5.5377,-5.5248,-5.5172,-5.5096,-5.5009,-5.499,-5.4901,-5.4901,-5.4901,-5.4901,-5.4901,-5.4901,-5.4901,-5.4901,-5.4901,-5.4901,-5.4901,-5.4901,-5.4901,-5.4901,-5.4871,-5.4871,-5.4901,-5.4844,-5.4595,-5.4178,-5.3713,-5.3421,-5.2712,-5.2087,-5.1824,-5.1287,-5.0685,-5.0414,-4.989,-4.9332,-4.9145,-4.8999,-4.8943,-4.8925,-4.889,-4.889,-4.889,-4.889,-4.889,-4.889,-4.889,-4.8964,-4.9057,-4.8927,-4.9039,-4.9092,-4.9583,-5.0207,-5.0996,-5.1725,-5.2752,-5.4063,-5.4495,-5.4972,-5.5511,-5.5667,-5.5705,-5.5724,-5.5724,-5.5745,-5.5785,-5.5826,-5.5865,-5.5885,-5.5924,-5.5981,-5.5981,-5.5979,-5.5977,-5.6012,-5.6012,-5.6012,-5.6553,-5.7288,-5.8004,-5.8836,-6.017,-6.1099,-6.1099,-6.1118,-6.1195,-6.1273,-6.1356,-6.1495,-6.1621,-6.168,-6.1699,-6.1699,-6.1699,-6.1699,-6.1699,-6.1699,-6.1699,-6.1699,-6.1699,-6.1699,-6.1699,-6.1699,-6.1699,-6.1699,-6.1699,-6.1699,-6.1699,-6.1699,-6.1699,-5.5403,-5.5403,-5.5403,-5.5403,-5.5358,-5.5248,-5.5157,-5.5102,-5.5038,-5.496,-5.4901,-5.4901,-5.4901,-5.4901,-5.4901,-5.4901,-5.4901,-5.4901,-5.4901,-5.4901,-5.4901,-5.4901,-5.4901,-5.4871,-5.4822,-5.4742,-5.4761,-5.4791,-5.4661,-5.4459,-5.4012,-5.3352,-5.3055,-5.2677,-5.2215,-5.1697,-5.1255,-5.0772,-5.0268,-4.9732,-4.9222,-4.8964,-4.889,-4.889,-4.889,-4.889,-4.889,-4.889,-4.889,-4.889,-4.889,-4.928,-4.9577,-4.9299,-4.9445,-4.9921,-5.0472,-5.1111,-5.1897,-5.3168,-5.3923,-5.4545,-5.5028,-5.5415,-5.5645,-5.5684,-5.5684,-5.5684,-5.5684,-5.5703,-5.5724,-5.5745,-5.5785,-5.5806,-5.5846,-5.5885,-5.5924,-5.5924,-5.5942,-5.5977,-5.5995,-5.6051,-5.6573,-5.723,-5.8023,-5.8816,-5.9938,-6.0809,-6.1099,-6.1118,-6.1157,-6.1253,-6.1368,-6.15,-6.164,-6.168,-6.1699,-6.1699,-6.1699,-6.1699,-6.1699,-6.1699,-6.1699,-6.1699,-6.1699,-6.1699,-6.1699,-6.1699,-6.1699,-6.1699,-6.1699,-6.1699,-6.1699,-6.1699,-6.1699,-5.5403,-5.5403,-5.5403,-5.5358,-5.5294,-5.5176,-5.5102,-5.5056,-5.4981,-5.4931,-5.4901,-5.4901,-5.4901,-5.4901,-5.4901,-5.4901,-5.4901,-5.4901,-5.4901,-5.4901,-5.4901,-5.4901,-5.4871,-5.481,-5.4711,-5.4597,-5.4635,-5.4622,-5.4505,-5.4486,-5.4194,-5.3898,-5.3677,-5.3414,-5.2953,-5.251,-5.2048,-5.1444,-5.0738,-5.0073,-4.9503,-4.9187,-4.8946,-4.8927,-4.8927,-4.889,-4.889,-4.889,-4.889,-4.8983,-4.9299,-4.9689,-5.0021,-5.0368,-5.0549,-5.0922,-5.1412,-5.202,-5.2721,-5.3849,-5.4543,-5.4933,-5.5445,-5.5665,-5.5684,-5.5684,-5.5684,-5.5684,-5.5684,-5.5684,-5.5703,-5.5684,-5.5724,-5.5745,-5.5766,-5.5826,-5.5865,-5.5866,-5.5904,-5.5942,-5.598,-5.6054,-5.6205,-5.696,-5.7927,-5.8855,-5.9783,-6.0441,-6.1021,-6.1118,-6.1137,-6.125,-6.1341,-6.15,-6.164,-6.168,-6.1699,-6.1699,-6.1699,-6.1699,-6.1699,-6.1699,-6.1699,-6.1699,-6.1699,-6.1699,-6.1699,-6.1699,-6.1699,-6.1699,-6.1699,-6.1699,-6.1699,-6.1699,-6.1699,-5.5403,-5.5403,-5.5403,-5.5339,-5.5183,-5.5121,-5.5056,-5.499,-5.4941,-5.4901,-5.4901,-5.4901,-5.4901,-5.4901,-5.4901,-5.4901,-5.4901,-5.4901,-5.4901,-5.4901,-5.4901,-5.489,-5.4799,-5.468,-5.4565,-5.4434,-5.4405,-5.434,-5.4356,-5.4321,-5.4321,-5.4121,-5.4046,-5.4048,-5.3775,-5.3181,-5.2864,-5.2177,-5.1435,-5.0636,-5.0228,-4.9763,-4.941,-4.9392,-4.9392,-4.9485,-4.9596,-4.9615,-4.9596,-4.9726,-5.0042,-5.0486,-5.0815,-5.1563,-5.2027,-5.2158,-5.2439,-5.2908,-5.3604,-5.4269,-5.5004,-5.5312,-5.5558,-5.5682,-5.5684,-5.5684,-5.5684,-5.5684,-5.5684,-5.5684,-5.5684,-5.5684,-5.5684,-5.5724,-5.5745,-5.5806,-5.5806,-5.5826,-5.5846,-5.5885,-5.5943,-5.6019,-5.6114,-5.6805,-5.7772,-5.8642,-5.9571,-6.0383,-6.0905,-6.1079,-6.1137,-6.1225,-6.1342,-6.1495,-6.1601,-6.1699,-6.1699,-6.1699,-6.1699,-6.1699,-6.1699,-6.1699,-6.1699,-6.1699,-6.1699,-6.1699,-6.1699,-6.1699,-6.1699,-6.1699,-6.1699,-6.1699,-6.1699,-6.1699,-6.1699,-5.5403,-5.5403,-5.5403,-5.5313,-5.5203,-5.5121,-5.5075,-5.499,-5.4922,-5.4901,-5.4901,-5.4901,-5.4901,-5.4901,-5.4901,-5.4901,-5.4901,-5.4901,-5.4901,-5.4901,-5.4871,-5.4805,-5.4689,-5.4622,-5.442,-5.4249,-5.4163,-5.4127,-5.4127,-5.4127,-5.4073,-5.3944,-5.3926,-5.3851,-5.387,-5.3608,-5.3292,-5.2734,-5.2364,-5.1881,-5.1268,-5.1026,-5.0952,-5.0971,-5.0952,-5.0878,-5.0785,-5.0766,-5.0841,-5.0933,-5.1119,-5.1745,-5.2495,-5.2528,-5.3309,-5.3848,-5.4153,-5.4155,-5.4771,-5.5197,-5.5434,-5.558,-5.5662,-5.5684,-5.5684,-5.5684,-5.5684,-5.5684,-5.5684,-5.5684,-5.5684,-5.5684,-5.5684,-5.5703,-5.5724,-5.5724,-5.5724,-5.5745,-5.5766,-5.5806,-5.5865,-5.5924,-5.6,-5.6808,-5.7617,-5.8488,-5.9319,-6.0112,-6.077,-6.0925,-6.1176,-6.1287,-6.135,-6.1471,-6.1621,-6.1699,-6.1699,-6.1699,-6.1699,-6.1699,-6.1699,-6.1699,-6.1699,-6.1699,-6.1699,-6.1699,-6.1699,-6.1699,-6.1699,-6.1699,-6.1699,-6.1699,-6.1699,-6.1699,-6.1699,-5.5403,-5.5403,-5.5403,-5.5294,-5.5203,-5.5121,-5.5057,-5.4971,-5.4931,-5.4901,-5.4901,-5.4901,-5.4901,-5.4901,-5.4901,-5.4901,-5.4901,-5.4901,-5.4901,-5.4852,-5.4791,-5.4692,-5.4589,-5.4428,-5.4179,-5.4127,-5.3981,-5.3963,-5.3944,-5.3907,-5.387,-5.3851,-5.3813,-5.3794,-5.3813,-5.3813,-5.3589,-5.3236,-5.2791,-5.2197,-5.1621,-5.1416,-5.1416,-5.1416,-5.1435,-5.1472,-5.1472,-5.1398,-5.1398,-5.1491,-5.1769,-5.236,-5.3065,-5.3555,-5.4283,-5.4838,-5.5044,-5.5054,-5.5262,-5.5554,-5.5662,-5.5684,-5.5684,-5.5684,-5.5684,-5.5684,-5.5684,-5.5684,-5.5684,-5.5684,-5.5684,-5.5684,-5.5684,-5.5684,-5.5684,-5.5684,-5.5684,-5.5684,-5.5724,-5.5745,-5.5785,-5.5846,-5.5905,-5.6271,-5.7004,-5.7851,-5.8702,-5.9514,-6.0248,-6.0789,-6.106,-6.1369,-6.1408,-6.1471,-6.1601,-6.1699,-6.1699,-6.1699,-6.1699,-6.1699,-6.1699,-6.1699,-6.1699,-6.1699,-6.1699,-6.1699,-6.1699,-6.1699,-6.1699,-6.1699,-6.1699,-6.1699,-6.1699,-6.1699,-6.168,-5.5358,-5.5332,-5.5358,-5.5313,-5.5203,-5.5121,-5.5047,-5.4977,-5.4939,-5.4901,-5.4901,-5.4901,-5.4901,-5.4901,-5.4901,-5.4901,-5.4901,-5.4901,-5.4863,-5.4784,-5.4661,-5.4581,-5.4434,-5.422,-5.4091,-5.4018,-5.387,-5.3832,-5.3813,-5.3794,-5.3794,-5.3813,-5.3813,-5.3813,-5.3813,-5.3813,-5.3738,-5.3683,-5.3237,-5.2698,-5.2234,-5.2104,-5.2104,-5.2067,-5.1992,-5.1992,-5.2011,-5.2067,-5.2085,-5.2234,-5.2715,-5.3246,-5.3715,-5.4257,-5.4819,-5.525,-5.5393,-5.5431,-5.5485,-5.5596,-5.5662,-5.5684,-5.5684,-5.5684,-5.5684,-5.5684,-5.5684,-5.5684,-5.5684,-5.5684,-5.5684,-5.5684,-5.5684,-5.5684,-5.5684,-5.5684,-5.5684,-5.5684,-5.5684,-5.5724,-5.5745,-5.5785,-5.5826,-5.5826,-5.6368,-5.7197,-5.8027,-5.8935,-5.9843,-6.0732,-6.1021,-6.1349,-6.1394,-6.1465,-6.1582,-6.168,-6.1699,-6.1699,-6.1699,-6.1699,-6.1699,-6.1699,-6.1699,-6.1699,-6.1699,-6.1699,-6.1699,-6.1699,-6.1699,-6.1699,-6.1699,-6.168,-6.168,-6.1672,-6.163,-5.5176,-5.514,-5.5313,-5.5313,-5.5203,-5.5121,-5.5066,-5.5007,-5.492,-5.4901,-5.4901,-5.4901,-5.4901,-5.4901,-5.4901,-5.4901,-5.4901,-5.4901,-5.4776,-5.4689,-5.4585,-5.4393,-5.424,-5.413,-5.3981,-5.387,-5.3794,-5.3794,-5.3813,-5.3813,-5.3813,-5.3813,-5.3813,-5.3813,-5.3813,-5.3813,-5.3813,-5.3794,-5.359,-5.359,-5.3404,-5.3404,-5.3423,-5.3478,-5.3553,-5.3627,-5.3608,-5.3423,-5.3368,-5.3368,-5.3716,-5.4115,-5.4451,-5.4722,-5.5119,-5.5485,-5.5504,-5.5527,-5.5596,-5.564,-5.5684,-5.5684,-5.5684,-5.5684,-5.5684,-5.5684,-5.5684,-5.5684,-5.5684,-5.5684,-5.5684,-5.5684,-5.5684,-5.5684,-5.5684,-5.5684,-5.5684,-5.5684,-5.5684,-5.5684,-5.5724,-5.5745,-5.5938,-5.5997,-5.6327,-5.7178,-5.8335,-5.9263,-6.0191,-6.0964,-6.108,-6.127,-6.1356,-6.1445,-6.1582,-6.164,-6.166,-6.1699,-6.1699,-6.1699,-6.1699,-6.1699,-6.1699,-6.1699,-6.1699,-6.1699,-6.1699,-6.1699,-6.1699,-6.1699,-6.1705,-6.1685,-6.16,-6.1546,-6.1496,-5.5121,-5.5075,-5.5168,-5.5195,-5.5149,-5.5066,-5.5009,-5.4981,-5.4912,-5.4901,-5.4901,-5.4901,-5.4901,-5.4901,-5.4901,-5.4901,-5.4871,-5.4761,-5.4678,-5.4528,-5.4392,-5.4256,-5.4056,-5.3981,-5.3888,-5.3813,-5.3813,-5.3813,-5.3813,-5.3813,-5.3813,-5.3813,-5.3813,-5.3813,-5.3813,-5.3813,-5.3813,-5.3813,-5.3813,-5.3813,-5.3813,-5.3813,-5.3813,-5.3813,-5.3813,-5.3813,-5.3775,-5.3794,-5.3926,-5.4086,-5.4225,-5.4604,-5.4981,-5.5083,-5.5295,-5.564,-5.5554,-5.5596,-5.564,-5.5684,-5.5684,-5.5684,-5.5684,-5.5684,-5.5684,-5.5684,-5.5684,-5.5684,-5.5684,-5.5684,-5.5684,-5.5684,-5.5684,-5.5684,-5.5684,-5.5684,-5.5684,-5.5684,-5.5684,-5.5684,-5.5684,-5.5724,-5.5974,-5.6244,-5.6654,-5.7216,-5.8433,-5.9591,-6.0481,-6.106,-6.1138,-6.1196,-6.1283,-6.1392,-6.1523,-6.1601,-6.164,-6.166,-6.168,-6.1699,-6.1699,-6.1699,-6.1699,-6.1699,-6.1699,-6.1699,-6.1699,-6.1699,-6.1699,-6.1699,-6.1699,-6.1682,-6.1574,-6.143,-6.138,-5.5038,-5.5038,-5.5057,-5.5066,-5.5094,-5.5009,-5.4971,-5.499,-5.4922,-5.4901,-5.4901,-5.4901,-5.4901,-5.4901,-5.4901,-5.4841,-5.4791,-5.4642,-5.4566,-5.4387,-5.4209,-5.4093,-5.3981,-5.3887,-5.3813,-5.3813,-5.3813,-5.3813,-5.3813,-5.3813,-5.3813,-5.3813,-5.3813,-5.3813,-5.3813,-5.3813,-5.3813,-5.3813,-5.3813,-5.3813,-5.3813,-5.3813,-5.3813,-5.3813,-5.3813,-5.3813,-5.3813,-5.3832,-5.3961,-5.4187,-5.4452,-5.4776,-5.5111,-5.5389,-5.5527,-5.5618,-5.5684,-5.5684,-5.5684,-5.5684,-5.5684,-5.5684,-5.5684,-5.5684,-5.5684,-5.5684,-5.5684,-5.5684,-5.5684,-5.5684,-5.5684,-5.5684,-5.5684,-5.5684,-5.5684,-5.5684,-5.5684,-5.5684,-5.5684,-5.5684,-5.5722,-5.5838,-5.6703,-5.7148,-5.7824,-5.8198,-5.876,-5.9824,-6.0595,-6.1039,-6.1057,-6.1118,-6.1194,-6.1324,-6.1465,-6.1504,-6.1523,-6.1543,-6.1582,-6.166,-6.166,-6.168,-6.168,-6.166,-6.166,-6.168,-6.168,-6.166,-6.168,-6.1699,-6.166,-6.1578,-6.1485,-6.1346,-6.127,-5.499,-5.4901,-5.4901,-5.4971,-5.5066,-5.5028,-5.499,-5.4981,-5.4922,-5.4901,-5.4901,-5.4901,-5.4901,-5.4901,-5.4871,-5.4791,-5.4648,-5.4565,-5.4425,-5.4202,-5.4104,-5.3981,-5.3888,-5.3813,-5.3813,-5.3813,-5.3813,-5.3813,-5.3813,-5.3813,-5.3813,-5.3813,-5.3813,-5.3813,-5.3813,-5.3813,-5.3813,-5.3813,-5.3813,-5.3813,-5.3813,-5.3813,-5.3813,-5.3813,-5.3813,-5.3813,-5.3813,-5.3813,-5.3979,-5.4326,-5.4597,-5.4924,-5.5314,-5.5531,-5.564,-5.5684,-5.5684,-5.5684,-5.5684,-5.5684,-5.5684,-5.5684,-5.5684,-5.5684,-5.5684,-5.5684,-5.5684,-5.5684,-5.5684,-5.5684,-5.5684,-5.5684,-5.5684,-5.5684,-5.5684,-5.5684,-5.5684,-5.5992,-5.6069,-5.6222,-5.6049,-5.6126,-5.7242,-5.8184,-5.8995,-5.9427,-5.9511,-6.0052,-6.0783,-6.0974,-6.0993,-6.1017,-6.1079,-6.1208,-6.1337,-6.1381,-6.1406,-6.1445,-6.1484,-6.1543,-6.1621,-6.164,-6.164,-6.1621,-6.164,-6.168,-6.164,-6.1621,-6.166,-6.168,-6.1523,-6.1433,-6.1349,-6.1273,-6.1195,-5.4931,-5.4901,-5.4901,-5.4931,-5.4941,-5.496,-5.4922,-5.4922,-5.4912,-5.4901,-5.4901,-5.4901,-5.4901,-5.4871,-5.4761,-5.468,-5.4565,-5.43,-5.4139,-5.4096,-5.398,-5.3889,-5.3794,-5.3813,-5.3813,-5.3813,-5.3813,-5.3813,-5.3813,-5.3813,-5.3813,-5.3813,-5.3813,-5.3813,-5.3813,-5.3813,-5.3813,-5.3813,-5.3813,-5.3813,-5.3813,-5.3813,-5.3813,-5.3813,-5.3813,-5.3813,-5.3794,-5.3794,-5.4102,-5.4527,-5.479,-5.5064,-5.5437,-5.5684,-5.5684,-5.5684,-5.5684,-5.5684,-5.5684,-5.5684,-5.5684,-5.5684,-5.5684,-5.5684,-5.5684,-5.5684,-5.5684,-5.5684,-5.5684,-5.5684,-5.5684,-5.5684,-5.5684,-5.5684,-5.5684,-5.5684,-5.5799,-5.6357,-5.6703,-5.6934,-5.6915,-5.755,-5.8492,-5.8934,-5.9669,-6.0111,-6.0159,-6.0278,-6.0875,-6.0888,-6.0888,-6.0933,-6.0997,-6.1099,-6.1192,-6.1244,-6.1322,-6.1348,-6.1387,-6.1445,-6.1504,-6.1562,-6.1582,-6.1562,-6.1622,-6.1674,-6.1666,-6.164,-6.166,-6.1621,-6.1523,-6.144,-6.1397,-6.1292,-6.1137,-5.4901,-5.4901,-5.4901,-5.4901,-5.4901,-5.4901,-5.4901,-5.4901,-5.4901,-5.4901,-5.4901,-5.4901,-5.4852,-5.4773,-5.4661,-5.45,-5.4434,-5.4214,-5.4036,-5.4013,-5.3889,-5.3832,-5.3813,-5.3813,-5.3813,-5.3813,-5.3813,-5.3813,-5.3813,-5.3813,-5.3813,-5.3813,-5.3813,-5.3813,-5.3813,-5.3813,-5.3813,-5.3813,-5.3813,-5.3813,-5.3813,-5.3813,-5.3813,-5.3813,-5.3813,-5.3813,-5.3832,-5.3962,-5.4206,-5.4644,-5.4988,-5.5191,-5.5554,-5.5684,-5.5684,-5.5684,-5.5684,-5.5684,-5.5684,-5.5684,-5.5684,-5.5684,-5.5684,-5.5684,-5.5684,-5.5684,-5.5684,-5.5684,-5.5684,-5.5684,-5.5684,-5.5684,-5.5684,-5.5684,-5.5992,-5.6011,-5.6319,-5.6876,-5.7453,-5.7684,-5.7934,-5.8742,-5.9435,-5.9819,-6.0204,-6.0492,-6.0742,-6.0823,-6.0888,-6.0823,-6.0823,-6.0869,-6.0955,-6.1018,-6.1079,-6.1137,-6.1194,-6.1253,-6.132,-6.1347,-6.1406,-6.1465,-6.1484,-6.1505,-6.153,-6.1557,-6.1664,-6.168,-6.168,-6.166,-6.1582,-6.1519,-6.1477,-6.133,-6.1174,-5.4901,-5.4901,-5.4901,-5.4901,-5.4901,-5.4901,-5.4901,-5.4901,-5.4901,-5.4901,-5.4871,-5.486,-5.478,-5.4597,-5.4565,-5.4401,-5.4179,-5.4091,-5.3963,-5.3851,-5.3832,-5.3813,-5.3813,-5.3813,-5.3813,-5.3813,-5.3813,-5.3813,-5.3813,-5.3813,-5.3813,-5.3813,-5.3813,-5.3813,-5.3813,-5.3813,-5.3813,-5.3813,-5.3813,-5.3813,-5.3813,-5.3813,-5.3813,-5.3813,-5.3813,-5.3813,-5.387,-5.4071,-5.443,-5.4787,-5.5111,-5.5369,-5.5596,-5.5684,-5.5684,-5.5684,-5.5684,-5.5684,-5.5684,-5.5684,-5.5684,-5.5684,-5.5684,-5.5684,-5.5684,-5.5684,-5.5684,-5.5684,-5.5684,-5.5684,-5.5684,-5.5684,-5.5684,-5.603,-5.6472,-5.6703,-5.6992,-5.7511,-5.8127,-5.8434,-5.8588,-5.9127,-5.9742,-6.0204,-6.0473,-6.0627,-6.08,-6.08,-6.0823,-6.0823,-6.0823,-6.0846,-6.0891,-6.0957,-6.0999,-6.106,-6.1099,-6.1195,-6.1234,-6.1283,-6.132,-6.1352,-6.1388,-6.1405,-6.139,-6.1442,-6.1548,-6.1621,-6.168,-6.164,-6.1601,-6.1556,-6.1505,-6.1414,-6.1283,-5.4901,-5.4901,-5.4901,-5.4901,-5.4901,-5.4901,-5.4901,-5.4901,-5.4901,-5.4817,-5.4708,-5.467,-5.4581,-5.4439,-5.4284,-5.4179,-5.4091,-5.3944,-5.3888,-5.3813,-5.3813,-5.3813,-5.3813,-5.3813,-5.3813,-5.3813,-5.3813,-5.3813,-5.3813,-5.3813,-5.3813,-5.3813,-5.3813,-5.3813,-5.3813,-5.3813,-5.3813,-5.3813,-5.3813,-5.3813,-5.3813,-5.3813,-5.3813,-5.3813,-5.3813,-5.3813,-5.387,-5.4142,-5.4495,-5.4776,-5.5138,-5.5413,-5.5662,-5.5684,-5.5684,-5.5684,-5.5684,-5.5684,-5.5684,-5.5684,-5.5684,-5.5684,-5.5684,-5.5684,-5.5684,-5.5684,-5.5684,-5.5684,-5.5684,-5.5684,-5.5684,-5.5684,-5.5684,-5.5953,-5.653,-5.7146,-5.755,-5.8338,-5.8934,-5.9242,-5.9377,-5.9704,-6.0281,-6.0416,-6.0666,-6.0742,-6.08,-6.08,-6.08,-6.08,-6.08,-6.0846,-6.0869,-6.0914,-6.0978,-6.104,-6.106,-6.108,-6.1157,-6.1195,-6.1213,-6.1229,-6.1286,-6.133,-6.1363,-6.1389,-6.1453,-6.1523,-6.164,-6.166,-6.1619,-6.1573,-6.151,-6.1433,-6.1358,-5.4901,-5.4901,-5.4901,-5.4901,-5.4901,-5.4901,-5.4882,-5.4784,-5.4805,-5.4721,-5.4597,-5.4543,-5.4434,-5.4287,-5.4163,-5.4055,-5.3963,-5.3888,-5.3813,-5.3813,-5.3813,-5.3813,-5.3813,-5.3813,-5.3813,-5.3813,-5.3813,-5.3813,-5.3813,-5.3813,-5.3813,-5.3813,-5.3813,-5.3813,-5.3813,-5.3813,-5.3813,-5.3813,-5.3813,-5.3813,-5.3813,-5.3813,-5.3813,-5.3813,-5.3813,-5.3794,-5.3907,-5.4212,-5.4591,-5.4847,-5.5191,-5.5508,-5.5684,-5.5684,-5.5684,-5.5684,-5.5684,-5.5684,-5.5684,-5.5684,-5.5684,-5.5684,-5.5684,-5.5684,-5.5684,-5.5684,-5.5684,-5.5684,-5.5684,-5.5684,-5.5684,-5.5684,-5.5684,-5.5722,-5.6588,-5.7473,-5.83,-5.9184,-5.9646,-6.0012,-6.0281,-6.055,-6.0762,-6.08,-6.08,-6.08,-6.08,-6.08,-6.08,-6.08,-6.08,-6.0823,-6.0846,-6.0869,-6.0935,-6.0999,-6.1021,-6.1041,-6.1118,-6.1137,-6.1118,-6.1137,-6.1213,-6.1286,-6.1368,-6.1391,-6.1394,-6.1511,-6.1601,-6.1607,-6.1603,-6.1569,-6.1537,-6.1535,-6.1442,-5.4901,-5.4901,-5.4901,-5.4901,-5.4901,-5.4882,-5.4787,-5.4621,-5.457,-5.4577,-5.453,-5.4439,-5.4258,-5.4073,-5.4,-5.3944,-5.387,-5.3813,-5.3813,-5.3813,-5.3813,-5.3813,-5.3813,-5.3813,-5.3813,-5.3813,-5.3813,-5.3813,-5.3813,-5.3813,-5.3813,-5.3813,-5.3813,-5.3813,-5.3813,-5.3813,-5.3813,-5.3813,-5.3813,-5.3813,-5.3813,-5.3813,-5.3813,-5.3794,-5.3832,-5.3889,-5.4017,-5.4364,-5.4836,-5.5037,-5.5301,-5.5643,-5.5684,-5.5684,-5.5684,-5.5684,-5.5684,-5.5684,-5.5684,-5.5684,-5.5684,-5.5684,-5.5684,-5.5684,-5.5684,-5.5684,-5.5684,-5.5684,-5.5684,-5.5684,-5.5684,-5.5684,-5.5684,-5.6107,-5.6896,-5.7607,-5.83,-5.93,-6.0223,-6.0492,-6.055,-6.08,-6.08,-6.08,-6.08,-6.08,-6.08,-6.08,-6.08,-6.08,-6.08,-6.08,-6.0823,-6.0846,-6.0891,-6.0978,-6.1001,-6.1022,-6.108,-6.1099,-6.1118,-6.1137,-6.1157,-6.1231,-6.1283,-6.132,-6.1352,-6.1439,-6.1493,-6.1507,-6.151,-6.1529,-6.1537,-6.1594,-6.1535,-5.4901,-5.4901,-5.4901,-5.4901,-5.4882,-5.475,-5.4644,-5.4564,-5.4331,-5.4223,-5.4205,-5.4187,-5.4056,-5.3926,-5.3907,-5.3832,-5.3832,-5.3813,-5.3813,-5.3813,-5.3813,-5.3813,-5.3813,-5.3813,-5.3813,-5.3813,-5.3813,-5.3813,-5.3813,-5.3813,-5.3813,-5.3813,-5.3813,-5.3813,-5.3813,-5.3813,-5.3813,-5.3813,-5.3813,-5.3813,-5.3813,-5.3813,-5.3813,-5.387,-5.3963,-5.4106,-5.433,-5.4758,-5.5083,-5.5288,-5.5508,-5.5662,-5.5684,-5.5684,-5.5684,-5.5684,-5.5684,-5.5684,-5.5684,-5.5684,-5.5684,-5.5684,-5.5684,-5.5684,-5.5684,-5.5684,-5.5684,-5.5684,-5.5684,-5.5684,-5.5684,-5.5684,-5.578,-5.6453,-5.7223,-5.778,-5.8357,-5.9511,-6.0685,-6.08,-6.08,-6.08,-6.08,-6.08,-6.08,-6.08,-6.08,-6.08,-6.08,-6.08,-6.08,-6.08,-6.08,-6.0823,-6.0869,-6.0935,-6.1,-6.1041,-6.108,-6.1099,-6.1099,-6.1118,-6.1137,-6.1137,-6.1156,-6.1229,-6.1264,-6.1281,-6.1326,-6.1371,-6.146,-6.1511,-6.1597,-6.1647,-6.1576,-5.4579,-5.4901,-5.4791,-5.4791,-5.4723,-5.4579,-5.4472,-5.4331,-5.4167,-5.4055,-5.3961,-5.3943,-5.3905,-5.3813,-5.3813,-5.3813,-5.3813,-5.3813,-5.3813,-5.3813,-5.3813,-5.3813,-5.3813,-5.3813,-5.3813,-5.3813,-5.3813,-5.3813,-5.3813,-5.3813,-5.3813,-5.3813,-5.3813,-5.3813,-5.3813,-5.3813,-5.3813,-5.3813,-5.3813,-5.3813,-5.3813,-5.3813,-5.3813,-5.3907,-5.4089,-5.4281,-5.4528,-5.4924,-5.5191,-5.5364,-5.5573,-5.5662,-5.5684,-5.5684,-5.5684,-5.5684,-5.5684,-5.5684,-5.5684,-5.5684,-5.5684,-5.5684,-5.5684,-5.5684,-5.5684,-5.5684,-5.5684,-5.5684,-5.5684,-5.5684,-5.5684,-5.5684,-5.5684,-5.6107,-5.7376,-5.8377,-5.9184,-6.0204,-6.0762,-6.08,-6.08,-6.08,-6.08,-6.08,-6.08,-6.08,-6.08,-6.08,-6.08,-6.08,-6.08,-6.08,-6.08,-6.08,-6.0846,-6.0914,-6.0997,-6.1021,-6.1061,-6.108,-6.1099,-6.1099,-6.1099,-6.1118,-6.1137,-6.1173,-6.1227,-6.1229,-6.127,-6.1341,-6.1442,-6.1536,-6.16,-6.1675,-6.1625,-5.417,-5.4784,-5.468,-5.4597,-5.4565,-5.4411,-5.427,-5.4115,-5.4075,-5.3943,-5.3831,-5.3813,-5.3813,-5.3813,-5.3813,-5.3813,-5.3813,-5.3813,-5.3813,-5.3813,-5.3813,-5.3813,-5.3813,-5.3813,-5.3813,-5.3813,-5.3813,-5.3813,-5.3813,-5.3813,-5.3813,-5.3813,-5.3813,-5.3813,-5.3813,-5.3813,-5.3813,-5.3813,-5.3813,-5.3813,-5.3813,-5.3832,-5.3907,-5.4,-5.4212,-5.4416,-5.4654,-5.4905,-5.5314,-5.5437,-5.5573,-5.564,-5.5684,-5.5684,-5.5684,-5.5684,-5.5684,-5.5684,-5.5684,-5.5684,-5.5684,-5.5684,-5.5684,-5.5684,-5.5684,-5.5684,-5.5684,-5.5684,-5.5684,-5.5684,-5.5684,-5.5684,-5.5684,-5.6203,-5.7646,-5.8992,-5.9935,-6.0723,-6.0762,-6.08,-6.08,-6.08,-6.08,-6.08,-6.08,-6.08,-6.08,-6.08,-6.08,-6.08,-6.08,-6.08,-6.08,-6.08,-6.0823,-6.0888,-6.0976,-6.102,-6.1041,-6.1061,-6.1099,-6.1099,-6.1099,-6.1118,-6.1137,-6.1173,-6.1194,-6.1214,-6.1253,-6.1331,-6.1442,-6.157,-6.1625,-6.168,-6.1685,-5.4054,-5.4661,-5.4629,-5.4552,-5.4405,-5.4228,-5.4153,-5.4062,-5.3907,-5.3831,-5.3813,-5.3813,-5.3813,-5.3813,-5.3813,-5.3813,-5.3813,-5.3813,-5.3813,-5.3813,-5.3813,-5.3813,-5.3813,-5.3774,-5.3813,-5.3813,-5.3774,-5.3794,-5.3736,-5.3774,-5.3813,-5.3774,-5.3813,-5.3813,-5.3813,-5.3813,-5.3813,-5.3813,-5.3813,-5.3813,-5.3907,-5.4,-5.4177,-5.443,-5.4806,-5.5028,-5.5217,-5.5461,-5.5577,-5.564,-5.566,-5.5703,-5.5684,-5.5684,-5.5684,-5.5684,-5.5684,-5.5684,-5.5684,-5.5684,-5.5684,-5.5684,-5.5684,-5.5684,-5.5684,-5.5684,-5.5684,-5.5684,-5.5684,-5.5684,-5.5684,-5.5684,-5.578,-5.6934,-5.8242,-5.9396,-6.0435,-6.0704,-6.0781,-6.08,-6.08,-6.08,-6.08,-6.08,-6.08,-6.08,-6.08,-6.08,-6.08,-6.08,-6.08,-6.08,-6.08,-6.08,-6.08,-6.0866,-6.0955,-6.0978,-6.1,-6.1041,-6.108,-6.1099,-6.1118,-6.1118,-6.1118,-6.1137,-6.1176,-6.1234,-6.1331,-6.1408,-6.1504,-6.1601,-6.166,-6.168,-6.168]}]]